[[{"header":{"parameterUnit":"m.s-1","parameterCategory":1,"la1":30.6,"la2":29.2853,"lo1":-89.7004,"lo2":-87.6739,"dy":0.0162,"dx":0.0183,"nx":112,"ny":82,"refTime":"2023-07-13T06:00:00:Z","depth":0,"parameterNumber":2,"parameterNumberName":"U-component_of_WINDS"},"data":[0.0,0.0,0.0,0.0,0.0,0.0,0.0,0.0,0.0,0.0,0.0,0.0,0.0,0.0,0.0,0.0,0.0,0.0,0.0,0.0,0.0,0.0,0.0,0.0,0.0,0.0,0.0,0.0,0.0,0.0,0.0,0.0,0.0,0.0,0.0,0.0,0.0,0.0,0.0,0.0,0.0,0.0,0.0,0.0,0.0,0.0,0.0,0.0,0.0,0.0,0.0,0.0,0.0,0.0,0.0,0.0,0.0,0.0,0.0,0.0,0.0,0.0,0.0,0.0,0.0,0.0,0.0,0.0,0.0,0.0,0.0,0.0,0.0,0.0,0.0,0.0,0.0,0.0,0.0,0.0,0.0,0.0,0.0,0.0,0.0,0.0,0.0,0.0,0.0,0.0,0.0,-2.9526,-3.5877,-3.9785,-3.9916,-3.8985,-3.6108,-3.0669,0.0,0.0,0.0,0.0,0.0,0.0,0.0,0.0,0.0,0.0,0.0,0.0,0.0,0.0,0.0,0.0,0.0,0.0,0.0,0.0,0.0,0.0,0.0,0.0,0.0,0.0,0.0,0.0,0.0,0.0,0.0,0.0,0.0,0.0,0.0,0.0,0.0,0.0,0.0,0.0,0.0,0.0,0.0,0.0,0.0,0.0,0.0,0.0,0.0,0.0,0.0,0.0,0.0,0.0,0.0,0.0,0.0,0.0,0.0,0.0,0.0,0.0,0.0,0.0,0.0,0.0,0.0,0.0,0.0,0.0,0.0,0.0,0.0,0.0,0.0,0.0,0.0,0.0,0.0,0.0,0.0,0.0,0.0,0.0,0.0,0.0,0.0,0.0,0.0,0.0,0.0,0.0,0.0,0.0,0.0,0.0,0.0,0.0,0.0,0.0,0.0,0.0,0.0,0.0,-2.6283,-3.2457,-3.6151,-3.8409,-3.9017,-3.6736,-3.3648,-2.981,0.0,0.0,0.0,0.0,0.0,0.0,0.0,0.0,0.0,0.0,0.0,0.0,0.0,0.0,0.0,0.0,0.0,0.0,0.0,0.0,0.0,0.0,0.0,0.0,0.0,0.0,0.0,0.0,0.0,0.0,0.0,0.0,0.0,0.0,0.0,0.0,0.0,0.0,0.0,0.0,0.0,0.0,0.0,0.0,0.0,0.0,0.0,0.0,0.0,0.0,0.0,0.0,0.0,0.0,0.0,0.0,0.0,0.0,0.0,0.0,0.0,0.0,0.0,0.0,0.0,0.0,0.0,0.0,0.0,0.0,0.0,0.0,0.0,0.0,0.0,0.0,0.0,0.0,0.0,0.0,0.0,0.0,0.0,0.0,0.0,0.0,0.0,0.0,0.0,0.0,0.0,0.0,0.0,0.0,0.0,0.0,0.0,0.0,0.0,0.0,0.0,0.0,0.0,-2.5543,-2.8293,-3.2654,-3.5509,-3.727,-3.7614,-3.5471,-3.2819,-2.9746,-2.7547,0.0,0.0,0.0,0.0,0.0,0.0,0.0,0.0,0.0,0.0,0.0,0.0,0.0,0.0,0.0,0.0,0.0,0.0,0.0,0.0,0.0,0.0,0.0,0.0,0.0,0.0,0.0,0.0,0.0,0.0,0.0,0.0,0.0,0.0,0.0,0.0,0.0,0.0,0.0,0.0,0.0,0.0,0.0,0.0,0.0,0.0,0.0,0.0,0.0,0.0,0.0,0.0,0.0,0.0,0.0,0.0,0.0,0.0,0.0,0.0,0.0,0.0,0.0,0.0,0.0,0.0,0.0,0.0,0.0,0.0,0.0,0.0,0.0,0.0,0.0,0.0,0.0,0.0,0.0,0.0,0.0,0.0,0.0,0.0,0.0,0.0,0.0,0.0,0.0,0.0,0.0,0.0,0.0,0.0,0.0,0.0,0.0,0.0,0.0,0.0,0.0,0.0,-2.732,-2.9475,-3.2437,-3.4912,-3.6322,-3.6322,-3.4258,-3.194,-2.9608,-2.6266,0.0,0.0,0.0,0.0,0.0,0.0,0.0,0.0,0.0,0.0,0.0,0.0,0.0,0.0,0.0,0.0,0.0,0.0,0.0,0.0,0.0,0.0,0.0,0.0,0.0,0.0,0.0,0.0,0.0,0.0,0.0,0.0,0.0,0.0,0.0,0.0,0.0,0.0,0.0,0.0,0.0,0.0,0.0,0.0,0.0,0.0,0.0,0.0,0.0,0.0,0.0,0.0,0.0,0.0,0.0,0.0,0.0,0.0,0.0,0.0,0.0,0.0,0.0,0.0,0.0,0.0,0.0,0.0,0.0,0.0,0.0,0.0,0.0,0.0,0.0,0.0,0.0,0.0,0.0,0.0,0.0,0.0,0.0,0.0,0.0,0.0,0.0,0.0,0.0,0.0,0.0,0.0,0.0,0.0,0.0,0.0,0.0,0.0,0.0,0.0,0.0,0.0,-2.7195,-2.9142,-3.3006,-3.4745,-3.5587,-3.5587,-3.2586,-3.0126,-2.8745,-2.5541,0.0,0.0,0.0,0.0,0.0,0.0,0.0,0.0,0.0,0.0,0.0,0.0,0.0,0.0,0.0,0.0,0.0,0.0,0.0,0.0,0.0,0.0,0.0,0.0,0.0,0.0,0.0,0.0,0.0,0.0,0.0,0.0,0.0,0.0,0.0,0.0,0.0,0.0,0.0,0.0,0.0,0.0,0.0,0.0,0.0,0.0,0.0,0.0,0.0,0.0,0.0,0.0,0.0,0.0,0.0,0.0,0.0,0.0,0.0,0.0,0.0,0.0,0.0,0.0,0.0,0.0,0.0,0.0,0.0,0.0,0.0,0.0,0.0,0.0,0.0,0.0,0.0,0.0,0.0,0.0,0.0,0.0,0.0,0.0,0.0,0.0,0.0,0.0,0.0,0.0,0.0,0.0,0.0,0.0,0.0,0.0,0.0,0.0,0.0,0.0,0.0,0.0,-2.8427,-3.022,0.0,-3.4951,-3.534,-3.4891,-3.2198,-2.9953,-2.8697,0.0,0.0,0.0,0.0,0.0,0.0,0.0,0.0,0.0,0.0,0.0,0.0,0.0,0.0,0.0,0.0,0.0,0.0,0.0,0.0,0.0,0.0,0.0,0.0,0.0,0.0,0.0,0.0,0.0,0.0,0.0,0.0,0.0,0.0,0.0,0.0,0.0,0.0,0.0,0.0,0.0,0.0,0.0,0.0,0.0,0.0,0.0,0.0,0.0,0.0,0.0,0.0,0.0,0.0,0.0,0.0,0.0,0.0,0.0,0.0,0.0,0.0,0.0,0.0,0.0,0.0,0.0,0.0,0.0,0.0,0.0,0.0,0.0,0.0,0.0,0.0,0.0,0.0,0.0,0.0,0.0,0.0,0.0,0.0,0.0,0.0,0.0,0.0,0.0,0.0,0.0,0.0,0.0,0.0,0.0,0.0,0.0,0.0,0.0,0.0,0.0,0.0,-2.7829,-2.8693,-3.022,0.0,-3.4472,-3.4681,-3.4234,-3.133,-2.9295,-2.8637,0.0,0.0,0.0,0.0,0.0,0.0,0.0,0.0,0.0,0.0,0.0,0.0,0.0,0.0,0.0,0.0,0.0,0.0,0.0,0.0,0.0,0.0,0.0,0.0,0.0,0.0,0.0,0.0,0.0,0.0,0.0,0.0,0.0,0.0,0.0,0.0,0.0,0.0,0.0,0.0,0.0,0.0,0.0,0.0,0.0,0.0,0.0,0.0,0.0,0.0,0.0,0.0,0.0,0.0,0.0,0.0,0.0,0.0,0.0,0.0,0.0,0.0,0.0,0.0,0.0,0.0,0.0,0.0,0.0,0.0,0.0,0.0,0.0,0.0,0.0,0.0,0.0,0.0,0.0,0.0,0.0,0.0,0.0,0.0,0.0,0.0,0.0,0.0,0.0,0.0,0.0,0.0,0.0,0.0,0.0,0.0,0.0,0.0,0.0,0.0,0.0,0.0,-2.7141,-2.759,-2.8846,-3.2138,-3.3095,-3.3484,-3.3484,-2.9861,-2.7884,0.0,0.0,0.0,0.0,0.0,0.0,0.0,0.0,0.0,0.0,0.0,0.0,0.0,0.0,0.0,0.0,0.0,0.0,0.0,0.0,0.0,0.0,0.0,0.0,0.0,0.0,0.0,0.0,0.0,0.0,0.0,0.0,0.0,0.0,0.0,0.0,0.0,0.0,0.0,0.0,0.0,0.0,0.0,0.0,0.0,0.0,0.0,0.0,0.0,0.0,0.0,0.0,0.0,0.0,0.0,0.0,0.0,0.0,0.0,0.0,0.0,0.0,0.0,0.0,0.0,0.0,0.0,0.0,0.0,0.0,0.0,0.0,0.0,0.0,0.0,0.0,0.0,0.0,0.0,0.0,0.0,0.0,0.0,0.0,0.0,0.0,0.0,0.0,0.0,0.0,0.0,0.0,0.0,0.0,0.0,0.0,0.0,0.0,0.0,0.0,0.0,0.0,0.0,-2.6403,-2.7238,-2.8817,-3.1942,-3.2997,-3.3125,-3.2168,-2.9325,-2.7495,-2.72,0.0,0.0,0.0,0.0,0.0,0.0,0.0,0.0,0.0,0.0,0.0,0.0,0.0,0.0,0.0,0.0,0.0,0.0,0.0,0.0,0.0,0.0,0.0,0.0,0.0,0.0,0.0,0.0,0.0,0.0,0.0,0.0,0.0,0.0,0.0,0.0,0.0,0.0,0.0,0.0,0.0,0.0,0.0,0.0,0.0,0.0,0.0,0.0,0.0,0.0,0.0,0.0,0.0,0.0,0.0,0.0,0.0,0.0,0.0,0.0,0.0,0.0,0.0,0.0,0.0,0.0,0.0,0.0,0.0,0.0,0.0,0.0,0.0,0.0,0.0,0.0,0.0,0.0,0.0,0.0,0.0,0.0,0.0,0.0,0.0,0.0,0.0,0.0,0.0,0.0,0.0,0.0,0.0,0.0,0.0,0.0,0.0,0.0,0.0,0.0,0.0,0.0,-2.5965,-2.6554,-2.8026,-3.1452,-3.2065,-3.2138,-3.19,-2.9235,-2.724,-2.6332,0.0,0.0,0.0,0.0,0.0,0.0,0.0,0.0,0.0,0.0,0.0,0.0,0.0,0.0,0.0,0.0,0.0,0.0,0.0,0.0,0.0,0.0,0.0,0.0,0.0,0.0,0.0,0.0,0.0,0.0,0.0,0.0,0.0,0.0,0.0,0.0,0.0,0.0,0.0,0.0,0.0,0.0,0.0,0.0,0.0,0.0,0.0,0.0,0.0,0.0,0.0,0.0,0.0,0.0,0.0,0.0,0.0,0.0,0.0,0.0,0.0,0.0,0.0,0.0,0.0,0.0,0.0,0.0,0.0,0.0,0.0,0.0,0.0,0.0,0.0,0.0,0.0,0.0,0.0,0.0,0.0,0.0,0.0,0.0,0.0,0.0,0.0,0.0,0.0,0.0,0.0,0.0,0.0,0.0,0.0,0.0,0.0,0.0,0.0,0.0,0.0,0.0,-2.5625,-2.5601,-2.6747,-3.0483,-3.0463,-3.0683,-3.1901,-2.9166,-2.6878,-2.5665,0.0,0.0,0.0,0.0,0.0,0.0,0.0,0.0,0.0,0.0,0.0,0.0,0.0,0.0,0.0,0.0,0.0,0.0,0.0,0.0,0.0,0.0,0.0,0.0,0.0,0.0,0.0,0.0,0.0,0.0,0.0,0.0,0.0,0.0,0.0,0.0,0.0,0.0,0.0,0.0,0.0,0.0,0.0,0.0,0.0,0.0,0.0,0.0,0.0,0.0,0.0,0.0,0.0,0.0,0.0,0.0,0.0,0.0,0.0,0.0,-2.9212,0.0,0.0,0.0,0.0,0.0,0.0,0.0,0.0,0.0,0.0,0.0,0.0,0.0,0.0,0.0,0.0,0.0,0.0,0.0,0.0,0.0,0.0,0.0,0.0,0.0,0.0,0.0,0.0,0.0,0.0,0.0,0.0,0.0,0.0,0.0,0.0,0.0,0.0,0.0,0.0,0.0,-2.4201,-2.4534,-2.5593,-2.8185,-2.8958,-2.9013,-2.8384,-2.6722,-2.5265,-2.4149,0.0,0.0,0.0,0.0,0.0,0.0,0.0,0.0,0.0,0.0,0.0,0.0,0.0,0.0,0.0,0.0,0.0,0.0,0.0,0.0,0.0,0.0,0.0,0.0,0.0,0.0,0.0,0.0,0.0,0.0,0.0,0.0,0.0,0.0,0.0,0.0,0.0,0.0,0.0,0.0,0.0,0.0,0.0,0.0,0.0,0.0,0.0,0.0,0.0,0.0,0.0,0.0,0.0,0.0,0.0,0.0,0.0,0.0,0.0,0.0,0.0,-3.0189,0.0,0.0,0.0,0.0,0.0,0.0,0.0,0.0,0.0,0.0,0.0,0.0,0.0,0.0,0.0,0.0,0.0,0.0,0.0,0.0,0.0,0.0,0.0,0.0,0.0,0.0,0.0,0.0,0.0,0.0,0.0,0.0,0.0,0.0,0.0,0.0,0.0,0.0,0.0,0.0,-2.4111,-2.4024,-2.4892,-2.7868,-2.8323,-2.842,-2.8533,-2.6789,-2.5107,-2.3688,-2.1824,0.0,0.0,0.0,0.0,0.0,0.0,0.0,0.0,0.0,0.0,0.0,0.0,0.0,0.0,0.0,0.0,0.0,0.0,0.0,0.0,0.0,0.0,0.0,0.0,0.0,0.0,0.0,0.0,0.0,0.0,0.0,0.0,0.0,0.0,0.0,0.0,0.0,0.0,0.0,0.0,0.0,0.0,0.0,0.0,0.0,0.0,0.0,0.0,0.0,0.0,0.0,0.0,0.0,0.0,-3.8811,-4.0247,-3.9679,-3.92,-3.8601,-3.5669,-3.3245,-3.142,0.0,0.0,0.0,0.0,0.0,0.0,0.0,0.0,0.0,0.0,0.0,0.0,0.0,0.0,0.0,0.0,0.0,0.0,0.0,0.0,0.0,0.0,0.0,0.0,0.0,-2.896,-2.8625,0.0,0.0,0.0,0.0,0.0,0.0,0.0,0.0,0.0,0.0,0.0,0.0,-2.4356,-2.3923,-2.4639,-2.7983,-2.7826,-2.7941,-2.8997,-2.7196,-2.5195,-2.3489,-2.1747,-2.0137,0.0,0.0,0.0,0.0,0.0,0.0,0.0,0.0,0.0,0.0,0.0,0.0,0.0,0.0,0.0,0.0,0.0,0.0,0.0,0.0,0.0,0.0,0.0,0.0,0.0,0.0,0.0,0.0,0.0,0.0,0.0,0.0,-3.1021,-3.1785,0.0,0.0,0.0,0.0,0.0,0.0,0.0,0.0,0.0,0.0,0.0,0.0,0.0,0.0,-3.8587,-4.0441,-4.1452,-4.1632,-4.3329,-4.3958,-4.3658,-4.3569,-4.3808,-4.4167,-4.2581,0.0,-3.4771,-3.3694,0.0,0.0,0.0,0.0,0.0,0.0,0.0,0.0,0.0,0.0,0.0,0.0,0.0,0.0,0.0,0.0,0.0,0.0,0.0,0.0,0.0,0.0,-2.874,-2.8047,-2.8349,-2.8518,0.0,-2.7377,-2.7023,-2.6384,0.0,0.0,0.0,0.0,0.0,0.0,0.0,0.0,-2.4004,-2.4374,-2.5141,-2.662,-2.6696,-2.6325,-2.5542,-2.5179,-2.4253,-2.2571,-2.1357,-2.0622,-2.0365,-1.9434,0.0,0.0,0.0,0.0,0.0,0.0,0.0,0.0,0.0,0.0,0.0,0.0,0.0,0.0,0.0,0.0,0.0,0.0,0.0,0.0,0.0,0.0,0.0,0.0,0.0,0.0,0.0,0.0,0.0,-3.2361,-3.3681,-3.1867,-3.3872,-3.4856,0.0,0.0,0.0,0.0,0.0,0.0,0.0,0.0,0.0,-3.8212,-4.0217,-4.1743,-4.2701,-4.4706,-4.5915,-4.6304,-4.7489,-4.8117,-4.8177,-4.7774,-4.7774,-4.7997,-4.6681,-4.4377,-4.1354,-3.8542,-3.6716,-3.5579,0.0,0.0,0.0,0.0,0.0,-3.3335,-3.3425,0.0,0.0,0.0,0.0,0.0,0.0,0.0,0.0,0.0,0.0,0.0,0.0,0.0,0.0,-2.9288,-2.9621,-2.9784,-2.8638,-2.7996,-2.7407,0.0,-2.651,-2.6198,-2.5375,0.0,0.0,0.0,0.0,0.0,-2.4274,-2.465,-2.5234,-2.6373,-2.6499,-2.6172,-2.5335,-2.4983,-2.4073,-2.2422,-2.1295,-2.0415,-1.9761,-1.9259,-1.9108,0.0,0.0,0.0,0.0,0.0,0.0,0.0,0.0,0.0,0.0,0.0,0.0,0.0,0.0,0.0,0.0,0.0,0.0,0.0,0.0,0.0,0.0,0.0,0.0,0.0,0.0,0.0,0.0,-3.4678,-3.6075,-3.2945,-3.5785,-3.7107,0.0,0.0,0.0,0.0,0.0,0.0,-3.7842,-3.9516,-4.1025,-4.2372,-4.4466,-4.6052,-4.707,-4.8536,-4.9613,-5.0318,-5.075,-5.1259,-5.1708,-5.1229,-5.0853,-5.0614,-4.9523,-4.8386,-4.6967,-4.2851,-4.0068,-3.8332,-3.7554,-3.6626,-3.5789,-3.6327,-3.6507,-3.6537,-3.6866,-3.6746,-3.6264,-3.4809,0.0,-3.2155,-3.0213,0.0,0.0,0.0,0.0,-2.8872,-2.992,0.0,-3.1021,-3.0451,-3.0667,-3.0672,-2.9404,-2.8825,-2.8221,0.0,-2.7202,-2.7055,-2.6002,0.0,0.0,0.0,0.0,-2.3552,-2.465,-2.5059,-2.5561,-2.6399,-2.6499,-2.6197,-2.546,-2.5034,-2.4073,-2.2422,-2.1418,-2.0465,-1.9484,-1.9284,-1.9208,-1.9208,0.0,0.0,0.0,0.0,0.0,0.0,0.0,0.0,0.0,0.0,0.0,0.0,0.0,0.0,0.0,0.0,0.0,0.0,0.0,0.0,0.0,0.0,0.0,0.0,0.0,0.0,0.0,0.0,0.0,-3.6551,-3.9279,0.0,0.0,0.0,0.0,-3.8137,-3.9931,-4.131,-4.2059,-4.4496,-4.6531,-4.7848,-4.867,-4.9942,-5.1828,-5.1947,-5.2336,-5.2965,-5.3025,-5.3054,-5.3084,-5.3054,-5.2695,-5.2067,-5.1379,-5.0614,-4.9628,-4.5053,-4.2402,-4.1055,-3.9768,-3.9194,-3.917,-3.92,-3.9194,-3.914,-3.8512,-3.7494,-3.6522,-3.6612,-3.5119,-3.2999,-3.111,-2.9949,0.0,0.0,-2.8324,-2.8257,-2.8836,-2.9416,-2.9996,-3.0486,-3.0637,-3.0446,-2.9854,-2.9729,-2.924,0.0,-2.6451,-2.5719,-2.5627,0.0,-2.4563,-2.4079,-2.4808,-2.5285,-2.485,-2.5737,-2.6424,-2.6474,-2.6499,-2.6072,-2.4926,-2.48,-2.4073,-2.2422,-2.1769,-2.1219,-2.0641,-2.0062,-1.9761,-1.9761,-1.9786,0.0,0.0,0.0,0.0,0.0,0.0,0.0,0.0,0.0,0.0,0.0,0.0,0.0,0.0,0.0,0.0,0.0,0.0,0.0,0.0,0.0,0.0,0.0,0.0,0.0,0.0,0.0,0.0,-4.163,-4.4355,0.0,0.0,-4.2138,-4.2132,-4.2791,-4.4287,-4.5663,-4.6783,-4.8506,-4.9883,-5.078,-5.1887,-5.2785,-5.3473,-5.3922,-5.4251,-5.4461,-5.4461,-5.4461,-5.4461,-5.3563,-5.3294,-5.3384,-5.1391,-5.0644,-5.0614,-4.8177,-4.6112,-4.4466,-4.3539,-4.2432,-4.1354,-4.1773,-4.1884,-4.1718,-4.0314,-3.9527,-3.8581,-3.5294,-3.3171,-3.1612,-3.0466,-2.9619,-2.9182,-2.9718,-2.9505,-2.9402,-3.0281,-3.0407,-3.0357,-3.0557,-3.0357,-3.003,-2.9829,-2.9804,-2.9603,-2.9001,-2.7996,-2.7218,-2.7218,-2.6163,-2.5511,-2.6038,-2.6172,-2.6122,-2.5946,-2.6575,-2.6876,-2.6524,-2.6499,-2.6047,-2.4876,-2.48,-2.3954,-2.192,-2.1594,-2.1066,-2.0137,-1.9911,-1.9811,-1.9811,-1.9811,-1.9811,0.0,0.0,0.0,0.0,0.0,0.0,0.0,0.0,0.0,0.0,0.0,0.0,0.0,0.0,0.0,0.0,0.0,0.0,0.0,0.0,0.0,0.0,0.0,0.0,0.0,0.0,-4.4616,-4.5372,-4.8502,-4.9756,-4.7574,-4.7551,-4.7818,-4.8267,-4.9553,-5.0571,-5.1276,-5.2306,-5.3084,-5.3533,-5.4192,-5.464,-5.488,-5.5089,-5.5299,-5.5538,-5.5538,-5.5538,-5.5478,-5.461,-5.4192,-5.4102,-5.2336,-5.1511,-5.1468,-5.0601,-4.9224,-4.7535,-4.689,-4.5885,-4.4747,-4.4915,-4.4814,-4.4344,-4.225,-4.1268,-4.0277,-3.5747,-3.3356,-3.2058,-3.095,-3.0206,-2.9905,-3.0658,-3.0608,-3.0532,-3.1436,-3.1411,-3.116,-3.116,-3.0733,-3.0281,-3.0105,-2.993,-2.9804,-2.9804,-2.9176,-2.8624,-2.8423,-2.7469,-2.6917,-2.7469,-2.7278,-2.7052,-2.7052,-2.7168,-2.7178,-2.6801,-2.66,-2.6047,-2.4876,-2.4983,-2.4054,-2.1644,-2.1669,-2.1167,-1.9861,-1.9987,-2.0087,-2.0087,-2.0087,-1.9987,-1.9811,0.0,0.0,0.0,0.0,0.0,0.0,0.0,0.0,0.0,0.0,0.0,0.0,0.0,0.0,0.0,0.0,0.0,0.0,0.0,0.0,0.0,0.0,0.0,-4.0704,-4.4639,-4.7538,-4.7743,-5.1681,-5.3623,-5.1678,-5.3264,-5.4401,-5.4371,-5.5538,-5.5987,-5.5329,-5.5837,-5.6248,-5.6248,-5.5538,-5.5508,-5.6218,-5.5538,-5.5538,-5.6218,-5.6248,-5.6248,-5.6218,-5.6188,-5.5448,-5.4251,-5.4192,-5.3443,-5.2217,-5.2217,-5.1439,-5.0166,-4.9553,-4.9329,-4.9209,-4.8506,-4.7848,-4.6847,-4.4165,-4.2566,-4.1204,-3.8114,-3.6062,-3.45,-3.2751,-3.1888,-3.1436,-3.1436,-3.1436,-3.1537,-3.2089,-3.2215,-3.2215,-3.2215,-3.1788,-3.1235,-3.0733,-3.0206,-2.9804,-2.9804,-2.9804,-2.9603,-2.9013,-2.8913,-2.8737,-2.8247,-2.8147,0.0,-2.8122,-2.767,-2.7318,-2.7354,-2.6876,-2.6097,-2.4901,-2.5285,-2.4406,-2.1669,-2.197,-2.1518,-1.9886,-2.0365,-2.0666,-2.0666,-2.0666,-2.039,-1.9811,0.0,0.0,0.0,0.0,0.0,0.0,0.0,0.0,0.0,0.0,0.0,0.0,0.0,0.0,0.0,0.0,0.0,0.0,0.0,0.0,0.0,0.0,-4.4649,-4.5341,-4.814,-5.1225,-5.4116,-5.641,-5.7723,-5.7663,-5.8141,-5.8261,-5.7782,-5.8082,-5.8022,-5.7363,-5.6585,-5.6376,-5.6825,-5.5777,-5.5508,-5.6218,-5.6038,-5.6038,-5.6218,-5.6615,-5.6615,-5.6166,-5.5688,-5.5269,-5.485,-5.3892,-5.3264,-5.2875,-5.2396,-5.1708,-5.087,-5.0242,-4.9404,-4.8536,-4.8356,-4.7037,-4.5069,-4.2952,-4.0912,-3.8888,-3.6679,-3.5391,-3.459,-3.3683,-3.3043,-3.2616,-3.2616,-3.2315,-3.2114,-3.2692,-3.2516,-3.2215,-3.2215,-3.1788,-3.1235,-3.0733,-3.0507,-3.0281,-2.988,-2.9804,-2.9754,-2.9578,-2.9553,-2.9503,-2.9352,-2.9327,0.0,-2.8712,-2.8574,-2.8323,-2.7921,-2.7745,-2.7042,-2.5511,-2.5159,-2.4029,0.0,-2.1295,-2.0943,-2.0465,-2.0188,-2.0037,-2.0037,-2.0037,-1.9962,0.0,0.0,0.0,0.0,0.0,0.0,0.0,0.0,0.0,0.0,0.0,0.0,0.0,0.0,0.0,0.0,0.0,0.0,0.0,0.0,0.0,0.0,-4.7261,-4.9833,-5.1577,-5.2683,-5.4551,-5.7932,-5.9548,-6.0625,-6.1283,-6.1343,-6.1074,-6.0416,-6.0116,-5.9548,-5.859,-5.7543,-5.7154,-5.7513,-5.6526,-5.6316,-5.6974,-5.6705,-5.6705,-5.7004,-5.7363,-5.7334,-5.6974,-5.6286,-5.5837,0.0,-5.4491,-5.3713,-5.3144,-5.2755,-5.2067,0.0,0.0,0.0,0.0,0.0,-4.7184,-4.5478,-4.356,-4.2362,-4.1118,-3.792,-3.6929,-3.6627,-3.5041,-3.4048,-3.342,-3.342,-3.3018,-3.2641,-3.2993,-3.2817,-3.2566,-3.2566,-3.2139,-3.1662,-3.1361,-3.111,-3.0783,-3.0231,0.0,0.0,-3.0432,-3.0381,-3.0228,-2.9856,-3.0139,-3.0126,0.0,-2.8875,-2.8473,-2.8147,-2.7695,-2.6841,-2.5385,-2.5184,0.0,0.0,0.0,-2.127,-2.1043,-2.0717,0.0,0.0,0.0,-2.0037,0.0,0.0,0.0,0.0,-1.9811,-1.9811,0.0,0.0,0.0,0.0,0.0,0.0,0.0,0.0,0.0,0.0,0.0,0.0,0.0,0.0,0.0,0.0,-5.2118,-5.488,-5.8112,-5.7573,-5.7693,-6.0027,-6.1373,-6.2361,-6.3019,-6.3079,-6.2839,-6.2241,-6.1523,-6.0595,-5.9398,0.0,0.0,0.0,0.0,-5.7453,-5.8231,-5.7543,-5.7513,-5.8112,-5.8201,-5.8201,-5.8112,-5.7423,-5.6765,-5.6188,-5.5478,-5.4431,-5.3174,-5.3174,-5.2366,-5.1109,-5.102,-5.0631,-4.9927,-4.8656,-4.7818,0.0,0.0,0.0,0.0,-4.0659,-3.9474,-3.9393,-3.6553,-3.4942,-3.4073,-3.3997,-3.3596,-3.3212,-3.3212,-3.3162,-3.3111,-3.3111,-3.2692,-3.229,-3.2215,-3.1838,-3.1351,-3.0867,-3.1319,-3.1727,-3.1272,-3.1204,-3.0932,-3.0062,-3.0582,-3.0733,-2.9895,-2.8925,-2.8273,-2.8197,0.0,0.0,-2.5109,-2.531,-2.4632,-2.2518,-2.2347,-2.2071,-2.1518,-2.1493,-2.1468,-2.1393,-2.0893,-2.0339,-1.9811,-1.9811,-1.9811,-1.9811,-1.9861,-1.9886,0.0,0.0,0.0,0.0,0.0,0.0,0.0,0.0,0.0,0.0,0.0,0.0,0.0,0.0,0.0,-5.3543,-5.582,-5.8141,-6.0924,-6.1104,-6.1134,-6.1642,-6.1942,-6.2361,-6.3019,-6.3079,-6.3019,-6.2899,-6.1792,-6.1014,-6.0745,-5.9069,0.0,-5.9668,-5.8022,-5.7693,-5.889,-5.8261,-5.7992,-5.8141,0.0,0.0,-5.8112,-5.7423,-5.6765,-5.6188,-5.5478,-5.4431,-5.3174,-5.3174,-5.2097,-5.0345,-4.9853,-4.9583,-4.9284,-4.7967,-4.7429,-4.7016,-4.5186,-4.4733,-4.4442,-4.1424,-3.9925,-3.8948,-3.7445,-3.6128,0.0,-3.47,-3.4173,-3.3746,-3.3746,-3.342,-3.3111,-3.3111,-3.2993,-3.2792,-3.2315,-3.2139,-3.1984,-3.1772,-3.1267,-3.0931,-3.1187,-3.1204,-3.1156,-3.097,-3.0457,-3.0011,-2.9818,-2.9603,-2.9277,-2.8825,-2.8574,-2.7821,-2.6298,-2.5435,-2.4374,-2.302,-2.2518,-2.2071,-2.1518,-2.1493,-2.132,-2.0867,-2.0289,-1.9911,-1.9811,-1.9811,-1.9811,-1.9811,-2.0314,-2.0541,0.0,0.0,0.0,0.0,0.0,0.0,0.0,0.0,0.0,0.0,0.0,-4.8519,0.0,0.0,-5.4231,-5.7198,-5.9039,-6.0685,-6.2361,-6.2301,-6.2211,-6.254,-6.26,-6.272,-6.3049,-6.3079,-6.3079,-6.3079,-6.2151,-6.1613,-6.1613,-6.0356,-5.9757,-6.0086,-5.9458,-5.9249,-5.9608,-5.9279,-5.9099,-5.9099,-5.9099,-5.877,-5.8112,-5.7423,-5.6765,-5.6107,-5.5119,-5.4132,-5.3114,-5.2127,-5.1139,-5.0106,-4.9164,-4.882,-4.87,-4.7668,-4.7309,-4.7076,-4.5564,-4.4973,-4.4531,-4.1709,-4.0201,-3.9242,-3.7707,-3.6421,-3.5433,-3.5157,-3.455,-3.3897,-3.3897,-3.3495,-3.3111,-3.3111,-3.3111,-3.3164,-3.3425,-3.3472,-3.3338,-3.2949,-3.2935,-3.2671,-3.1774,-3.1615,-3.151,-3.1257,-3.0809,-3.0495,-3.0495,-2.9809,-2.9252,-2.8913,-2.8423,-2.767,-2.6575,-2.546,-2.4299,-2.317,-2.312,-2.2774,-2.1945,-2.1895,-2.1644,-2.1119,-2.0541,-2.0087,-1.9811,-1.9811,-1.9962,-2.0238,-2.0842,-2.0968,0.0,0.0,0.0,0.0,0.0,0.0,0.0,0.0,-4.9779,-5.2068,-5.1998,-5.2398,-5.5341,-5.6325,-5.7633,-6.0386,-6.1882,-6.278,-6.3049,-6.272,-6.263,-6.3019,-6.2959,-6.2929,-6.3079,-6.3079,-6.3079,-6.3079,-6.248,-6.2091,-6.2091,-6.1463,-6.0924,-6.0475,-6.0894,-6.0894,-6.0475,-6.0206,-6.0086,-6.0086,-5.9428,-5.883,-5.8291,-5.7483,-5.6825,-5.6308,-5.47,-5.3683,-5.3025,-5.105,-5.0106,-4.9942,-4.8745,-4.8207,-4.8027,-4.7489,-4.7149,-4.677,-4.5779,-4.5252,-4.4635,-4.2269,-4.0998,-4.0139,-3.8571,-3.7177,-3.6155,-3.5902,-3.5077,-3.4223,-3.4223,-3.3721,-3.3269,-3.337,-3.3244,-3.3394,-3.4334,-3.4632,-3.4574,-3.4166,-3.4745,-3.4728,-3.2802,-3.2231,-3.1853,-3.1272,-3.1204,-3.113,-3.0932,-3.0008,-2.9214,-2.8925,-2.8122,-2.7329,-2.6549,-2.5536,-2.4449,-2.3346,-2.3728,-2.3552,-2.2523,-2.2272,-2.1945,-2.1493,-2.0867,-2.0289,-1.9811,-1.9811,-2.0087,-2.0717,-2.127,-2.1345,-4.3139,-4.435,0.0,-5.0473,-5.115,-5.2875,0.0,0.0,-5.7077,-6.0035,-5.9701,-5.9381,-6.0971,-6.1759,-6.248,-6.3408,-6.4216,-6.4336,-6.3228,-6.3498,-6.3617,-6.3139,-6.257,-6.245,-6.3019,-6.3079,-6.3079,-6.3079,-6.248,-6.2091,-6.2091,-6.1463,-6.1343,-6.1852,-6.1373,-6.1373,-6.1882,-6.0685,-6.0086,-6.0086,-5.9428,-5.9069,-5.8949,-5.7663,-5.7064,-5.6855,-5.4371,-5.3264,-5.3025,-5.105,-4.9883,-4.9359,-4.8566,-4.7938,-4.7399,-4.7339,-4.6594,-4.5598,-4.5434,-4.4627,-4.3723,-4.3919,-4.3255,-4.2232,-4.1443,-4.0037,-3.8469,-3.7321,-3.6207,-3.5307,-3.5307,-3.46,-3.3922,-3.4424,-3.3796,-3.3262,-3.3871,-3.4331,-3.4778,-3.5077,-3.5278,-3.5134,-3.4266,-3.3068,-3.1955,-3.131,-3.1204,-3.0895,-3.0062,-3.0531,-3.0422,-2.9051,-2.8787,-2.8122,-2.6625,-2.5896,-2.5059,-2.3979,-2.3954,-2.3703,-2.3045,-2.2096,-2.1543,-2.1493,-2.0439,-1.9861,-1.9811,-1.9811,-2.0087,-2.0717,-2.127,-2.1719,-4.7567,0.0,0.0,0.0,-5.6244,-5.9095,-6.2418,-6.2302,-6.2115,-6.4282,-6.4418,-6.4156,-6.4336,-6.4276,-6.4306,0.0,-6.4216,-6.3827,-6.3647,-6.3199,-6.251,-6.1463,-6.1104,-6.1493,-6.2929,-6.3079,-6.3079,-6.3079,-6.281,-6.266,-6.266,-6.2421,-6.2211,-6.2091,-6.2211,-6.2032,-6.1523,-6.0954,-6.0475,-6.0086,-5.9039,-5.8321,-5.7902,-5.6974,-5.6137,-5.5329,-5.3832,-5.2965,-5.2486,-5.09,-4.9853,-4.9239,-4.8536,-4.7878,-4.7309,-4.7309,-4.6975,-4.6388,-4.5644,-4.4581,-4.3401,-4.2916,-4.1944,-4.0884,-4.0254,-3.9339,-3.8326,-3.7445,-3.6383,-3.5508,-3.5508,-3.4931,-3.4424,-3.4675,-3.4374,-3.4174,-3.4744,-3.5025,-3.5325,-3.5727,-3.5852,-3.5698,-3.509,-3.3711,-3.2458,-3.1876,-3.0979,-3.0646,-3.1341,-3.0809,-2.9986,-2.9038,-2.8612,-2.8047,-2.7052,-2.6449,-2.5762,-2.4983,-2.4657,-2.423,-2.3653,-2.2874,-2.2146,-2.1493,-2.1016,-2.0641,-2.0339,-2.0339,-2.0765,-2.1619,-2.187,-2.2272,-4.9382,0.0,0.0,-5.6327,-6.0676,-6.4497,-6.4547,-6.5599,-6.6782,-6.7686,-6.7517,-6.7119,-6.664,-6.5712,0.0,-6.5024,-6.4395,-6.3917,-6.3977,-6.2899,-6.1583,-6.0236,-5.9458,-5.9727,-6.1523,-6.2032,-6.2421,-6.278,-6.281,-6.2869,-6.3079,-6.3079,-6.2869,-6.2391,-6.2839,-6.254,-6.1403,-6.1194,-6.0775,-6.0057,-5.874,-5.7872,-5.7363,-5.6526,-5.5568,-5.4431,-5.3563,-5.2905,-5.2336,-5.0661,-4.9673,-4.9239,-4.8356,-4.7728,-4.7309,-4.7309,-4.7062,-4.6594,-4.5298,-4.4022,-4.2807,-4.175,-4.1148,-4.0643,-3.9741,-3.9399,-3.9104,-3.7795,-3.6734,-3.5909,-3.5805,-3.5353,-3.4931,-3.5127,-3.4951,-3.4939,-3.5817,-3.612,-3.6288,-3.6438,-3.6934,-3.7,-3.5803,-3.4799,-3.3892,-3.3295,-3.1637,-3.0789,-3.1709,-3.0646,-2.9628,-2.9164,-2.8674,-2.8097,-2.7544,-2.7178,-2.6575,-2.5661,-2.5234,-2.4732,-2.4029,-2.3271,-2.2493,-2.1719,-2.1568,-2.132,-2.0918,-2.0918,-2.1468,-2.2518,-2.2368,-2.2669,0.0,0.0,-5.5361,-5.9101,-6.3803,-6.8017,-7.0131,-7.1194,-7.1599,-7.0882,-6.9306,-6.7926,-6.7897,-6.634,-6.5024,-6.5024,-6.5533,-6.5473,-6.4186,-6.2899,-6.1583,-6.0236,-5.7842,-5.6825,0.0,-5.9428,-6.0715,-6.2032,-6.2121,-6.2391,-6.3049,-6.3079,-6.3079,-6.3049,-6.3079,-6.275,-6.2061,-6.1433,-6.0775,-6.0057,-5.874,-5.8112,-5.8052,-5.6765,-5.5807,-5.5089,-5.3743,-5.3174,-5.2965,-5.0407,-4.9329,-4.9179,-4.7848,-4.7309,-4.7309,-4.7309,-4.655,-4.5252,-4.4022,-4.2738,-4.1561,-4.1006,-4.1962,-4.3053,-4.1266,-4.1578,-4.1934,-3.8828,-3.7563,-3.701,-3.6531,-3.5931,-3.5608,-3.6229,-3.5504,-3.5167,-3.6857,-3.7644,-3.7841,-3.7274,-3.8852,-3.9392,-3.6649,-3.6561,-3.6626,-3.592,-3.3696,-3.1575,-3.0087,-2.9818,-2.9779,-2.9754,-2.9252,-2.8637,-2.8122,-2.8072,-2.7344,-2.5686,-2.5586,-2.5109,-2.4029,-2.2924,-2.2322,-2.2297,-2.1769,-2.1468,-2.1496,-2.1496,-2.202,-2.307,-2.2518,-2.2899,0.0,0.0,-5.9914,-6.3536,-6.7796,-7.1406,-7.2614,-7.3048,-7.2797,-7.1258,-6.8286,-6.5473,-6.3737,-6.1792,-6.0715,-6.1613,-6.269,-6.3558,-6.3947,-6.3288,-6.1583,-5.8471,-5.7304,0.0,0.0,0.0,0.0,-6.0625,-6.1194,-6.1732,-6.2391,-6.2839,-6.3079,-6.3079,-6.3079,-6.254,-6.1463,-6.1224,-6.0535,-5.9428,-5.8082,-5.7244,-5.6795,-5.5927,-5.5388,-5.5119,-5.3773,-5.3174,-5.3054,-5.1289,-5.0062,-4.9179,-4.7874,-4.6807,-4.6032,-4.6032,-4.5779,-4.5207,-4.3929,-4.3218,-4.2566,-4.0661,-4.0752,-4.1523,-4.1395,-4.0771,-4.0054,-3.9416,-3.8009,-3.6631,-3.6455,-3.6279,-3.6132,-3.6355,-3.6683,-3.7007,-3.7245,-3.8038,-3.8588,-3.8309,-3.8842,-3.8899,-3.7481,-3.6513,-3.5338,-3.3564,-3.2836,-3.1813,-3.0036,-2.9804,-2.9804,-2.9804,-2.9277,-2.8813,-2.8674,-2.7971,-2.7318,-2.6741,-2.6013,-2.5435,-2.5084,-2.4004,-2.3251,-2.2844,-2.2293,-2.202,-2.202,-2.202,-2.2623,-2.3703,-2.3095,-2.3246,-5.3565,-5.8386,-6.2976,-6.683,-7.0585,-7.3347,-7.3784,-7.3522,-7.2415,-6.9722,-6.5832,-6.2121,-5.9488,-5.6974,-5.5897,-5.7693,-5.871,-6.0057,-6.2301,-6.1463,-5.9907,-5.8022,-5.6974,0.0,0.0,0.0,0.0,-5.9937,-6.0954,-6.1762,-6.2421,-6.2839,-6.3079,-6.3079,-6.3079,-6.245,-6.1134,-6.1104,-6.0326,-5.874,-5.7633,-5.6765,-5.6188,-5.5478,-5.5179,-5.5119,-5.3773,-5.3174,-5.3054,-5.1259,-4.9773,-4.8483,-4.7172,-4.5877,-4.472,-4.472,-4.472,-4.4581,-4.3787,-4.3504,-4.3047,-4.031,-4.0106,-4.0939,-4.0961,-4.0303,-3.9585,-3.9532,-3.814,-3.6656,-3.6455,-3.6405,-3.6405,-3.6405,-3.6989,-3.7619,-3.8122,-3.8803,-3.9382,-3.947,-3.9634,-3.9401,-3.8351,-3.6912,-3.5224,-3.3149,-3.2577,-3.1887,-3.0482,-3.0011,-2.9804,-2.9804,-2.9453,-2.9113,-2.8913,-2.8473,-2.7921,-2.7318,-2.659,-2.6013,-2.5611,-2.4757,-2.4104,-2.3722,-2.317,-2.2924,-2.2924,-2.2698,-2.317,-2.428,-2.3672,-2.3722,-5.6324,-6.0543,-6.4645,-6.9015,-7.1936,-7.3791,-7.3791,-7.2595,-7.038,-6.646,-6.1852,-5.7752,0.0,0.0,-5.0883,-5.3623,-5.4281,-5.5807,-5.9697,-5.8112,-5.7214,0.0,0.0,0.0,0.0,0.0,0.0,-5.9997,0.0,-6.2361,-6.2989,-6.3079,-6.3109,-6.3079,-6.3079,-6.245,-6.1164,-6.1104,-6.0086,-5.8171,-5.7453,-5.6795,-5.6248,-5.5508,-5.5179,-5.5059,-5.3743,-5.3174,-5.2838,-5.0345,-4.8525,-4.7268,-4.5873,-4.4545,-4.3504,-4.3456,-4.3409,-4.3409,-4.3409,-4.3409,-4.2944,-3.9925,-4.0104,-4.1308,-4.0175,-4.025,-4.0408,-3.9248,-3.8067,-3.701,-3.6556,-3.6405,-3.6405,-3.6405,-3.6452,-3.7129,-3.9316,-3.9885,-4.015,-4.0699,-4.1048,-4.0745,-3.9045,-3.7661,-3.6191,-3.4574,-3.3019,-3.1853,-3.1246,-3.0381,-2.9804,-2.9804,-2.9804,-2.9578,-2.8988,-2.9453,-2.9051,-2.7419,-2.7329,-2.6791,-2.5686,-2.5134,-2.4825,-2.4825,-2.433,-2.4029,-2.4004,-2.3421,-2.3722,-2.4775,-2.4255,-2.4305,-5.9072,-6.3538,-6.7606,-7.0624,-7.1906,-7.2385,-7.2385,-6.9093,-6.5024,-6.1583,-5.5628,-5.0242,0.0,0.0,0.0,-5.1468,-5.5299,0.0,-6.1882,-6.2121,0.0,0.0,0.0,-5.859,-5.7932,-5.874,0.0,0.0,-6.1613,-6.2181,-6.2331,-6.3258,-6.3558,-6.3079,-6.3079,-6.269,-6.1852,-6.0835,-5.9847,-5.883,-5.7663,-5.7004,-5.6825,-5.5688,-5.491,-5.4401,-5.3563,-5.2339,-5.0863,-4.9698,-4.8441,-4.7042,-4.4771,-4.377,-4.3409,-4.2398,-4.2084,-4.2084,-4.2084,-4.2084,-4.1811,-4.0058,-3.9828,-4.0236,-4.0455,-3.9722,-3.8777,-3.9002,-3.7852,-3.6581,-3.6455,-3.6405,-3.6405,-3.6405,-3.7057,-3.7861,-3.8424,-3.9944,-4.1053,-4.074,-4.001,-3.917,-3.8227,-3.7109,-3.567,-3.3653,-3.2998,-3.2393,-3.1336,-3.0381,-2.9804,-2.9804,-2.9804,-2.9729,-2.9578,-2.9302,-2.88,-2.7946,-2.7519,-2.7002,-2.6298,-2.5711,-2.541,-2.541,-2.4883,-2.4406,-2.4004,-2.3853,-2.413,-2.4775,-2.4255,-2.4506,-6.2172,-6.589,-6.8974,-7.1308,-7.1667,-7.0859,-6.8555,-6.4814,-6.0266,-5.464,-4.9344,0.0,0.0,0.0,0.0,0.0,0.0,0.0,-6.0715,-6.1373,-6.1403,0.0,-6.1134,0.0,-5.9937,-6.0805,-6.1553,0.0,-6.2331,-6.254,-6.254,-6.3199,-6.3438,-6.3079,-6.3079,-6.263,-6.1672,-6.0625,-5.9757,-5.9099,-5.7723,-5.7094,-5.7034,-5.5478,-5.4551,-5.4162,0.0,-5.2129,-5.0955,-4.9377,-4.7863,-4.62,-4.3879,-4.2483,-4.1739,-4.1019,-4.0794,-4.0794,-4.0794,-4.0794,-4.0642,-3.9929,-3.9697,-3.9778,-4.0252,-3.9249,-3.8059,-3.8568,-3.7568,-3.6405,-3.6405,-3.6405,-3.6405,-3.6405,-3.6896,-3.7494,-3.7971,-3.9552,-4.0956,-4.1336,-4.0832,-3.977,-3.7887,-3.7023,-3.5894,-3.3648,-3.2723,-3.211,-3.163,-3.0535,-2.9804,-2.9804,-2.9804,-2.9804,-2.9804,-2.9503,-2.9076,-2.8499,-2.8172,-2.7645,-2.6876,-2.6549,-2.6214,-2.6021,-2.5435,-2.5008,-2.4707,-2.4481,-2.4632,-2.5159,-2.4833,-2.5034,-6.4991,-6.7537,-6.9423,-7.1188,-7.0859,-6.8824,-6.3827,-6.0086,-5.5388,-4.7339,0.0,0.0,-3.8302,0.0,-4.0666,-4.4885,0.0,-5.1917,-5.8441,-5.9039,-5.9877,-6.2839,-6.278,-6.245,-6.2361,-6.2869,-6.3169,-6.3079,-6.3079,-6.3079,-6.3079,-6.3169,-6.3169,-6.3079,-6.2989,-6.2361,-6.1134,-6.0446,-5.9757,-5.9099,-5.7723,-5.7094,-5.7034,-5.4976,-5.3952,-5.3853,0.0,0.0,-5.1218,-4.9185,-4.7129,-4.5106,-4.3235,-4.1491,-4.003,-3.9774,-3.9697,-3.9697,-3.9697,-3.9697,-3.9697,-3.9697,-3.9697,-3.9701,-3.9673,-3.8923,-3.8009,-3.8002,-3.7201,-3.6405,-3.6405,-3.6405,-3.6405,-3.6405,-3.6405,-3.6662,-3.7678,-3.8827,-4.0107,-4.1645,-4.2069,-4.1087,-3.7749,-3.7191,-3.6414,-3.4045,-3.2418,-3.161,-3.1902,-3.0727,-2.988,-2.9804,-2.9854,-2.988,-2.9804,-2.9804,-2.9553,-2.8938,-2.8888,-2.8473,-2.7444,-2.7318,-2.7102,-2.6625,-2.6047,-2.5661,-2.5586,-2.5134,-2.5159,-2.5586,-2.5586,-2.5636,-6.5892,-6.7897,-6.9213,-7.0081,-6.8166,-6.5084,-6.1433,-5.5179,0.0,0.0,0.0,-3.6387,-3.534,-3.7015,0.0,-4.6052,0.0,0.0,0.0,0.0,-6.263,0.0,0.0,0.0,0.0,0.0,0.0,0.0,0.0,0.0,-6.3079,-6.3558,-6.3617,-6.3079,-6.254,-6.1912,-6.1134,-6.0446,-5.9757,-5.9099,-5.7723,-5.7094,-5.6982,-5.4433,-5.2897,-5.2375,0.0,0.0,-4.7107,-4.8481,-4.7203,-4.4279,-4.3489,-4.2729,-4.1771,-4.0235,-3.9697,-3.9697,-3.9697,-3.9697,-3.9697,-3.9697,-3.9697,-3.9623,-3.9221,-3.8565,-3.7913,-3.7501,-3.6874,-3.6405,-3.6405,-3.6405,-3.6405,-3.6405,-3.6405,-3.6452,-3.6662,-3.7586,-3.8639,-3.9354,-4.0269,-4.0072,-3.7575,-3.7151,-3.6414,-3.4139,-3.2793,-3.1905,-3.1554,-3.0903,-3.0306,-2.9854,-3.0206,-3.0281,-2.9829,-2.9804,-2.9553,-2.8938,-2.8888,-2.8612,-2.7996,-2.7519,-2.7278,-2.7178,-2.6625,-2.6097,-2.5586,-2.5511,-2.5511,-2.5586,-2.5586,-2.5862,-6.661,-6.7986,-6.8615,-6.9303,-6.6191,-6.1672,-5.6615,0.0,0.0,0.0,0.0,-3.4262,-3.3574,0.0,0.0,0.0,0.0,0.0,0.0,0.0,0.0,0.0,0.0,0.0,0.0,0.0,0.0,0.0,0.0,0.0,-6.3079,-6.3348,-6.3378,-6.3079,-6.278,-6.2121,-6.1134,-6.0775,-6.0116,-5.9099,-5.8112,-5.7453,-5.6982,-5.4258,-5.2617,-5.1903,-5.0153,0.0,-4.692,-4.698,-4.5888,-4.4046,-4.3123,-4.2367,-4.1722,-4.0509,-4.0124,-4.0074,-3.9798,-3.9697,-3.9697,-3.9697,-3.9697,-3.9597,-3.9044,-3.8467,-3.7889,-3.7337,-3.6784,-3.6405,-3.6405,-3.6405,-3.6405,-3.6405,-3.6405,-3.6546,-3.715,-3.7723,-3.8389,-3.9239,-3.9871,-3.9592,-3.754,-3.7007,-3.6159,-3.4124,-3.2904,-3.2114,-3.1863,-3.1361,-3.0809,-3.0281,-3.0206,-3.008,-2.9804,-2.9804,-2.9679,-2.9402,-2.9377,-2.9126,-2.8549,-2.8273,-2.7871,-2.7329,-2.7052,-2.665,-2.6072,-2.6072,-2.6072,-2.6072,-2.6072,-2.6223,-6.6311,-6.7328,-6.7597,-6.7867,-6.4066,-5.859,-5.2247,-4.6501,0.0,0.0,-3.3275,-3.2946,-3.2557,0.0,0.0,0.0,0.0,0.0,0.0,0.0,0.0,0.0,0.0,0.0,0.0,0.0,0.0,0.0,0.0,0.0,0.0,-6.3079,-6.3079,-6.3079,-6.2929,-6.2301,-6.1134,-6.0954,-6.0296,-5.9099,-5.8291,-5.7444,-5.6532,-5.3752,-5.2006,-5.0929,-4.8616,0.0,0.0,-4.5902,-4.4837,-4.3857,-4.2974,-4.2153,-4.143,-4.0752,-4.0526,-4.0425,-3.9898,-3.9697,-3.9697,-3.9697,-3.9697,-3.9597,-3.9044,-3.8542,-3.804,-3.7387,-3.6933,-3.6556,-3.643,-3.6405,-3.643,-3.6556,-3.648,-3.6666,-3.7696,-3.7802,-3.8043,-3.8961,-3.936,-3.8949,-3.7235,-3.6779,-3.6035,-3.4174,-3.3144,-3.2541,-3.2416,-3.1913,-3.1411,-3.1009,-3.0357,-2.993,-2.9804,-2.9804,-2.9804,-2.9804,-2.9804,-2.9578,-2.9088,-2.8963,-2.8524,-2.7645,-2.7519,-2.7228,-2.6675,-2.6675,-2.66,-2.6499,-2.6499,-2.6499,-6.3797,-6.5263,-6.5922,-6.4755,-6.0924,-5.6047,-5.0707,0.0,0.0,0.0,-3.2527,-3.1839,-3.2378,-3.2766,0.0,0.0,0.0,0.0,0.0,0.0,0.0,0.0,0.0,0.0,0.0,0.0,0.0,0.0,0.0,0.0,0.0,-6.3079,-6.3079,-6.3079,-6.251,-6.1852,-6.1134,-6.0505,-5.9817,-5.9099,-5.7812,-5.6492,-5.5025,-5.2207,-4.9884,-4.8086,0.0,0.0,0.0,-4.6167,-4.5422,-4.3169,-4.3776,-4.3248,-4.2011,-4.0902,-4.0526,-4.0425,-3.9898,-3.9697,-3.9697,-3.9697,-3.9697,-3.9597,-3.9044,-3.8894,-3.8567,-3.7487,-3.7136,-3.6985,-3.6531,-3.6405,-3.6531,-3.6985,-3.6782,-3.6556,-3.7129,-3.69,-3.6593,-3.6709,-3.754,-3.7723,-3.5973,-3.6522,-3.6462,-3.4224,-3.3822,-3.3571,-3.3068,-3.2491,-3.2114,-3.2064,-3.116,-3.0331,-2.9829,-2.9804,-2.9804,-2.9804,-2.9804,-2.9779,-2.9704,-2.9202,-2.8838,-2.8737,-2.8273,-2.777,-2.7253,-2.7253,-2.6977,-2.6499,-2.6499,-2.6499,-6.1882,-6.4096,-6.5173,-6.4246,-5.9338,-5.3683,-4.9613,0.0,0.0,-3.4053,-3.2407,-3.16,-3.1839,-3.2228,-3.3245,0.0,0.0,0.0,0.0,0.0,0.0,0.0,0.0,0.0,0.0,0.0,0.0,0.0,0.0,0.0,0.0,-6.3079,-6.3079,-6.3079,-6.245,-6.1792,-6.1134,-6.0446,-5.9548,-5.8501,-5.7962,-5.7011,-5.5577,-5.2625,-5.0655,-4.9384,0.0,0.0,0.0,-4.4542,-4.4016,-4.3017,-4.3347,-4.3161,-4.2509,-4.1404,-4.0949,-4.0824,-3.9998,-3.9697,-3.9697,-3.9697,-3.9697,-3.9647,-3.9421,-3.9145,-3.8818,-3.8366,-3.7939,-3.7563,-3.701,-3.6656,-3.6455,-3.6681,-3.6556,-3.6455,-3.6681,-3.6556,-3.6405,-3.6405,-3.6756,-3.6866,-3.615,-3.6146,-3.58,-3.4544,-3.4123,-3.3696,-3.3144,-3.2566,-3.2215,-3.2215,-3.126,-3.0532,-3.0306,-2.998,-2.9804,-2.9804,-2.9804,-2.9804,-2.9804,-2.9578,-2.9277,-2.8888,-2.8687,-2.8323,-2.777,-2.777,-2.7494,-2.6977,-2.6977,-2.6977,-5.8411,-6.1194,-6.278,-6.1912,-5.6825,-5.1109,0.0,0.0,0.0,-3.3574,-3.2018,-3.1032,-3.1421,-3.172,-3.2198,0.0,0.0,0.0,0.0,0.0,0.0,0.0,0.0,0.0,0.0,0.0,0.0,0.0,0.0,0.0,0.0,-6.2899,-6.278,-6.278,-6.2331,-6.1672,-6.0805,-5.97,-5.8589,-5.7409,-5.7024,-5.6131,-5.4797,-5.2459,-5.0711,0.0,0.0,0.0,0.0,-4.3288,-4.2942,-4.2791,-4.2791,-4.2635,-4.2384,-4.1455,-4.105,-4.0899,-4.0023,-3.9697,-3.9697,-3.9697,-3.9697,-3.9697,-3.9697,-3.9421,-3.9095,-3.8718,-3.8191,-3.7713,-3.7487,-3.6933,-3.648,-3.6832,-3.6656,-3.6455,-3.6606,-3.6531,-3.6405,-3.6405,-3.6405,-3.6405,-3.6405,-3.5906,-3.5307,-3.4756,-3.4248,-3.3696,-3.3144,-3.2717,-3.2466,-3.2466,-3.1637,-3.1009,-3.0859,-3.0357,-3.003,-3.003,-2.988,-2.9804,-2.9804,-2.9804,-2.9603,-2.9176,-2.9176,-2.8863,-2.8348,-2.8348,-2.8072,-2.7519,-2.7519,-2.7519,-5.2725,-5.5688,-5.7872,-5.6585,-5.2803,-4.8267,0.0,0.0,0.0,-3.2796,-3.0971,-2.9983,-3.1271,-3.0943,-3.0971,-3.2317,0.0,0.0,0.0,0.0,0.0,0.0,0.0,0.0,0.0,0.0,0.0,0.0,0.0,0.0,0.0,0.0,-6.2121,-6.2121,-6.2091,-6.1463,-6.0116,-5.8015,-5.6588,-5.5897,-5.4598,-5.315,-5.1737,-5.1045,0.0,0.0,0.0,0.0,0.0,-4.2986,-4.2715,-4.2213,-4.2213,-4.1831,-4.1225,-4.0727,-4.0526,-4.045,-3.9898,-3.9697,-3.9697,-3.9697,-3.9697,-3.9697,-3.9697,-3.9697,-3.9446,-3.8341,-3.7613,-3.7312,-3.7864,-3.7186,-3.6681,-3.7739,-3.7161,-3.6556,-3.7061,-3.6782,-3.6405,-3.6405,-3.6405,-3.6405,-3.6405,-3.5906,-3.5307,-3.4756,-3.4248,-3.3696,-3.3144,-3.3111,-3.3111,-3.3111,-3.2541,-3.1964,-3.1436,-3.0909,-3.0608,-3.0608,-3.0105,-2.9804,-2.9804,-2.9804,-2.9804,-2.9779,-2.9779,-2.9503,-2.8888,-2.8888,-2.8612,-2.8097,-2.8097,-2.8097,-4.6591,-4.9224,-5.1079,-4.9763,-4.698,-4.3908,-4.1265,0.0,-3.3425,-3.2079,-3.0642,-2.9741,-3.0133,-3.0013,-3.0761,-3.3425,-3.4234,0.0,0.0,0.0,0.0,0.0,0.0,0.0,0.0,0.0,0.0,0.0,0.0,0.0,0.0,0.0,-6.1605,-6.0472,-6.0657,-5.9315,-5.6306,-5.7231,-5.6657,-5.4515,-5.516,-5.4723,-5.3325,-5.1164,0.0,0.0,0.0,0.0,0.0,-4.2791,-4.259,-4.2635,-4.1882,-4.1957,-4.2308,-4.1003,-4.0978,-4.1455,-4.0149,-3.9948,-4.0199,-3.9823,-3.9697,-3.9697,-3.9697,-3.9697,-3.9622,-3.927,-3.8768,-3.8366,-3.8542,-3.7764,-3.701,-3.7362,-3.7186,-3.686,-3.6707,-3.6832,-3.6857,-3.648,-3.6405,-3.6405,-3.6405,-3.6254,-3.578,-3.4851,-3.4575,-3.4123,-3.3194,-3.3111,-3.3111,-3.3111,-3.2918,-3.2566,-3.2014,-3.1461,-3.0984,-3.0633,-3.0457,-3.0181,-2.9804,-2.9804,-2.9804,-2.9804,-2.9804,-2.9704,-2.9528,-2.9528,-2.9227,-2.8674,-2.8674,-2.8473,0.0,-4.3838,-4.5723,-4.4407,-4.2282,0.0,0.0,0.0,-3.1779,-3.0971,-2.9744,-2.8992,-2.9502,-2.9412,-3.0043,-3.2557,0.0,0.0,0.0,0.0,0.0,0.0,0.0,0.0,0.0,0.0,0.0,0.0,0.0,0.0,0.0,0.0,-6.022,-5.8638,-5.8773,-5.7783,-5.5481,-5.5632,-5.4956,-5.3564,-5.4316,-5.3774,-5.2129,0.0,0.0,0.0,0.0,0.0,0.0,-4.259,-4.2233,-4.2283,-4.1379,-4.1329,-4.1605,-4.0576,-4.0626,-4.1131,-4.0049,-3.9923,-4.0149,-3.9798,-3.9697,-3.9697,-3.9697,-3.9697,-3.9697,-3.9697,-3.9295,-3.8969,-3.912,-3.8191,-3.7236,-3.7437,-3.7186,-3.6832,-3.648,-3.6681,-3.6832,-3.648,-3.6405,-3.6405,-3.6405,-3.6053,-3.5504,-3.4826,-3.4374,-3.3847,-3.3212,-3.3111,-3.3111,-3.3111,-3.3111,-3.2943,-3.2566,-3.2014,-3.1562,-3.1235,-3.0834,-3.0457,-3.0105,-2.9905,-2.9804,-2.9804,-2.9804,-2.9804,-2.9804,-2.9804,-2.9603,-2.9252,-2.8988,-2.8813,0.0,0.0,0.0,0.0,0.0,0.0,0.0,0.0,0.0,-2.9562,-2.8513,-2.8004,-2.9352,-2.9056,-2.9116,0.0,0.0,0.0,0.0,0.0,0.0,0.0,0.0,0.0,0.0,0.0,0.0,0.0,0.0,0.0,0.0,0.0,0.0,-5.6646,-5.6504,-5.654,-5.6631,-5.3433,-5.2097,-5.2713,-5.2086,-5.0748,-4.8834,0.0,0.0,0.0,0.0,0.0,0.0,-4.2338,-4.1756,-4.1225,-4.0701,-4.0199,-3.9798,-3.9722,-3.9747,-3.9798,-3.9722,-3.9722,-3.9747,-3.98,-3.98,-3.9749,-3.98,-3.98,-3.9697,-3.9697,-3.932,-3.9095,-3.9572,-3.8467,-3.7362,-3.7889,-3.7186,-3.6455,-3.6405,-3.643,-3.6455,-3.6405,-3.6405,-3.6405,-3.6405,-3.5504,-3.4826,-3.4731,-3.3897,-3.3219,-3.3187,-3.3187,-3.3162,-3.3093,-3.3111,-3.3111,-3.3111,-3.2591,-3.224,-3.2164,-3.121,-3.0633,-3.0557,-3.0055,-2.9804,-2.9804,-2.9804,-2.9804,-2.9804,-2.9804,-2.9804,-2.9779,-2.9252,-2.9277,-3.0552,0.0,-3.3873,-3.3036,0.0,0.0,0.0,0.0,-2.9472,-2.8936,0.0,0.0,-2.9352,0.0,0.0,0.0,0.0,0.0,0.0,0.0,0.0,0.0,0.0,0.0,0.0,0.0,0.0,0.0,0.0,0.0,0.0,0.0,0.0,-5.559,-5.3449,-5.2238,-5.2123,-5.2525,-5.1793,-4.9867,-4.9808,-4.9259,-4.8252,0.0,0.0,0.0,0.0,0.0,-4.2338,-4.1304,-4.1078,-4.12,-4.0275,-4.0325,-4.0799,-3.9998,-4.0224,-4.0827,-3.9998,-3.9973,-4.0406,-4.0974,-4.0516,-3.9878,-4.0844,-4.0465,-3.9697,-3.9697,-3.9597,-3.9521,-3.9672,-3.8768,-3.7839,-3.7965,-3.7487,-3.6933,-3.6505,-3.6732,-3.6908,-3.648,-3.6405,-3.6405,-3.6405,-3.6204,-3.583,-3.5357,-3.5082,-3.465,-3.3822,-3.3696,-3.3545,-3.3162,-3.3111,-3.3111,-3.3111,-3.2943,-3.2516,-3.1637,-3.1336,-3.0834,-3.003,-2.9854,-2.9804,-2.9804,-2.9804,-2.9804,-2.9804,-2.9804,-2.9804,-2.9804,-2.9654,-2.9654,-2.9056,-3.0253,-3.1331,-3.0672,-3.0492,-3.0402,-3.0073,0.0,0.0,0.0,0.0,0.0,0.0,0.0,0.0,0.0,0.0,0.0,0.0,0.0,0.0,0.0,0.0,0.0,0.0,0.0,0.0,0.0,0.0,0.0,0.0,0.0,0.0,0.0,-5.0823,-5.0067,-5.0829,-5.0453,-4.9657,-4.8528,-4.8332,-4.7576,-4.6294,-4.5262,0.0,0.0,0.0,0.0,-4.1706,-4.0877,-4.0701,-4.0824,-4.0023,-4.0049,-4.0501,-3.9923,-4.0074,-4.0501,-3.9898,-3.9898,-4.0178,-4.0593,-4.0262,-3.9826,-4.0516,-4.0262,-3.9697,-3.9697,-3.9697,-3.9697,-3.9697,-3.9044,-3.8341,-3.8065,-3.7588,-3.7036,-3.6531,-3.6656,-3.6757,-3.6455,-3.6405,-3.6405,-3.6405,-3.6157,-3.5881,-3.5533,-3.5282,-3.4806,-3.3997,-3.3897,-3.3696,-3.3187,-3.3111,-3.3111,-3.3111,-3.3111,-3.2692,-3.1813,-3.1537,-3.1135,-3.0557,-3.0055,-2.9804,-2.9804,-2.9804,-2.9804,-2.9804,-2.9804,-2.9804,-2.9804,-2.9804,-2.9804,-2.9292,-3.0462,-3.1331,-3.0552,-3.0432,-3.0492,-3.0372,0.0,0.0,0.0,0.0,0.0,0.0,0.0,0.0,0.0,0.0,0.0,0.0,0.0,0.0,0.0,0.0,0.0,0.0,0.0,0.0,0.0,0.0,0.0,0.0,0.0,0.0,0.0,-4.839,-4.8419,-4.9921,-4.7676,-4.6786,-4.7383,-4.6682,-4.5466,-4.373,-4.331,0.0,0.0,0.0,0.0,-4.1125,-4.0626,-4.04,-4.035,-3.9873,-3.9697,-3.9697,-3.9697,-3.9697,-3.9697,-3.9697,-3.9697,-3.9749,-3.9929,-3.9826,-3.9749,-3.9929,-3.9826,-3.9697,-3.9697,-3.9647,-3.9572,-3.9572,-3.9145,-3.8617,-3.8115,-3.7588,-3.7109,-3.6631,-3.6455,-3.6405,-3.6405,-3.6405,-3.6405,-3.6405,-3.5981,-3.5633,-3.5633,-3.5278,-3.4751,-3.4098,-3.4022,-3.3796,-3.3187,-3.3111,-3.3111,-3.3111,-3.2993,-3.2692,-3.2114,-3.1738,-3.1436,-3.1286,-3.0331,-2.9804,-2.9804,-2.9804,-2.9804,-2.9804,-2.9804,-2.9804,-2.9804,-2.9804,-2.9804,-2.8577,-3.0076,-3.1212,-3.0013,-3.0103,-3.0372,-2.9834,0.0,0.0,0.0,0.0,0.0,0.0,0.0,0.0,0.0,0.0,0.0,0.0,0.0,0.0,0.0,0.0,0.0,0.0,0.0,0.0,0.0,0.0,0.0,0.0,0.0,0.0,0.0,0.0,-4.4858,-4.4611,-4.4704,-4.4546,-4.4117,-4.2837,-4.2042,-4.1752,-4.1676,-4.149,0.0,0.0,-4.0651,-4.0601,-4.0049,-3.9823,-3.9798,-3.9722,-3.9697,-3.9697,-3.9697,-3.9697,-3.9697,-3.9697,-3.9697,-3.9878,-4.0995,-4.0592,-3.9878,-4.0995,-4.0541,-3.9697,-3.9697,-3.9346,-3.9045,-3.9045,-3.8567,-3.8115,-3.8015,-3.7588,-3.7161,-3.7086,-3.6732,-3.6405,-3.6405,-3.6405,-3.6405,-3.6405,-3.6329,-3.6279,-3.6279,-3.6204,-3.573,-3.4726,-3.46,-3.4198,-3.3237,-3.3111,-3.3111,-3.3111,-3.2616,-3.2114,-3.1562,-3.1863,-3.1687,-3.0758,-3.0131,-2.9804,-2.9804,-2.9804,-2.9804,-2.9804,-2.9804,-2.9804,-2.9804,-2.9804,-2.9804,-2.744,-2.8697,-2.9804,-2.9205,-3.0342,-3.142,-3.0791,0.0,0.0,0.0,0.0,0.0,0.0,0.0,0.0,0.0,0.0,0.0,0.0,0.0,0.0,0.0,0.0,0.0,0.0,0.0,0.0,0.0,0.0,0.0,0.0,0.0,0.0,0.0,0.0,0.0,-4.1827,-4.1827,-4.1982,-4.2237,-4.1322,-4.0902,-4.0824,-4.0576,-4.045,-4.0425,0.0,-4.0074,-4.0049,-3.9798,-3.9697,-3.9697,-3.9697,-3.9697,-3.9697,-3.9697,-3.9697,-3.9697,-3.9697,-3.9697,-3.98,-4.0364,-4.016,-3.98,-4.0415,-4.0185,-3.9622,-3.932,-3.927,-3.932,-3.932,-3.8894,-3.8391,-3.809,-3.7588,-3.7111,-3.6857,-3.6581,-3.6405,-3.6405,-3.6405,-3.6405,-3.6405,-3.6405,-3.6405,-3.6405,-3.6405,-3.6081,-3.5232,-3.4856,-3.4424,-3.3596,-3.3244,-3.3111,-3.3111,-3.2842,-3.2315,-3.1436,-3.1361,-3.1135,-3.0633,-3.0357,-3.0105,-2.9804,-2.9804,-2.9804,-2.9804,-2.9804,-2.9804,-2.9804,-2.9804,-2.9804,-2.6806,-2.756,-2.8368,-2.8368,0.0,-3.2019,-3.1959,0.0,0.0,0.0,0.0,0.0,0.0,0.0,0.0,0.0,0.0,0.0,0.0,0.0,0.0,0.0,0.0,0.0,0.0,0.0,0.0,0.0,0.0,0.0,0.0,0.0,0.0,0.0,0.0,0.0,-4.0325,-3.9898,-4.0124,-4.0899,-4.0526,-4.0325,-4.03,-3.9898,-3.9697,-3.9697,-3.9697,-3.9697,-3.9697,-3.9697,-3.9697,-3.9697,-3.9697,-3.9697,-3.9697,-3.9697,-3.9697,-3.9697,-3.9697,-3.9697,-3.9697,-3.9697,-3.9697,-3.9697,-3.9697,-3.9597,-3.9446,-3.9145,-3.917,-3.9295,-3.9295,-3.8994,-3.8567,-3.8115,-3.7588,-3.7061,-3.6707,-3.6505,-3.6405,-3.6405,-3.6405,-3.6405,-3.6405,-3.6405,-3.6405,-3.6405,-3.6405,-3.6132,-3.5382,-3.4931,-3.4449,-3.3771,-3.3345,-3.3018,-3.2893,-3.2867,-3.2516,-3.1637,-3.121,-3.0934,-3.0809,-3.0683,-3.0357,-2.9804,-2.9804,-2.9804,-2.9804,-2.9804,-2.9804,-2.9804,-2.9804,-2.9804,-2.7375,-2.7585,-2.7675,-2.7675,-2.9146,0.0,-3.2946,-3.3275,0.0,-3.4951,0.0,0.0,0.0,0.0,0.0,0.0,0.0,0.0,0.0,0.0,0.0,0.0,0.0,0.0,0.0,0.0,0.0,0.0,0.0,0.0,0.0,0.0,0.0,0.0,0.0,0.0,-3.9747,-3.9722,-3.9747,-3.9798,-3.9772,-3.9747,-3.9747,-3.9722,-3.9697,-3.9697,-3.9697,-3.9697,-3.9697,-3.9697,-3.9697,-3.9697,-3.9697,-3.9697,-3.9697,-3.9697,-3.9697,-3.9697,-3.9697,-3.9697,-3.9697,-3.9697,-3.9697,-3.9697,-3.9697,-3.9346,-3.9019,-3.9496,-3.8919,-3.8115,-3.8115,-3.809,-3.8065,-3.8015,-3.7588,-3.7186,-3.7136,-3.6782,-3.6405,-3.6405,-3.6405,-3.6405,-3.6405,-3.6405,-3.6405,-3.6405,-3.6405,-3.5981,-3.4926,-3.4705,-3.4299,-3.3244,-3.3093,-3.2867,-3.2315,-3.2265,-3.224,-3.2164,-3.2114,-3.1863,-3.1361,-3.0859,-3.0357,-2.9804,-2.9804,-2.9804,-2.9804,-2.9804,-2.9804,-2.9804,-2.9804,-2.9804,-2.6273,-2.6533,-2.6864,-2.7458,-2.8919,0.0,0.0,-3.3844,-3.522,-3.6956,-3.6957,0.0,0.0,0.0,0.0,0.0,0.0,0.0,0.0,0.0,0.0,0.0,0.0,0.0,0.0,0.0,0.0,0.0,0.0,0.0,0.0,0.0,0.0,0.0,0.0,0.0,0.0,-3.9346,-3.9346,-3.9697,-3.9697,-3.9697,-3.9697,-3.9697,-3.9697,-3.9697,-3.9697,-3.9697,-3.9697,-3.9697,-3.9697,-3.9697,-3.9697,-3.9697,-3.9697,-3.9697,-3.9697,-3.9697,-3.9697,-3.9697,-3.9697,-3.9697,-3.9697,-3.9622,-3.927,-3.9044,-3.8768,-3.8266,-3.8065,-3.809,-3.8442,-3.8015,-3.7487,-3.7487,-3.7086,-3.6732,-3.6732,-3.6556,-3.6405,-3.6405,-3.6405,-3.6405,-3.6405,-3.6405,-3.6405,-3.6405,-3.6081,-3.5658,-3.5232,-3.4625,-3.4048,-3.3646,-3.3294,-3.2993,-3.2767,-3.2742,-3.2742,-3.2742,-3.2089,-3.1612,-3.1411,-3.0884,-3.0357,-2.9804,-2.9804,-2.9804,-2.9804,-2.9804,-2.9804,-2.9804,-2.9804,-2.9804,-2.5029,-2.492,-2.504,-2.6087,0.0,0.0,-3.2483,-3.4499,-3.6379,-3.8332,0.0,0.0,0.0,0.0,0.0,0.0,0.0,0.0,0.0,0.0,0.0,0.0,0.0,0.0,0.0,0.0,0.0,0.0,0.0,0.0,0.0,0.0,0.0,0.0,0.0,0.0,0.0,-3.8793,-3.8793,-3.917,-3.917,-3.9346,-3.9697,-3.9697,-3.9697,-3.9697,-3.9697,-3.9697,-3.9697,-3.9697,-3.9697,-3.9697,-3.9697,-3.9697,-3.9697,-3.9697,-3.9697,-3.9697,-3.9697,-3.9697,-3.9672,-3.9496,-3.9421,-3.932,-3.8768,-3.8467,-3.8265,-3.7613,-3.7462,-3.7613,-3.8191,-3.7764,-3.7236,-3.7412,-3.6885,-3.6405,-3.6405,-3.6405,-3.6405,-3.6405,-3.6405,-3.6405,-3.6405,-3.6405,-3.6355,-3.6132,-3.578,-3.5382,-3.5031,-3.4374,-3.3847,-3.3671,-3.3294,-3.3111,-3.3111,-3.3111,-3.3111,-3.3111,-3.234,-3.1838,-3.1662,-3.1135,-3.0608,-3.0055,-2.988,-2.9804,-2.9804,-2.9804,-2.9804,-2.9804,-2.9804,-2.9804,-2.3815,-2.2781,-2.2042,0.0,0.0,0.0,-3.3221,-3.5375,-3.7082,0.0,0.0,0.0,0.0,0.0,0.0,0.0,0.0,0.0,0.0,0.0,0.0,0.0,0.0,0.0,0.0,0.0,0.0,0.0,0.0,0.0,0.0,0.0,0.0,0.0,0.0,0.0,0.0,-3.799,-3.799,-3.8015,-3.8015,-3.8592,-3.9672,-3.9672,-3.9672,-3.9672,-3.9672,-3.9672,-3.9672,-3.9697,-3.9697,-3.9697,-3.9697,-3.9697,-3.9697,-3.9697,-3.9697,-3.9672,-3.9672,-3.9672,-3.9597,-3.9044,-3.8919,-3.8768,-3.8165,-3.7613,-3.7287,-3.7839,-3.7211,-3.6531,-3.7036,-3.7186,-3.7312,-3.7864,-3.7161,-3.6405,-3.6405,-3.6405,-3.6405,-3.6405,-3.6405,-3.6405,-3.6405,-3.6405,-3.6182,-3.5583,-3.5483,-3.5082,-3.4022,-3.3897,-3.3696,-3.3187,-3.3111,-3.3111,-3.3111,-3.3111,-3.3111,-3.3111,-3.3111,-3.2817,-3.224,-3.1687,-3.116,-3.0633,-3.008,-2.9804,-2.9804,-2.9804,-2.9804,-2.9804,-2.9804,-2.9804,-2.4119,-2.3547,0.0,0.0,0.0,0.0,0.0,0.0,0.0,0.0,0.0,0.0,0.0,0.0,0.0,0.0,0.0,0.0,0.0,0.0,0.0,0.0,0.0,0.0,0.0,0.0,0.0,0.0,0.0,0.0,0.0,0.0,0.0,0.0,0.0,0.0,0.0,-3.7613,-3.7613,-3.8015,-3.8015,-3.8191,-3.8492,-3.8492,-3.8492,-3.8492,-3.8492,-3.8492,-3.8542,-3.8944,-3.912,-3.9145,-3.9546,-3.9446,-3.912,-3.912,-3.8868,-3.8492,-3.8492,-3.8492,-3.8492,-3.8316,-3.8266,-3.8165,-3.7588,-3.7312,-3.7136,-3.6958,-3.6656,-3.6531,-3.7036,-3.6933,-3.6707,-3.6857,-3.6656,-3.6405,-3.6405,-3.6405,-3.6405,-3.6405,-3.6405,-3.6405,-3.6405,-3.6405,-3.6182,-3.5583,-3.5182,-3.4575,-3.347,-3.3319,-3.3269,-3.3136,-3.3111,-3.3111,-3.3111,-3.3111,-3.3111,-3.3111,-3.3111,-3.2817,-3.224,-3.2064,-3.1537,-3.0633,-3.0457,-3.0181,-2.9804,-2.9804,-2.9804,-2.9804,-2.9804,-2.9804,-2.3084,0.0,0.0,0.0,0.0,0.0,0.0,0.0,0.0,0.0,0.0,0.0,0.0,0.0,0.0,0.0,0.0,0.0,0.0,0.0,0.0,0.0,0.0,0.0,0.0,0.0,0.0,0.0,0.0,0.0,0.0,0.0,0.0,0.0,0.0,0.0,-3.6709,-3.6383,-3.6383,-3.6709,-3.6709,-3.6709,-3.6734,-3.7613,-3.8015,-3.8015,-3.8015,-3.8015,-3.804,-3.8391,-3.8517,-3.8567,-3.8894,-3.8818,-3.8517,-3.8517,-3.8316,-3.8015,-3.8015,-3.8015,-3.7965,-3.7739,-3.7688,-3.7588,-3.7036,-3.6908,-3.6784,-3.6505,-3.6405,-3.648,-3.6832,-3.6656,-3.6455,-3.6681,-3.6556,-3.6405,-3.6405,-3.6405,-3.6405,-3.6405,-3.6405,-3.6405,-3.6405,-3.6182,-3.5855,-3.5257,-3.453,-3.3822,-3.3169,-3.3111,-3.3111,-3.3111,-3.3111,-3.3111,-3.3111,-3.3111,-3.3111,-3.3111,-3.3111,-3.2918,-3.2566,-3.234,-3.1813,-3.0934,-3.0708,-3.0357,-2.9804,-2.9804,-2.9804,-2.9804,-2.9804,-2.9804,0.0,0.0,0.0,0.0,0.0,0.0,0.0,0.0,0.0,0.0,0.0,0.0,0.0,0.0,0.0,0.0,0.0,0.0,0.0,0.0,0.0,0.0,0.0,0.0,0.0,0.0,0.0,0.0,0.0,0.0,0.0,0.0,0.0,0.0,0.0,0.0,-3.468,-3.468,-3.468,0.0,-3.4675,-3.4675,-3.4801,-3.6784,-3.7739,-3.7789,-3.7789,-3.7814,-3.7864,-3.7914,-3.7939,-3.7939,-3.799,-3.7965,-3.7939,-3.7939,-3.7889,-3.7864,-3.7864,-3.7864,-3.7764,-3.7287,-3.7111,-3.701,-3.6556,-3.6405,-3.6405,-3.6405,-3.6405,-3.6405,-3.6405,-3.6405,-3.6531,-3.6985,-3.6782,-3.6405,-3.6405,-3.6405,-3.6405,-3.6405,-3.6405,-3.6405,-3.6405,-3.5906,-3.5282,-3.4751,-3.3746,-3.3111,-3.3111,-3.3111,-3.3111,-3.3111,-3.3111,-3.3111,-3.3111,-3.3111,-3.3111,-3.3111,-3.3111,-3.3111,-3.3111,-3.2566,-3.2014,-3.1411,-3.0934,-3.0382,-2.9804,-2.9804,-2.9804,-2.9804,-2.9804,-2.9804,0.0,0.0,0.0,0.0,0.0,0.0,0.0,0.0,0.0,0.0,0.0,0.0,0.0,0.0,0.0,0.0,0.0,0.0,0.0,0.0,0.0,0.0,0.0,0.0,0.0,0.0,0.0,0.0,0.0,0.0,0.0,0.0,0.0,0.0,0.0,-3.4806,-3.468,-3.468,-3.468,0.0,-3.4274,-3.4299,-3.4751,-3.5203,-3.5633,-3.6034,-3.6034,-3.6307,-3.6807,-3.7186,-3.7362,-3.7412,-3.7839,-3.7739,-3.7362,-3.7362,-3.7086,-3.6757,-3.6757,-3.6757,-3.6757,-3.6631,-3.6581,-3.6556,-3.643,-3.6405,-3.6405,-3.6405,-3.6405,-3.6405,-3.6405,-3.6405,-3.643,-3.6556,-3.648,-3.6405,-3.6405,-3.6405,-3.6405,-3.6405,-3.6405,-3.6405,-3.6405,-3.5906,-3.5157,-3.4223,-3.3495,-3.3111,-3.3111,-3.3111,-3.3111,-3.3111,-3.3111,-3.3111,-3.3111,-3.3111,-3.3111,-3.3111,-3.3111,-3.3111,-3.3111,-3.3011,-3.2416,-3.1411,-3.1286,-3.0758,-2.9804,-2.9804,-2.9804,-2.9804,-2.9804,-2.9804,0.0,0.0,0.0,0.0,0.0,0.0,0.0,0.0,0.0,0.0,0.0,0.0,0.0,0.0,0.0,0.0,0.0,0.0,0.0,0.0,0.0,0.0,0.0,0.0,0.0,0.0,0.0,0.0,0.0,0.0,0.0,0.0,0.0,0.0,-3.352,-3.3395,-3.3119,-3.3119,-3.3119,-3.3119,-3.2842,-3.2842,-3.3169,-3.4223,-3.4831,-3.5107,-3.5107,-3.5303,-3.5629,-3.6157,-3.6408,-3.6458,-3.701,-3.7036,-3.6832,-3.6832,-3.6656,-3.6405,-3.6405,-3.6405,-3.6405,-3.6405,-3.6405,-3.6405,-3.6405,-3.6405,-3.6405,-3.6405,-3.6405,-3.6405,-3.6405,-3.6405,-3.6405,-3.6405,-3.6405,-3.6405,-3.6405,-3.6405,-3.6405,-3.6405,-3.6157,-3.6056,-3.6355,-3.568,-3.4731,-3.3671,-3.3269,-3.3111,-3.3111,-3.3111,-3.3111,-3.3111,-3.3111,-3.3111,-3.3111,-3.3111,-3.3111,-3.3111,-3.3111,-3.3111,-3.3111,-3.3111,-3.2667,-3.1813,-3.1512,-3.0984,-3.0181,-2.993,-2.9804,-2.9804,-3.0055,-3.0181,0.0,0.0,0.0,0.0,0.0,0.0,0.0,0.0,0.0,0.0,0.0,0.0,0.0,0.0,0.0,0.0,0.0,0.0,0.0,0.0,0.0,0.0,0.0,0.0,0.0,0.0,0.0,0.0,0.0,0.0,0.0,0.0,0.0,0.0,-3.2064,-3.1863,-3.1386,-3.1386,-3.1386,-3.1386,-3.1386,-3.1336,-3.1311,-3.3269,-3.4198,-3.4254,-3.4399,-3.45,-3.4625,-3.5132,-3.5357,-3.5408,-3.6006,-3.6254,-3.6279,-3.638,-3.6405,-3.6405,-3.6405,-3.6405,-3.6405,-3.6405,-3.6405,-3.6405,-3.6405,-3.6405,-3.6405,-3.6405,-3.6405,-3.6405,-3.6405,-3.6405,-3.638,-3.6279,-3.6329,-3.6405,-3.6405,-3.6405,-3.6405,-3.6405,-3.5906,-3.5583,-3.5881,-3.5177,-3.4248,-3.3262,-3.3111,-3.3111,-3.3111,-3.3111,-3.3111,-3.3111,-3.3111,-3.3111,-3.3111,-3.3111,-3.3111,-3.3111,-3.3111,-3.3111,-3.3111,-3.3111,-3.2842,-3.2365,-3.1813,-3.126,-3.0758,-3.0281,-3.008,-3.008,-3.0532,-3.0758,0.0,0.0,0.0,0.0,0.0,0.0,0.0,0.0,0.0,0.0,0.0,0.0,0.0,0.0,0.0,0.0,0.0,0.0,0.0,0.0,0.0,0.0,0.0,0.0,0.0,0.0,0.0,0.0,0.0,0.0,0.0,0.0,-3.2628,-3.1553,-3.1486,-3.1461,-3.1386,-3.1386,-3.1386,-3.1386,-3.1386,-3.116,-3.0733,-3.1486,-3.2089,-3.2566,-3.3068,-3.3571,-3.4048,-3.46,-3.4826,-3.4831,-3.5382,-3.5608,-3.5658,-3.6182,-3.6405,-3.6405,-3.6405,-3.6405,-3.6405,-3.6405,-3.6405,-3.6405,-3.6405,-3.6405,-3.6405,-3.6405,-3.6405,-3.6405,-3.6405,-3.6405,-3.6279,-3.5755,-3.6006,-3.6405,-3.6405,-3.6405,-3.6405,-3.6405,-3.5906,-3.5232,-3.4374,-3.4098,-3.3796,-3.3212,-3.3111,-3.3111,-3.3111,-3.3111,-3.3111,-3.3111,-3.3111,-3.3111,-3.3111,-3.3111,-3.3111,-3.3111,-3.3111,-3.3111,-3.3111,-3.3111,-3.3043,-3.2968,-3.239,-3.1838,-3.1286,-3.121,-3.1185,-3.1185,-3.126,-3.1286,0.0,0.0,0.0,0.0,0.0,0.0,0.0,0.0,0.0,0.0,0.0,0.0,0.0,0.0,0.0,0.0,0.0,0.0,0.0,0.0,0.0,0.0,0.0,0.0,0.0,0.0,0.0,0.0,0.0,0.0,0.0,-3.1414,-3.1301,-3.0547,-3.0507,0.0,-3.0507,-3.0507,-3.0507,-3.0507,-3.0507,-3.0382,-3.0156,-3.0382,-3.0959,-3.1763,-3.2014,-3.2265,-3.2566,-3.3445,-3.3796,-3.3897,-3.4705,-3.5031,-3.5056,-3.5353,-3.5454,-3.5454,-3.5454,-3.5454,-3.5454,-3.5454,-3.5655,-3.5906,-3.5906,-3.6107,-3.6405,-3.6405,-3.6405,-3.6405,-3.6405,-3.6132,-3.5855,-3.5558,-3.5683,-3.5805,-3.5504,-3.5931,-3.6229,-3.5554,-3.5253,-3.4726,-3.3621,-3.3696,-3.3721,-3.3169,-3.3111,-3.3111,-3.3111,-3.3111,-3.3111,-3.3111,-3.3111,-3.3111,-3.3111,-3.3111,-3.3111,-3.3111,-3.3111,-3.3111,-3.3111,-3.3111,-3.3111,-3.3111,-3.2516,-3.2089,-3.1863,-3.1537,-3.1235,-3.0959,-3.1562,-3.1537,0.0,0.0,0.0,0.0,0.0,0.0,0.0,0.0,0.0,0.0,0.0,0.0,0.0,0.0,0.0,0.0,0.0,0.0,0.0,0.0,0.0,0.0,0.0,0.0,0.0,0.0,0.0,0.0,0.0,0.0,-3.0206,-3.0181,-2.993,-2.9377,-2.9352,-2.9352,-2.9352,-2.9503,-2.9503,-2.9377,-2.9654,-2.9704,-2.9578,-2.9729,-3.0231,-3.0984,-3.1135,-3.1185,-3.1286,-3.239,-3.2867,-3.2968,-3.4073,-3.4525,-3.4525,-3.4675,-3.468,-3.468,-3.468,-3.468,-3.468,-3.468,-3.5056,-3.5508,-3.5508,-3.5931,-3.6405,-3.6405,-3.6405,-3.638,-3.6182,-3.5855,-3.5433,-3.5157,-3.5182,-3.5207,-3.4956,-3.5454,-3.5655,-3.47,-3.4525,-3.4198,-3.3244,-3.342,-3.3545,-3.3144,-3.3111,-3.3111,-3.3111,-3.3111,-3.3111,-3.3111,-3.3111,-3.3111,-3.3111,-3.3111,-3.3111,-3.3111,-3.3111,-3.3111,-3.3111,-3.3111,-3.3111,-3.3111,-3.2641,-3.2441,-3.2441,-3.2014,-3.1612,-3.126,-3.1913,-3.1788,0.0,0.0,0.0,0.0,0.0,0.0,0.0,0.0,0.0,0.0,0.0,0.0,0.0,0.0,0.0,0.0,0.0,0.0,0.0,0.0,0.0,0.0,0.0,0.0,0.0,0.0,0.0,0.0,0.0,0.0,-2.9013,-2.8988,-2.8737,-2.8222,-2.8197,-2.8197,-2.8197,-2.8662,-2.8662,-2.8197,-2.9277,-2.9503,-2.8963,-2.9553,-2.9829,-2.9905,-3.0432,-3.0658,-3.0733,-3.1813,-3.2265,-3.2365,-3.3495,-3.3947,-3.3997,-3.4525,-3.468,-3.468,-3.468,-3.468,-3.468,-3.468,-3.5056,-3.5508,-3.5508,-3.5931,-3.6405,-3.6405,-3.6405,-3.6279,-3.5683,-3.5508,-3.5232,-3.4248,-3.4374,-3.4856,-3.5357,-3.5082,-3.4625,-3.4048,-3.3947,-3.3746,-3.3212,-3.3093,-3.3119,-3.3093,-3.3111,-3.3111,-3.3111,-3.3111,-3.3111,-3.3111,-3.3111,-3.3111,-3.3111,-3.3111,-3.3111,-3.3111,-3.3111,-3.3111,-3.3111,-3.3111,-3.3111,-3.3111,-3.3043,-3.3043,-3.3043,-3.3036,-3.3011,-3.2943,-3.2441,-3.219,0.0,0.0,0.0,0.0,0.0,0.0,0.0,0.0,0.0,0.0,0.0,0.0,0.0,0.0,0.0,0.0,0.0,0.0,0.0,0.0,0.0,0.0,0.0,0.0,0.0,0.0,0.0,0.0,0.0,0.0,-2.8423,-2.8398,-2.8323,-2.8122,-2.8097,-2.8097,-2.8097,-2.8298,-2.8298,-2.8122,-2.8524,-2.88,-2.8888,-2.9113,-2.9428,-2.9804,-3.0005,-3.008,-3.0181,-3.1235,-3.1486,-3.1336,-3.2792,-3.3144,-3.2893,-3.3445,-3.3671,-3.3671,-3.3671,-3.3671,-3.3671,-3.3671,-3.4274,-3.4981,-3.4981,-3.5403,-3.5906,-3.6304,-3.5855,-3.5353,-3.5458,-3.4981,-3.4399,-3.3997,-3.3771,-3.3822,-3.4374,-3.4324,-3.4148,-3.3947,-3.3621,-3.3319,-3.3119,-3.3111,-3.3111,-3.3111,-3.3111,-3.3111,-3.3111,-3.2742,-3.2667,-3.3086,-3.2742,-3.2667,-3.3086,-3.3111,-3.3111,-3.3111,-3.3111,-3.3111,-3.3111,-3.3111,-3.3111,-3.3111,-3.3111,-3.3111,-3.3111,-3.3111,-3.2692,-3.1989,-3.2139,-3.1662,-2.1644,0.0,0.0,0.0,0.0,0.0,0.0,0.0,0.0,0.0,0.0,0.0,0.0,0.0,0.0,0.0,0.0,0.0,0.0,0.0,0.0,0.0,0.0,0.0,0.0,0.0,0.0,0.0,0.0,0.0,-2.7871,-2.7821,-2.7745,-2.757,-2.7544,-2.7544,-2.7544,-2.7745,-2.7745,-2.7544,-2.7921,-2.8298,-2.8612,-2.8813,-2.9252,-2.9804,-2.9804,-2.9804,-2.9854,-3.0758,-3.0934,-3.0758,-3.2215,-3.2541,-3.229,-3.2867,-3.3111,-3.3111,-3.3111,-3.3111,-3.3111,-3.3111,-3.3696,-3.4449,-3.4449,-3.4826,-3.5307,-3.5705,-3.5278,-3.4731,-3.4906,-3.4299,-3.3621,-3.3621,-3.3345,-3.3212,-3.3545,-3.3621,-3.3621,-3.3621,-3.3319,-3.3111,-3.3111,-3.3111,-3.3111,-3.3111,-3.3111,-3.3111,-3.3111,-3.2742,-3.2641,-3.3086,-3.2742,-3.2667,-3.3086,-3.3111,-3.3111,-3.3111,-3.3111,-3.3111,-3.3111,-3.3111,-3.3111,-3.3111,-3.3111,-3.3111,-3.3111,-3.3111,-3.2591,-3.1662,-3.1863,-3.116,0.0,0.0,0.0,0.0,0.0,0.0,0.0,0.0,0.0,0.0,0.0,0.0,0.0,0.0,0.0,0.0,0.0,0.0,0.0,0.0,0.0,0.0,0.0,0.0,0.0,0.0,0.0,0.0,0.0,-2.7795,-2.7243,-2.7253,-2.7002,-2.6524,-2.6474,-2.6474,-2.6499,-2.7002,-2.7002,-2.6499,-2.757,-2.8097,-2.8122,-2.8674,-2.9252,-2.9804,-2.9804,-2.9804,-2.9829,-3.0382,-3.0608,-3.0708,-3.1763,-3.219,-3.2265,-3.2842,-3.3068,-3.3111,-3.3111,-3.3111,-3.3111,-3.3111,-3.3445,-3.3897,-3.3897,-3.4274,-3.47,-3.4726,-3.47,-3.455,-3.4022,-3.347,-3.3111,-3.3111,-3.3111,-3.3111,-3.3111,-3.3111,-3.3111,-3.3111,-3.3111,-3.3111,-3.3111,-3.3111,-3.3111,-3.3111,-3.3068,-3.3068,-3.3111,-3.3043,-3.3043,-3.3111,-3.3068,-3.3068,-3.3111,-3.3111,-3.3111,-3.3111,-3.3111,-3.3111,-3.3111,-3.3111,-3.3111,-3.3111,-3.3111,-3.3111,-3.3111,-3.3068,-3.2742,-3.2164,-3.1612,-3.0783,-2.2121,0.0,0.0,0.0,0.0,0.0,0.0,0.0,0.0,0.0,0.0,0.0,0.0,0.0,0.0,0.0,0.0,0.0,0.0,0.0,0.0,0.0,0.0,0.0,0.0,0.0,0.0,0.0,0.0,-2.6063,-2.5536,-2.5511,-2.5787,-2.6474,-2.5686,-2.5661,-2.6474,-2.6223,-2.6223,-2.6499,-2.7168,-2.772,-2.8122,-2.8674,-2.9252,-2.9804,-2.9804,-2.9804,-2.9829,-3.0382,-3.0382,-3.0131,-3.121,-3.1612,-3.1687,-3.224,-3.2717,-3.3111,-3.3111,-3.3111,-3.3111,-3.3111,-3.3445,-3.3897,-3.3897,-3.3997,-3.4198,-3.46,-3.4148,-3.3495,-3.3345,-3.3194,-3.3111,-3.3111,-3.3111,-3.3111,-3.3111,-3.3111,-3.3111,-3.3111,-3.3111,-3.3111,-3.3111,-3.3111,-3.3111,-3.3111,-3.2717,-3.2591,-3.3018,-3.2365,-3.2206,-3.2993,-3.2692,-3.2616,-3.3043,-3.3111,-3.3111,-3.3111,-3.3111,-3.3111,-3.3111,-3.3111,-3.3111,-3.3111,-3.3111,-3.3111,-3.3111,-3.2641,-3.2164,-3.1587,-3.0658,-3.008,0.0,0.0,0.0,0.0,0.0,0.0,0.0,0.0,0.0,0.0,0.0,0.0,0.0,0.0,0.0,0.0,0.0,0.0,0.0,0.0,0.0,0.0,0.0,0.0,0.0,0.0,0.0,0.0,-2.5109,-2.5134,-2.48,-2.48,-2.5109,-2.5762,-2.536,-2.546,-2.6122,-2.6047,-2.6147,-2.6499,-2.6826,-2.7253,-2.777,-2.8323,-2.89,-2.9453,-2.9679,-2.9804,-2.9804,-3.0131,-3.008,-2.988,-3.0733,-3.106,-3.116,-3.1938,-3.2416,-3.2742,-3.2993,-3.3111,-3.3111,-3.3111,-3.3294,-3.3545,-3.3545,-3.3545,-3.3621,-3.3947,-3.3571,-3.3111,-3.3111,-3.3111,-3.3111,-3.3111,-3.3111,-3.3061,-3.2767,-3.2893,-3.3111,-3.3111,-3.3111,-3.3111,-3.3111,-3.3111,-3.3111,-3.3111,-3.2792,-3.2692,-3.3043,-3.229,-3.2064,-3.2993,-3.2566,-3.2441,-3.3061,-3.3111,-3.3111,-3.3111,-3.3111,-3.3111,-3.3111,-3.3111,-3.3111,-3.3111,-3.3111,-3.2885,-3.2365,-3.2265,-3.1813,-3.106,-3.0206,-2.9804,0.0,0.0,0.0,0.0,0.0,0.0,-2.1619,-2.132,-2.1018,0.0,0.0,0.0,0.0,0.0,0.0,0.0,0.0,0.0,0.0,0.0,0.0,0.0,0.0,0.0,0.0,0.0,0.0,-2.4424,-2.4474,-2.4575,-2.47,-2.465,-2.465,-2.48,-2.5159,-2.5385,-2.5511,-2.6047,-2.6348,-2.6399,-2.6524,-2.6851,-2.7293,-2.7921,-2.8473,-2.8913,-2.9553,-2.9804,-2.9804,-2.9804,-2.9804,-2.9854,-3.0331,-3.0557,-3.0733,-3.1687,-3.2114,-3.229,-3.2792,-3.3018,-3.3111,-3.3111,-3.3111,-3.3111,-3.3111,-3.3111,-3.3111,-3.3111,-3.3111,-3.3111,-3.3111,-3.3111,-3.3111,-3.3111,-3.3111,-3.2943,-3.2416,-3.2717,-3.3111,-3.3111,-3.3111,-3.3068,-3.2993,-3.3086,-3.3086,-3.296,-3.2943,-3.2993,-3.2993,-3.2466,-3.234,-3.2918,-3.2466,-3.2365,-3.2943,-3.2993,-3.3061,-3.3111,-3.3111,-3.3111,-3.3111,-3.3111,-3.3111,-3.3111,-3.3018,-3.2416,-3.1311,-3.1788,-3.1512,-3.0507,-3.003,-2.9804,0.0,0.0,0.0,0.0,0.0,0.0,-2.2347,-2.2774,-2.2975,0.0,0.0,0.0,0.0,0.0,0.0,0.0,0.0,0.0,0.0,0.0,0.0,0.0,0.0,0.0,0.0,0.0,-2.2146,-2.2146,-2.2548,-2.3201,-2.4104,-2.3697,-2.3847,-2.475,-2.3998,-2.4023,-2.4926,-2.5084,-2.536,-2.5787,-2.6725,-2.7203,-2.7318,-2.8323,-2.8787,-2.8913,-2.9553,-2.9804,-2.9804,-2.9804,-2.9804,-2.9804,-2.9905,-3.0231,-3.0633,-3.0859,-3.1461,-3.224,-3.234,-3.2692,-3.3111,-3.3111,-3.3111,-3.3111,-3.3111,-3.3111,-3.3111,-3.3111,-3.3111,-3.3111,-3.3111,-3.3111,-3.3111,-3.3111,-3.3111,-3.3086,-3.2943,-3.2993,-3.3111,-3.3111,-3.3111,-3.2943,-3.2466,-3.2767,-3.281,-3.1863,-3.2089,-3.239,-3.239,-3.1888,-3.1763,-3.2315,-3.1888,-3.1788,-3.234,-3.239,-3.2591,-3.3043,-3.3111,-3.3111,-3.3111,-3.3111,-3.3111,-3.3111,-3.2616,-3.1838,-3.0758,-3.0884,-3.0583,-2.9955,-2.9854,-2.9804,0.0,0.0,0.0,-2.3471,0.0,0.0,0.0,-2.2723,0.0,0.0,0.0,0.0,0.0,0.0,0.0,0.0,0.0,0.0,0.0,0.0,0.0,0.0,0.0,0.0,0.0,0.0,-2.1493,-2.1493,-2.1744,-2.2272,-2.3125,-2.2874,-2.307,-2.3923,-2.3672,-2.3948,-2.4775,-2.5084,-2.5485,-2.6072,-2.6625,-2.6901,-2.6927,-2.772,-2.8247,-2.8512,-2.9126,-2.9528,-2.9804,-2.9804,-2.9804,-2.9804,-2.9804,-2.9955,-3.0231,-3.0507,-3.0959,-3.1486,-3.2014,-3.2416,-3.2692,-3.2993,-3.3111,-3.3111,-3.3111,-3.3111,-3.3111,-3.3111,-3.3111,-3.3111,-3.3111,-3.3111,-3.3111,-3.3111,-3.3111,-3.2993,-3.2717,-3.2867,-3.2993,-3.2692,-3.2641,-3.2641,-3.2641,-3.2893,-3.2935,-3.2315,-3.2466,-3.2541,-3.224,-3.1738,-3.1612,-3.2164,-3.1486,-3.1336,-3.2139,-3.2215,-3.234,-3.2616,-3.2918,-3.3111,-3.3111,-3.3111,-3.3111,-3.3111,-3.224,-3.1537,-3.1009,-3.0457,-3.0055,-2.9804,-2.9804,-2.9804,0.0,0.0,0.0,0.0,0.0,-2.2794,0.0,0.0,0.0,0.0,0.0,0.0,0.0,0.0,0.0,0.0,0.0,0.0,0.0,0.0,0.0,0.0,0.0,0.0,0.0,0.0,-2.1217,-2.1345,-2.137,-2.1568,-2.2121,-2.2146,-2.2397,-2.292,-2.3427,-2.3929,-2.4449,-2.5134,-2.5686,-2.6172,-2.6399,-2.6499,-2.6524,-2.7077,-2.7595,-2.8147,-2.8662,-2.9252,-2.9804,-2.9804,-2.9804,-2.9804,-2.9804,-2.9804,-2.9854,-3.0306,-3.0532,-3.0758,-3.1712,-3.2114,-3.2315,-3.2893,-3.3111,-3.3111,-3.3111,-3.3111,-3.3111,-3.3111,-3.3111,-3.3111,-3.3111,-3.2993,-3.2918,-3.2918,-3.2842,-3.2616,-3.2164,-3.2491,-3.2767,-3.2315,-3.2215,-3.2365,-3.2817,-3.2918,-3.2842,-3.2641,-3.2767,-3.2667,-3.1989,-3.1512,-3.1411,-3.1863,-3.1035,-3.0859,-3.1813,-3.1989,-3.2064,-3.2064,-3.2591,-3.2918,-3.2918,-3.2918,-3.2867,-3.2742,-3.1763,-3.1185,-3.1085,-3.0206,-2.9804,-2.9804,-2.9804,-2.9804,0.0,0.0,0.0,0.0,-2.3847,0.0,0.0,0.0,0.0,0.0,0.0,0.0,0.0,0.0,0.0,0.0,0.0,0.0,0.0,0.0,0.0,0.0,0.0,0.0,0.0,0.0,0.0,-2.0742,-2.0792,-2.1018,-2.1543,-2.1568,-2.1845,-2.2368,-2.2472,-2.2744,-2.3296,-2.4349,-2.4933,-2.5034,-2.6021,-2.6499,-2.6524,-2.7077,-2.7595,-2.8147,-2.8662,-2.9252,-2.9804,-2.9804,-2.9804,-2.9804,-2.9804,-2.9804,-2.9804,-2.9854,-3.0206,-3.0708,-3.1286,-3.1813,-3.2315,-3.2893,-3.3111,-3.3111,-3.3111,-3.3111,-3.3111,-3.3111,-3.3111,-3.3111,-3.3111,-3.2692,-3.2315,-3.2315,-3.1938,-3.1562,-3.1486,-3.1913,-3.229,-3.2215,-3.2215,-3.224,-3.229,-3.2315,-3.1989,-3.1035,-3.1712,-3.1938,-3.0934,-3.0733,-3.0733,-3.0783,-3.0256,-3.0131,-3.0733,-3.121,-3.1486,-3.1486,-3.2014,-3.2315,-3.2315,-3.2315,-3.2089,-3.1587,-3.1009,-3.0457,-2.998,-2.9854,-2.9804,-2.9804,-2.9804,-2.9804,0.0,0.0,0.0,0.0,0.0,0.0,0.0,0.0,-2.317,0.0,0.0,0.0,0.0,0.0,0.0,0.0,0.0,0.0,0.0,0.0,0.0,0.0,0.0,0.0,0.0,0.0,0.0,0.0,0.0,-2.0861,-2.1046,-2.1043,-2.1418,-2.2268,-2.2322,-2.2869,-2.4073,-2.455,-2.5134,-2.5787,-2.6273,-2.6499,-2.6499,-2.6725,-2.7293,-2.8122,-2.8348,-2.895,-2.9804,-2.9804,-2.9804,-2.9804,-2.9804,-2.9804,-2.9804,-2.9804,-2.993,-3.0206,-3.0758,-3.1085,-3.1361,-3.1913,-3.2541,-3.2986,-3.229,-3.2315,-3.2566,-3.2566,-3.234,-3.2164,-3.2491,-3.2164,-3.1738,-3.1738,-3.1562,-3.1486,-3.1813,-3.1813,-3.1838,-3.2139,-3.1712,-3.1386,-3.1687,-3.1738,-3.1587,-3.1135,-3.1461,-3.1461,-3.0708,-3.0608,-3.0608,-3.0608,-3.0131,-3.0005,-3.0557,-3.0809,-3.0934,-3.0934,-3.1436,-3.1738,-3.1738,-3.1738,-3.1637,-3.1386,-3.0884,-3.0507,-3.0256,-2.9955,-2.9804,-2.9804,-2.9804,-2.9804,-2.3547,0.0,0.0,0.0,0.0,0.0,0.0,0.0,0.0,0.0,0.0,0.0,0.0,0.0,0.0,0.0,0.0,0.0,0.0,0.0,0.0,0.0,0.0,0.0,0.0,0.0,0.0,0.0,-2.0168,0.0,-2.024,-2.0541,-2.1119,-2.2046,-2.2221,-2.2945,-2.4324,-2.4625,-2.5234,-2.6047,-2.6348,-2.6499,-2.6499,-2.6499,-2.7027,-2.7896,-2.8047,-2.8649,-2.9578,-2.9729,-2.9804,-2.9804,-2.9804,-2.9804,-2.9804,-2.9804,-2.9804,-2.988,-3.0432,-3.0708,-3.0884,-3.126,-3.1938,-3.2466,-3.1637,-3.1662,-3.1989,-3.1989,-3.1712,-3.1486,-3.1888,-3.1587,-3.1185,-3.1185,-3.106,-3.106,-3.1461,-3.1361,-3.1311,-3.1687,-3.1135,-3.0733,-3.111,-3.1185,-3.1185,-3.1185,-3.1185,-3.0984,-3.0457,-3.0382,-3.0382,-3.0382,-3.003,-2.9955,-3.0357,-3.0532,-3.0608,-3.0608,-3.0959,-3.1185,-3.1185,-3.1185,-3.1185,-3.1185,-3.0658,-3.0382,-3.0382,-2.998,-2.9804,-2.9804,-2.9804,-2.9804,0.0,0.0,0.0,-2.3396,0.0,0.0,0.0,0.0,-2.3653,0.0,0.0,0.0,0.0,0.0,-2.0339,-1.9233,0.0,0.0,0.0,0.0,0.0,0.0,0.0,0.0,0.0,0.0,0.0,0.0,-1.951,0.0,-1.9083,-2.0087,-2.0943,-2.1493,-2.202,-2.2569,-2.3145,-2.4249,-2.48,-2.485,-2.5996,-2.6499,-2.6499,-2.6499,-2.6801,-2.7344,-2.7871,-2.8423,-2.8963,-2.9553,-2.9804,-2.9804,-2.9804,-2.9804,-2.9804,-2.9804,-2.9804,-2.988,-3.0432,-3.0934,-3.1361,-3.1386,-3.1411,-3.1436,-3.1411,-3.1411,-3.1411,-3.1411,-3.1411,-3.1386,-3.1411,-3.1035,-3.0633,-3.0633,-3.0231,-2.9854,-2.9854,-3.0281,-3.0658,-3.0658,-3.0633,-3.0633,-3.0633,-3.0633,-3.0633,-3.0633,-3.0633,-3.0432,-2.988,-2.9829,-2.9829,-2.9829,-2.9804,-2.9804,-2.9804,-3.0306,-3.0608,-3.0608,-3.0633,-3.0633,-3.0633,-3.0633,-3.0633,-3.0633,-3.0105,-2.9829,-2.9829,-2.9804,-2.9804,-2.9804,-2.9804,-2.9804,0.0,0.0,-2.5084,-2.3979,0.0,0.0,0.0,0.0,0.0,0.0,0.0,0.0,0.0,0.0,-2.0993,-2.0264,-2.0289,0.0,0.0,0.0,0.0,0.0,0.0,0.0,0.0,0.0,0.0,-1.9082,-1.9578,-1.9653,0.0,-2.0062,-2.0943,-2.1468,-2.202,-2.2749,-2.3703,-2.4079,-2.4632,-2.5335,-2.5711,-2.6122,-2.6499,-2.6499,-2.6801,-2.7318,-2.7871,-2.8423,-2.8938,-2.9553,-2.9804,-2.9804,-2.9804,-2.9804,-2.9804,-2.9804,-2.9804,-2.9829,-3.0005,-3.0432,-3.0809,-3.0457,-3.0809,-3.126,-3.0557,-3.0583,-3.0884,-3.0884,-3.0608,-3.0407,-3.0783,-3.0482,-3.0156,-3.0532,-3.0206,-2.998,-3.0708,-3.0432,-3.0181,-3.0532,-3.0306,-3.008,-3.008,-3.008,-3.008,-3.008,-3.008,-3.0005,-2.9804,-2.9804,-2.9804,-2.9804,-2.9804,-2.9804,-2.9804,-2.9955,-3.008,-3.008,-3.008,-3.008,-3.008,-3.008,-3.008,-3.008,-2.988,-2.9804,-2.9804,-2.9804,-2.9804,-2.9804,-2.9804,-2.9804,-2.5159,-2.5335,0.0,-2.4506,-2.4525,0.0,-2.3622,0.0,0.0,0.0,0.0,0.0,0.0,0.0,-2.1345,-2.0792,-2.0515,-2.0239,0.0,-1.9811,0.0,0.0,0.0,0.0,0.0,0.0,-2.0009,-1.8805,-1.9475,-1.9576,0.0,0.0,-2.1144,-2.1468,-2.2221,-2.292,-2.3678,-2.3904,-2.4356,-2.5034,-2.541,-2.5787,-2.6197,-2.6399,-2.67,-2.7077,-2.777,-2.8323,-2.8699,-2.9478,-2.9804,-2.9804,-2.9804,-2.9804,-2.9804,-2.9804,-2.9804,-2.9804,-2.9804,-3.003,-3.0256,-2.9905,-3.0256,-3.0683,-3.0005,-3.003,-3.0357,-3.0557,-3.0357,-3.0206,-3.0758,-3.0633,-3.0457,-3.0809,-3.0608,-3.0507,-3.1009,-3.0583,-3.0131,-3.0306,-3.003,-2.9804,-2.9804,-2.9804,-2.9804,-2.9804,-2.9804,-2.9804,-2.9804,-2.9804,-2.9804,-2.9804,-2.9804,-2.9804,-2.9804,-2.9804,-2.9804,-2.9804,-2.9804,-2.9804,-2.9804,-2.9804,-2.998,-3.0357,-2.998,-2.998,-3.0357,-2.998,-2.9804,-2.9804,-2.9804,-2.9804]},{"header":{"parameterUnit":"m.s-1","parameterCategory":1,"la1":30.6,"la2":29.2853,"lo1":-89.7004,"lo2":-87.6739,"dy":0.0162,"dx":0.0183,"nx":112,"ny":82,"refTime":"2023-07-13T06:00:00:Z","depth":0,"parameterNumber":3,"parameterNumberName":"V-component_of_WINDS"},"data":[0.0,0.0,0.0,0.0,0.0,0.0,0.0,0.0,0.0,0.0,0.0,0.0,0.0,0.0,0.0,0.0,0.0,0.0,0.0,0.0,0.0,0.0,0.0,0.0,0.0,0.0,0.0,0.0,0.0,0.0,0.0,0.0,0.0,0.0,0.0,0.0,0.0,0.0,0.0,0.0,0.0,0.0,0.0,0.0,0.0,0.0,0.0,0.0,0.0,0.0,0.0,0.0,0.0,0.0,0.0,0.0,0.0,0.0,0.0,0.0,0.0,0.0,0.0,0.0,0.0,0.0,0.0,0.0,0.0,0.0,0.0,0.0,0.0,0.0,0.0,0.0,0.0,0.0,0.0,0.0,0.0,0.0,0.0,0.0,0.0,0.0,0.0,0.0,0.0,0.0,0.0,-2.0963,-2.3859,-2.5591,-2.5675,-2.4956,-2.3003,-1.9398,0.0,0.0,0.0,0.0,0.0,0.0,0.0,0.0,0.0,0.0,0.0,0.0,0.0,0.0,0.0,0.0,0.0,0.0,0.0,0.0,0.0,0.0,0.0,0.0,0.0,0.0,0.0,0.0,0.0,0.0,0.0,0.0,0.0,0.0,0.0,0.0,0.0,0.0,0.0,0.0,0.0,0.0,0.0,0.0,0.0,0.0,0.0,0.0,0.0,0.0,0.0,0.0,0.0,0.0,0.0,0.0,0.0,0.0,0.0,0.0,0.0,0.0,0.0,0.0,0.0,0.0,0.0,0.0,0.0,0.0,0.0,0.0,0.0,0.0,0.0,0.0,0.0,0.0,0.0,0.0,0.0,0.0,0.0,0.0,0.0,0.0,0.0,0.0,0.0,0.0,0.0,0.0,0.0,0.0,0.0,0.0,0.0,0.0,0.0,0.0,0.0,0.0,0.0,0.0,-2.0032,-2.4237,-2.5667,-2.6459,-2.6816,-2.5307,-2.318,-2.0488,0.0,0.0,0.0,0.0,0.0,0.0,0.0,0.0,0.0,0.0,0.0,0.0,0.0,0.0,0.0,0.0,0.0,0.0,0.0,0.0,0.0,0.0,0.0,0.0,0.0,0.0,0.0,0.0,0.0,0.0,0.0,0.0,0.0,0.0,0.0,0.0,0.0,0.0,0.0,0.0,0.0,0.0,0.0,0.0,0.0,0.0,0.0,0.0,0.0,0.0,0.0,0.0,0.0,0.0,0.0,0.0,0.0,0.0,0.0,0.0,0.0,0.0,0.0,0.0,0.0,0.0,0.0,0.0,0.0,0.0,0.0,0.0,0.0,0.0,0.0,0.0,0.0,0.0,0.0,0.0,0.0,0.0,0.0,0.0,0.0,0.0,0.0,0.0,0.0,0.0,0.0,0.0,0.0,0.0,0.0,0.0,0.0,0.0,0.0,0.0,0.0,0.0,0.0,-2.0409,-2.2911,-2.609,-2.7002,-2.7452,-2.7643,-2.6008,-2.4009,-2.1661,-2.0758,0.0,0.0,0.0,0.0,0.0,0.0,0.0,0.0,0.0,0.0,0.0,0.0,0.0,0.0,0.0,0.0,0.0,0.0,0.0,0.0,0.0,0.0,0.0,0.0,0.0,0.0,0.0,0.0,0.0,0.0,0.0,0.0,0.0,0.0,0.0,0.0,0.0,0.0,0.0,0.0,0.0,0.0,0.0,0.0,0.0,0.0,0.0,0.0,0.0,0.0,0.0,0.0,0.0,0.0,0.0,0.0,0.0,0.0,0.0,0.0,0.0,0.0,0.0,0.0,0.0,0.0,0.0,0.0,0.0,0.0,0.0,0.0,0.0,0.0,0.0,0.0,0.0,0.0,0.0,0.0,0.0,0.0,0.0,0.0,0.0,0.0,0.0,0.0,0.0,0.0,0.0,0.0,0.0,0.0,0.0,0.0,0.0,0.0,0.0,0.0,0.0,0.0,-2.2924,-2.4732,-2.7218,-2.8082,-2.8505,-2.8505,-2.6705,-2.4787,-2.2822,-2.1317,0.0,0.0,0.0,0.0,0.0,0.0,0.0,0.0,0.0,0.0,0.0,0.0,0.0,0.0,0.0,0.0,0.0,0.0,0.0,0.0,0.0,0.0,0.0,0.0,0.0,0.0,0.0,0.0,0.0,0.0,0.0,0.0,0.0,0.0,0.0,0.0,0.0,0.0,0.0,0.0,0.0,0.0,0.0,0.0,0.0,0.0,0.0,0.0,0.0,0.0,0.0,0.0,0.0,0.0,0.0,0.0,0.0,0.0,0.0,0.0,0.0,0.0,0.0,0.0,0.0,0.0,0.0,0.0,0.0,0.0,0.0,0.0,0.0,0.0,0.0,0.0,0.0,0.0,0.0,0.0,0.0,0.0,0.0,0.0,0.0,0.0,0.0,0.0,0.0,0.0,0.0,0.0,0.0,0.0,0.0,0.0,0.0,0.0,0.0,0.0,0.0,0.0,-2.2769,-2.4399,-2.7695,-2.9025,-2.9663,-2.9663,-2.7162,-2.5111,-2.396,-2.1337,0.0,0.0,0.0,0.0,0.0,0.0,0.0,0.0,0.0,0.0,0.0,0.0,0.0,0.0,0.0,0.0,0.0,0.0,0.0,0.0,0.0,0.0,0.0,0.0,0.0,0.0,0.0,0.0,0.0,0.0,0.0,0.0,0.0,0.0,0.0,0.0,0.0,0.0,0.0,0.0,0.0,0.0,0.0,0.0,0.0,0.0,0.0,0.0,0.0,0.0,0.0,0.0,0.0,0.0,0.0,0.0,0.0,0.0,0.0,0.0,0.0,0.0,0.0,0.0,0.0,0.0,0.0,0.0,0.0,0.0,0.0,0.0,0.0,0.0,0.0,0.0,0.0,0.0,0.0,0.0,0.0,0.0,0.0,0.0,0.0,0.0,0.0,0.0,0.0,0.0,0.0,0.0,0.0,0.0,0.0,0.0,0.0,0.0,0.0,0.0,0.0,0.0,-2.3853,-2.5302,0.0,-2.9327,-2.9654,-2.9277,-2.7017,-2.5134,-2.4079,0.0,0.0,0.0,0.0,0.0,0.0,0.0,0.0,0.0,0.0,0.0,0.0,0.0,0.0,0.0,0.0,0.0,0.0,0.0,0.0,0.0,0.0,0.0,0.0,0.0,0.0,0.0,0.0,0.0,0.0,0.0,0.0,0.0,0.0,0.0,0.0,0.0,0.0,0.0,0.0,0.0,0.0,0.0,0.0,0.0,0.0,0.0,0.0,0.0,0.0,0.0,0.0,0.0,0.0,0.0,0.0,0.0,0.0,0.0,0.0,0.0,0.0,0.0,0.0,0.0,0.0,0.0,0.0,0.0,0.0,0.0,0.0,0.0,0.0,0.0,0.0,0.0,0.0,0.0,0.0,0.0,0.0,0.0,0.0,0.0,0.0,0.0,0.0,0.0,0.0,0.0,0.0,0.0,0.0,0.0,0.0,0.0,0.0,0.0,0.0,0.0,0.0,-2.3351,-2.4023,-2.5302,0.0,-2.8925,-2.9101,-2.8662,-2.6289,-2.4582,-2.4029,0.0,0.0,0.0,0.0,0.0,0.0,0.0,0.0,0.0,0.0,0.0,0.0,0.0,0.0,0.0,0.0,0.0,0.0,0.0,0.0,0.0,0.0,0.0,0.0,0.0,0.0,0.0,0.0,0.0,0.0,0.0,0.0,0.0,0.0,0.0,0.0,0.0,0.0,0.0,0.0,0.0,0.0,0.0,0.0,0.0,0.0,0.0,0.0,0.0,0.0,0.0,0.0,0.0,0.0,0.0,0.0,0.0,0.0,0.0,0.0,0.0,0.0,0.0,0.0,0.0,0.0,0.0,0.0,0.0,0.0,0.0,0.0,0.0,0.0,0.0,0.0,0.0,0.0,0.0,0.0,0.0,0.0,0.0,0.0,0.0,0.0,0.0,0.0,0.0,0.0,0.0,0.0,0.0,0.0,0.0,0.0,0.0,0.0,0.0,0.0,0.0,0.0,-2.2774,-2.315,-2.4205,-2.7027,-2.777,-2.8097,-2.8097,-2.5001,-2.3346,0.0,0.0,0.0,0.0,0.0,0.0,0.0,0.0,0.0,0.0,0.0,0.0,0.0,0.0,0.0,0.0,0.0,0.0,0.0,0.0,0.0,0.0,0.0,0.0,0.0,0.0,0.0,0.0,0.0,0.0,0.0,0.0,0.0,0.0,0.0,0.0,0.0,0.0,0.0,0.0,0.0,0.0,0.0,0.0,0.0,0.0,0.0,0.0,0.0,0.0,0.0,0.0,0.0,0.0,0.0,0.0,0.0,0.0,0.0,0.0,0.0,0.0,0.0,0.0,0.0,0.0,0.0,0.0,0.0,0.0,0.0,0.0,0.0,0.0,0.0,0.0,0.0,0.0,0.0,0.0,0.0,0.0,0.0,0.0,0.0,0.0,0.0,0.0,0.0,0.0,0.0,0.0,0.0,0.0,0.0,0.0,0.0,0.0,0.0,0.0,0.0,0.0,0.0,-2.4838,-2.4741,-2.5495,-2.8447,-2.8369,-2.7795,-2.7052,-2.4607,-2.302,-2.2824,0.0,0.0,0.0,0.0,0.0,0.0,0.0,0.0,0.0,0.0,0.0,0.0,0.0,0.0,0.0,0.0,0.0,0.0,0.0,0.0,0.0,0.0,0.0,0.0,0.0,0.0,0.0,0.0,0.0,0.0,0.0,0.0,0.0,0.0,0.0,0.0,0.0,0.0,0.0,0.0,0.0,0.0,0.0,0.0,0.0,0.0,0.0,0.0,0.0,0.0,0.0,0.0,0.0,0.0,0.0,0.0,0.0,0.0,0.0,0.0,0.0,0.0,0.0,0.0,0.0,0.0,0.0,0.0,0.0,0.0,0.0,0.0,0.0,0.0,0.0,0.0,0.0,0.0,0.0,0.0,0.0,0.0,0.0,0.0,0.0,0.0,0.0,0.0,0.0,0.0,0.0,0.0,0.0,0.0,0.0,0.0,0.0,0.0,0.0,0.0,0.0,0.0,-2.5852,-2.5587,-2.6134,-2.8757,-2.8368,-2.7631,-2.6886,-2.4531,-2.2959,-2.2639,0.0,0.0,0.0,0.0,0.0,0.0,0.0,0.0,0.0,0.0,0.0,0.0,0.0,0.0,0.0,0.0,0.0,0.0,0.0,0.0,0.0,0.0,0.0,0.0,0.0,0.0,0.0,0.0,0.0,0.0,0.0,0.0,0.0,0.0,0.0,0.0,0.0,0.0,0.0,0.0,0.0,0.0,0.0,0.0,0.0,0.0,0.0,0.0,0.0,0.0,0.0,0.0,0.0,0.0,0.0,0.0,0.0,0.0,0.0,0.0,0.0,0.0,0.0,0.0,0.0,0.0,0.0,0.0,0.0,0.0,0.0,0.0,0.0,0.0,0.0,0.0,0.0,0.0,0.0,0.0,0.0,0.0,0.0,0.0,0.0,0.0,0.0,0.0,0.0,0.0,0.0,0.0,0.0,0.0,0.0,0.0,0.0,0.0,0.0,0.0,0.0,0.0,-2.619,-2.5939,-2.6284,-2.8425,-2.816,-2.7687,-2.7306,-2.4855,-2.3262,-2.316,0.0,0.0,0.0,0.0,0.0,0.0,0.0,0.0,0.0,0.0,0.0,0.0,0.0,0.0,0.0,0.0,0.0,0.0,0.0,0.0,0.0,0.0,0.0,0.0,0.0,0.0,0.0,0.0,0.0,0.0,0.0,0.0,0.0,0.0,0.0,0.0,0.0,0.0,0.0,0.0,0.0,0.0,0.0,0.0,0.0,0.0,0.0,0.0,0.0,0.0,0.0,0.0,0.0,0.0,0.0,0.0,0.0,0.0,0.0,0.0,-2.2568,0.0,0.0,0.0,0.0,0.0,0.0,0.0,0.0,0.0,0.0,0.0,0.0,0.0,0.0,0.0,0.0,0.0,0.0,0.0,0.0,0.0,0.0,0.0,0.0,0.0,0.0,0.0,0.0,0.0,0.0,0.0,0.0,0.0,0.0,0.0,0.0,0.0,0.0,0.0,0.0,0.0,-2.7718,-2.6951,-2.7087,-2.9636,-2.9212,-2.8325,-2.729,-2.5862,-2.4559,-2.3577,0.0,0.0,0.0,0.0,0.0,0.0,0.0,0.0,0.0,0.0,0.0,0.0,0.0,0.0,0.0,0.0,0.0,0.0,0.0,0.0,0.0,0.0,0.0,0.0,0.0,0.0,0.0,0.0,0.0,0.0,0.0,0.0,0.0,0.0,0.0,0.0,0.0,0.0,0.0,0.0,0.0,0.0,0.0,0.0,0.0,0.0,0.0,0.0,0.0,0.0,0.0,0.0,0.0,0.0,0.0,0.0,0.0,0.0,0.0,0.0,0.0,-2.4666,0.0,0.0,0.0,0.0,0.0,0.0,0.0,0.0,0.0,0.0,0.0,0.0,0.0,0.0,0.0,0.0,0.0,0.0,0.0,0.0,0.0,0.0,0.0,0.0,0.0,0.0,0.0,0.0,0.0,0.0,0.0,0.0,0.0,0.0,0.0,0.0,0.0,0.0,0.0,0.0,-2.867,-2.782,-2.789,-3.0413,-3.0043,-2.9302,-2.8533,-2.6906,-2.5494,-2.4477,-2.2748,0.0,0.0,0.0,0.0,0.0,0.0,0.0,0.0,0.0,0.0,0.0,0.0,0.0,0.0,0.0,0.0,0.0,0.0,0.0,0.0,0.0,0.0,0.0,0.0,0.0,0.0,0.0,0.0,0.0,0.0,0.0,0.0,0.0,0.0,0.0,0.0,0.0,0.0,0.0,0.0,0.0,0.0,0.0,0.0,0.0,0.0,0.0,0.0,0.0,0.0,0.0,0.0,0.0,0.0,-3.2566,-3.3771,-3.3294,-3.2893,-3.239,-2.993,-2.7896,-2.6364,0.0,0.0,0.0,0.0,0.0,0.0,0.0,0.0,0.0,0.0,0.0,0.0,0.0,0.0,0.0,0.0,0.0,0.0,0.0,0.0,0.0,0.0,0.0,0.0,0.0,-2.7422,-2.6752,0.0,0.0,0.0,0.0,0.0,0.0,0.0,0.0,0.0,0.0,0.0,0.0,-2.9026,-2.8573,-2.8785,-3.0942,-3.0768,-3.0293,-2.9831,-2.804,-2.655,-2.5577,-2.3941,-2.2761,0.0,0.0,0.0,0.0,0.0,0.0,0.0,0.0,0.0,0.0,0.0,0.0,0.0,0.0,0.0,0.0,0.0,0.0,0.0,0.0,0.0,0.0,0.0,0.0,0.0,0.0,0.0,0.0,0.0,0.0,0.0,0.0,-1.791,-1.8305,0.0,0.0,0.0,0.0,0.0,0.0,0.0,0.0,0.0,0.0,0.0,0.0,0.0,0.0,-3.2164,-3.3784,-3.4705,-3.4856,-3.6358,-3.6885,-3.6634,-3.6558,-3.6759,-3.7061,-3.573,0.0,-2.9176,-2.8273,0.0,0.0,0.0,0.0,0.0,0.0,0.0,0.0,0.0,0.0,0.0,0.0,0.0,0.0,0.0,0.0,0.0,0.0,0.0,0.0,0.0,0.0,-2.8491,-2.8355,-2.866,-2.8768,0.0,-2.7258,-2.6672,-2.5984,0.0,0.0,0.0,0.0,0.0,0.0,0.0,0.0,-2.8607,-2.9112,-2.9896,-3.1306,-3.1395,-3.089,-2.9709,-2.9351,-2.8396,-2.6545,-2.5116,-2.4306,-2.4216,-2.3161,0.0,0.0,0.0,0.0,0.0,0.0,0.0,0.0,0.0,0.0,0.0,0.0,0.0,0.0,0.0,0.0,0.0,0.0,0.0,0.0,0.0,0.0,0.0,0.0,0.0,0.0,0.0,0.0,0.0,-1.8637,-1.9397,-1.8398,-2.0757,-2.2206,0.0,0.0,0.0,0.0,0.0,0.0,0.0,0.0,0.0,-3.2064,-3.3746,-3.5027,-3.583,-3.7513,-3.8442,-3.8768,-3.9848,-4.0375,-4.0425,-4.0176,-4.0176,-4.0275,-3.917,-3.7236,-3.47,-3.234,-3.0809,-2.9854,0.0,0.0,0.0,0.0,0.0,-2.7971,-2.8047,0.0,0.0,0.0,0.0,0.0,0.0,0.0,0.0,0.0,0.0,0.0,0.0,0.0,0.0,-3.1066,-3.1557,-3.194,-3.1876,-3.1298,-3.004,0.0,-2.6743,-2.6776,-2.7451,0.0,0.0,0.0,0.0,0.0,-2.8992,-2.9442,-3.0073,-3.1361,-3.1511,-3.1122,-3.0193,-2.9774,-2.8753,-2.6722,-2.5322,-2.4276,-2.355,-2.3002,-2.2823,0.0,0.0,0.0,0.0,0.0,0.0,0.0,0.0,0.0,0.0,0.0,0.0,0.0,0.0,0.0,0.0,0.0,0.0,0.0,0.0,0.0,0.0,0.0,0.0,0.0,0.0,0.0,0.0,-2.0478,-2.1569,-1.9649,-2.3073,-2.497,0.0,0.0,0.0,0.0,0.0,0.0,-3.0236,-3.2574,-3.4424,-3.5554,-3.7312,-3.8642,-3.9496,-4.0727,-4.163,-4.2128,-4.2585,-4.3011,-4.3388,-4.2986,-4.2766,-4.2564,-4.1555,-4.0601,-3.9497,-3.5956,-3.3621,-3.2164,-3.1512,-3.0733,-3.003,-3.0482,-3.0633,-3.0658,-3.0934,-3.0834,-3.0497,-2.9796,0.0,-3.0183,-2.8484,0.0,0.0,0.0,0.0,-3.0491,-3.1598,0.0,-3.2976,-3.3819,-3.4359,-3.4668,-3.4733,-3.4352,-3.297,0.0,-2.8791,-2.8823,-2.8941,0.0,0.0,0.0,0.0,-2.8068,-2.9442,-2.9864,-3.0462,-3.1391,-3.1511,-3.1152,-3.0342,-2.9834,-2.8753,-2.6722,-2.5525,-2.4335,-2.3221,-2.3032,-2.2942,-2.2942,0.0,0.0,0.0,0.0,0.0,0.0,0.0,0.0,0.0,0.0,0.0,0.0,0.0,0.0,0.0,0.0,0.0,0.0,0.0,0.0,0.0,0.0,0.0,0.0,0.0,0.0,0.0,0.0,0.0,-2.3398,-2.8277,0.0,0.0,0.0,0.0,-3.1789,-3.3358,-3.451,-3.5136,-3.7337,-3.9044,-4.0149,-4.0749,-4.1907,-4.3489,-4.3589,-4.3915,-4.4443,-4.4493,-4.4518,-4.4543,-4.4518,-4.4217,-4.3689,-4.3112,-4.2564,-4.1735,-3.7888,-3.5579,-3.4449,-3.337,-3.296,-3.2867,-3.2893,-3.296,-3.2842,-3.2315,-3.1461,-3.0918,-3.2894,-3.3473,-3.3071,-3.1314,-3.1354,0.0,0.0,-3.2156,-3.3452,-3.4138,-3.4825,-3.5511,-3.6171,-3.635,-3.6204,-3.5579,-3.5429,-3.4769,0.0,-3.1245,-3.038,-3.0406,0.0,-2.9209,-2.8697,-2.9564,-3.0133,-2.9681,-3.0672,-3.1421,-3.1481,-3.1511,-3.1002,-2.9771,-2.9621,-2.8753,-2.6722,-2.5944,-2.5232,-2.4545,-2.3909,-2.355,-2.355,-2.358,0.0,0.0,0.0,0.0,0.0,0.0,0.0,0.0,0.0,0.0,0.0,0.0,0.0,0.0,0.0,0.0,0.0,0.0,0.0,0.0,0.0,0.0,0.0,0.0,0.0,0.0,0.0,0.0,-2.9285,-3.3046,0.0,0.0,-3.4428,-3.5353,-3.5906,-3.7161,-3.8316,-3.9169,-4.0701,-4.1856,-4.261,-4.3539,-4.4292,-4.4869,-4.5246,-4.5522,-4.5698,-4.5698,-4.5698,-4.5698,-4.4945,-4.4719,-4.4794,-4.3218,-4.259,-4.2564,-4.0425,-3.8693,-3.7312,-3.6533,-3.5604,-3.47,-3.5052,-3.5223,-3.5239,-3.5432,-3.5202,-3.4968,-3.514,-3.4651,-3.3974,-3.391,-3.3774,-3.3792,-3.4413,-3.4698,-3.504,-3.6088,-3.6237,-3.6178,-3.6417,-3.6178,-3.5789,-3.5549,-3.5519,-3.528,-3.4562,-3.3365,-3.2437,-3.2437,-3.118,-3.0402,-3.1031,-3.1122,-3.1062,-3.0853,-3.16,-3.1959,-3.154,-3.1511,-3.0972,-2.9711,-2.9621,-2.8547,-2.6123,-2.5734,-2.5106,-2.3999,-2.3729,-2.361,-2.361,-2.361,-2.361,0.0,0.0,0.0,0.0,0.0,0.0,0.0,0.0,0.0,0.0,0.0,0.0,0.0,0.0,0.0,0.0,0.0,0.0,0.0,0.0,0.0,0.0,0.0,0.0,0.0,0.0,-3.3089,-3.4035,-3.7724,-3.9667,-3.8267,-3.9285,-4.0124,-4.0501,-4.158,-4.2434,-4.293,-4.389,-4.4543,-4.492,-4.5472,-4.5849,-4.605,-4.6225,-4.6401,-4.6602,-4.6602,-4.6602,-4.6552,-4.5824,-4.5472,-4.5397,-4.3915,-4.3319,-4.3187,-4.2459,-4.1304,-3.9975,-3.9346,-3.8417,-3.7464,-3.7688,-3.7687,-3.7457,-3.7134,-3.7239,-3.7395,-3.6615,-3.5926,-3.5526,-3.6238,-3.5998,-3.5639,-3.6537,-3.6477,-3.6387,-3.7464,-3.7434,-3.7135,-3.7135,-3.6626,-3.6088,-3.5878,-3.5669,-3.5519,-3.5519,-3.4771,-3.4113,-3.3873,-3.2736,-3.2078,-3.2736,-3.2437,-3.2168,-3.2168,-3.2377,-3.2318,-3.1869,-3.163,-3.0972,-2.9711,-2.9774,-2.8667,-2.5794,-2.5824,-2.5226,-2.367,-2.3819,-2.3939,-2.3939,-2.3939,-2.3819,-2.361,0.0,0.0,0.0,0.0,0.0,0.0,0.0,0.0,0.0,0.0,0.0,0.0,0.0,0.0,0.0,0.0,0.0,0.0,0.0,0.0,0.0,0.0,0.0,-2.9506,-3.4098,-3.756,-3.7553,-4.2319,-4.4995,-4.3363,-4.4694,-4.5648,-4.5623,-4.6602,-4.6979,-4.6426,-4.6853,-4.7093,-4.7093,-4.6602,-4.6577,-4.7068,-4.6602,-4.6602,-4.7068,-4.7093,-4.7093,-4.7068,-4.7043,-4.6527,-4.5522,-4.5472,-4.4844,-4.3815,-4.3815,-4.3162,-4.2187,-4.158,-4.13,-4.12,-4.0701,-4.0149,-3.9397,-3.7306,-3.7248,-3.8005,-3.7455,-3.7507,-3.7898,-3.8347,-3.8003,-3.7464,-3.7464,-3.7464,-3.7584,-3.8242,-3.8392,-3.8392,-3.8392,-3.7883,-3.7225,-3.6626,-3.5998,-3.5519,-3.5519,-3.5519,-3.528,-3.4653,-3.4533,-3.4324,-3.3664,-3.3544,0.0,-3.3514,-3.2976,-3.2557,-3.2527,-3.1959,-3.1032,-2.9741,-3.0133,-2.9086,-2.5824,-2.6183,-2.5644,-2.3699,-2.4216,-2.4575,-2.4575,-2.4575,-2.4246,-2.361,0.0,0.0,0.0,0.0,0.0,0.0,0.0,0.0,0.0,0.0,0.0,0.0,0.0,0.0,0.0,0.0,0.0,0.0,0.0,0.0,0.0,0.0,-3.5041,-3.5107,-3.881,-4.232,-4.4709,-4.702,-4.8435,-4.8385,-4.8786,-4.8887,-4.8485,-4.8736,-4.8686,-4.8134,-4.7481,-4.7305,-4.7682,-4.6803,-4.6577,-4.7068,-4.6918,-4.6918,-4.7068,-4.7506,-4.7506,-4.7129,-4.6728,-4.6376,-4.6024,-4.5221,-4.4694,-4.4367,-4.3966,-4.3388,-4.2685,-4.2158,-4.1455,-4.0727,-4.0576,-4.044,-4.0314,-4.0141,-4.0292,-4.0534,-4.0826,-4.0713,-4.0321,-3.9964,-3.9379,-3.8871,-3.8871,-3.8512,-3.8272,-3.896,-3.8751,-3.8392,-3.8392,-3.7883,-3.7225,-3.6626,-3.6357,-3.6088,-3.5609,-3.5519,-3.5459,-3.525,-3.522,-3.516,-3.4981,-3.4951,0.0,-3.4294,-3.4053,-3.3754,-3.3275,-3.3066,-3.2228,-3.0402,-2.9983,-2.8637,0.0,-2.5322,-2.4903,-2.4335,-2.4059,-2.3879,-2.3879,-2.3879,-2.3789,0.0,0.0,0.0,0.0,0.0,0.0,0.0,0.0,0.0,0.0,0.0,0.0,0.0,0.0,0.0,0.0,0.0,0.0,0.0,0.0,0.0,0.0,-3.7846,-4.0444,-4.1952,-4.3622,-4.5773,-4.8611,-4.9967,-5.087,-5.1423,-5.1473,-5.1247,-5.0695,-5.0444,-4.9967,-4.9163,-4.8284,-4.7958,-4.8259,-4.7431,-4.7255,-4.7807,-4.7581,-4.7581,-4.7832,-4.8134,-4.8109,-4.7807,-4.723,-4.6853,0.0,-4.5723,-4.507,-4.4593,-4.4267,-4.3689,0.0,0.0,0.0,0.0,0.0,-4.0388,-4.0324,-4.0977,-4.0819,-4.0584,-4.2022,-4.165,-4.0768,-4.1118,-4.0576,-3.9828,-3.9828,-3.9349,-3.8901,-3.932,-3.911,-3.8811,-3.8811,-3.8302,-3.7734,-3.7375,-3.7075,-3.6686,-3.6028,0.0,0.0,-3.4931,-3.4872,-3.5004,-3.5424,-3.5133,-3.4886,0.0,-3.4412,-3.3933,-3.3544,-3.3006,-3.1988,-3.0253,-3.0013,0.0,0.0,0.0,-2.5292,-2.5023,-2.4634,0.0,0.0,0.0,-2.3879,0.0,0.0,0.0,0.0,-2.361,-2.361,0.0,0.0,0.0,0.0,0.0,0.0,0.0,0.0,0.0,0.0,0.0,0.0,0.0,0.0,0.0,0.0,-4.2772,-4.605,-4.8761,-4.8309,-4.841,-5.0368,-5.1498,-5.2327,-5.2879,-5.2929,-5.2729,-5.2226,-5.1624,-5.0845,-4.9841,0.0,0.0,0.0,0.0,-4.8209,-4.8862,-4.8284,-4.8259,-4.8761,-4.8837,-4.8837,-4.8761,-4.8184,-4.7631,-4.7043,-4.6552,-4.5673,-4.4618,-4.4618,-4.394,-4.2886,-4.2811,-4.2484,-4.1986,-4.0827,-4.0124,0.0,0.0,0.0,0.0,-4.1647,-4.1325,-4.0262,-4.1773,-4.1458,-4.0606,-4.0516,-4.0038,-3.9493,-3.9493,-3.9433,-3.9373,-3.9373,-3.896,-3.8482,-3.8392,-3.7943,-3.728,-3.6462,-3.5712,-3.4929,-3.4128,-3.3979,-3.4279,-3.5198,-3.4643,-3.4509,-3.5392,-3.4472,-3.3694,-3.3604,0.0,0.0,-2.9924,-3.0163,-2.9355,-2.6896,-2.6632,-2.6303,-2.5644,-2.5615,-2.5585,-2.5495,-2.4844,-2.4186,-2.361,-2.361,-2.361,-2.361,-2.367,-2.3699,0.0,0.0,0.0,0.0,0.0,0.0,0.0,0.0,0.0,0.0,0.0,0.0,0.0,0.0,0.0,-4.4236,-4.6631,-4.8786,-5.1122,-5.1272,-5.1297,-5.1724,-5.1975,-5.2327,-5.2879,-5.2929,-5.2879,-5.2779,-5.185,-5.1197,-5.0971,-4.9565,0.0,-5.0067,-4.8686,-4.841,-4.9414,-4.8887,-4.8661,-4.8786,0.0,0.0,-4.8761,-4.8184,-4.7631,-4.7043,-4.6552,-4.5673,-4.4618,-4.4618,-4.3714,-4.2338,-4.1831,-4.1605,-4.1354,-4.0249,-3.9798,-3.9802,-4.0418,-4.0455,-4.0368,-4.0885,-4.1434,-4.1767,-4.1134,-4.147,0.0,-4.1354,-4.0726,-4.0217,-4.0217,-3.9828,-3.9373,-3.9373,-3.932,-3.908,-3.8512,-3.8302,-3.7615,-3.5676,-3.581,-3.5739,-3.4259,-3.3979,-3.4075,-3.4245,-3.4806,-3.5294,-3.5457,-3.528,-3.4891,-3.4352,-3.4053,-3.3155,-3.1271,-3.0313,-2.9112,-2.7495,-2.6896,-2.6303,-2.5644,-2.5615,-2.5352,-2.4814,-2.4126,-2.3729,-2.361,-2.361,-2.361,-2.361,-2.4156,-2.4425,0.0,0.0,0.0,0.0,0.0,0.0,0.0,0.0,0.0,0.0,0.0,-3.7062,0.0,0.0,-4.4507,-4.7783,-4.954,-5.0921,-5.2327,-5.2277,-5.2201,-5.2477,-5.2528,-5.2628,-5.2904,-5.2929,-5.2929,-5.2929,-5.2151,-5.1699,-5.1699,-5.0645,-5.0142,-5.0419,-4.9891,-4.9715,-5.0017,-4.9741,-4.959,-4.959,-4.959,-4.9314,-4.8761,-4.8184,-4.7631,-4.7079,-4.625,-4.5422,-4.4568,-4.374,-4.2911,-4.2137,-4.1254,-4.0874,-4.0774,-3.9998,-3.9697,-3.9853,-4.0757,-4.112,-4.1254,-4.2258,-4.2735,-4.2825,-4.2526,-4.2456,-4.2321,-4.1991,-4.1175,-4.0397,-4.0397,-3.9918,-3.9373,-3.9373,-3.9373,-3.9175,-3.8282,-3.8084,-3.7682,-3.6194,-3.5942,-3.5654,-3.4675,-3.4502,-3.4387,-3.4036,-3.4442,-3.4773,-3.4773,-3.4901,-3.4861,-3.4533,-3.3873,-3.2976,-3.16,-3.0342,-2.9022,-2.7675,-2.7615,-2.7141,-2.6153,-2.6093,-2.5794,-2.5113,-2.4425,-2.3939,-2.361,-2.361,-2.3789,-2.4118,-2.4784,-2.4933,0.0,0.0,0.0,0.0,0.0,0.0,0.0,0.0,-3.3497,-3.5619,-3.8741,-4.1867,-4.4317,-4.6327,-4.836,-5.067,-5.1925,-5.2678,-5.2904,-5.2628,-5.2553,-5.2879,-5.2829,-5.2804,-5.2929,-5.2929,-5.2929,-5.2929,-5.2427,-5.2101,-5.2101,-5.1574,-5.1122,-5.0745,-5.1096,-5.1096,-5.0745,-5.0519,-5.0419,-5.0419,-4.9866,-4.9364,-4.8912,-4.8234,-4.7682,-4.7143,-4.5899,-4.5045,-4.4493,-4.2836,-4.2137,-4.1907,-4.0902,-4.045,-4.03,-3.9848,-3.9826,-4.0211,-4.1219,-4.1739,-4.2172,-4.3296,-4.3487,-4.3327,-4.3692,-4.3146,-4.2426,-4.2692,-4.1803,-4.0786,-4.0786,-4.0187,-3.9649,-3.9768,-3.9619,-3.9185,-3.8468,-3.8043,-3.7566,-3.6719,-3.5901,-3.5262,-3.4946,-3.4944,-3.4761,-3.4128,-3.3979,-3.4047,-3.4279,-3.4368,-3.4433,-3.4472,-3.3514,-3.2497,-3.157,-3.0432,-2.9202,-2.7884,-2.8278,-2.8068,-2.6841,-2.6542,-2.6153,-2.5615,-2.4814,-2.4126,-2.361,-2.361,-2.3939,-2.4634,-2.5292,-2.5382,-2.4969,-2.5605,0.0,-2.9141,-2.9531,-3.1224,0.0,0.0,-4.0995,-4.5343,-4.7808,-4.9496,-5.0822,-5.1707,-5.2427,-5.3206,-5.3884,-5.3984,-5.3055,-5.3281,-5.3381,-5.298,-5.2503,-5.2402,-5.2879,-5.2929,-5.2929,-5.2929,-5.2427,-5.2101,-5.2101,-5.1574,-5.1473,-5.19,-5.1498,-5.1498,-5.1925,-5.0921,-5.0419,-5.0419,-4.9866,-4.9565,-4.9464,-4.8385,-4.7883,-4.7707,-4.5623,-4.4694,-4.4493,-4.2836,-4.1856,-4.1326,-4.0752,-4.0224,-3.9772,-3.9722,-4.0415,-4.1419,-4.1541,-4.235,-4.306,-4.1678,-4.1862,-4.2509,-4.2081,-4.2191,-4.2631,-4.3794,-4.315,-4.2171,-4.2171,-4.1235,-4.0427,-4.1025,-4.0277,-3.9553,-4.001,-3.8889,-3.7377,-3.585,-3.5432,-3.5134,-3.4566,-3.4695,-3.4721,-3.4094,-3.3979,-3.4312,-3.5198,-3.4585,-3.4159,-3.4468,-3.4384,-3.3514,-3.166,-3.0793,-2.9864,-2.8577,-2.8547,-2.8248,-2.7525,-2.6333,-2.5674,-2.5615,-2.4358,-2.367,-2.361,-2.361,-2.3939,-2.4634,-2.5292,-2.5884,-2.7532,0.0,0.0,0.0,-3.5231,-3.7738,-4.2698,-4.5369,-4.7448,-4.9884,-5.2165,-5.3833,-5.3984,-5.3934,-5.3959,0.0,-5.3884,-5.3557,-5.3406,-5.303,-5.2452,-5.1574,-5.1272,-5.1599,-5.2804,-5.2929,-5.2929,-5.2929,-5.2703,-5.2578,-5.2578,-5.2377,-5.2201,-5.2101,-5.2201,-5.2051,-5.1624,-5.1147,-5.0745,-5.0419,-4.954,-4.8937,-4.8586,-4.7807,-4.7104,-4.6426,-4.5171,-4.4443,-4.4041,-4.271,-4.1831,-4.1225,-4.0727,-4.0174,-3.9697,-3.9697,-4.0032,-4.0592,-4.1369,-4.2398,-4.3496,-4.3482,-4.3339,-4.3272,-4.4123,-4.3214,-4.2286,-4.3842,-4.3359,-4.241,-4.241,-4.1722,-4.1025,-4.1324,-4.0965,-4.0368,-3.9618,-3.8899,-3.7882,-3.6198,-3.5852,-3.562,-3.5013,-3.5215,-3.5267,-3.4634,-3.4709,-3.4639,-3.3905,-3.4442,-3.4801,-3.453,-3.4174,-3.3425,-3.2168,-3.1451,-3.0702,-2.9774,-2.9385,-2.8876,-2.8188,-2.726,-2.6393,-2.5615,-2.5046,-2.4545,-2.4186,-2.4186,-2.4747,-2.5764,-2.6063,-2.6542,-2.9379,0.0,0.0,-3.7548,-4.1023,-4.4224,-4.7328,-5.0223,-5.2647,-5.396,-5.541,-5.6319,-5.5917,-5.5139,0.0,-5.4561,-5.4034,-5.3632,-5.3683,-5.2779,-5.1674,-5.0544,-4.9891,-5.0117,-5.1624,-5.2051,-5.2377,-5.2678,-5.2703,-5.2754,-5.2929,-5.2929,-5.2754,-5.2352,-5.2729,-5.2477,-5.1523,-5.1348,-5.0996,-5.0393,-4.9289,-4.856,-4.8134,-4.7431,-4.6627,-4.5673,-4.4945,-4.4392,-4.3915,-4.2509,-4.1681,-4.1225,-4.0576,-4.0049,-3.9697,-3.9697,-3.9929,-4.0415,-4.169,-4.2978,-4.4135,-4.4869,-4.4416,-4.3872,-4.5316,-4.3949,-4.2209,-4.4057,-4.3778,-4.289,-4.2671,-4.2132,-4.1722,-4.1863,-4.1654,-4.0999,-3.9605,-3.8903,-3.8156,-3.6758,-3.598,-3.5575,-3.557,-3.5412,-3.5096,-3.4478,-3.4906,-3.4878,-3.3561,-3.4639,-3.531,-3.4833,-3.4173,-3.3484,-3.2826,-3.2318,-3.16,-3.0582,-3.0073,-2.9475,-2.8637,-2.7794,-2.6866,-2.5884,-2.5704,-2.5352,-2.4874,-2.4874,-2.5585,-2.6896,-2.6716,-2.7076,0.0,0.0,-3.7166,-4.2059,-4.5826,-4.9531,-5.3813,-5.5249,-5.6317,-5.8821,-5.8026,-5.6997,-5.6972,-5.5666,-5.4561,-5.4561,-5.4988,-5.4938,-5.3858,-5.2779,-5.1674,-5.0544,-4.8535,-4.7682,0.0,-4.9866,-5.0946,-5.2051,-5.2126,-5.2352,-5.2904,-5.2929,-5.2929,-5.2904,-5.2929,-5.2653,-5.2076,-5.1548,-5.0996,-5.0393,-4.9289,-4.8761,-4.8711,-4.7631,-4.6828,-4.6225,-4.5095,-4.4618,-4.4443,-4.2203,-4.13,-4.1175,-4.0149,-3.9697,-3.9697,-3.9697,-4.0465,-4.1739,-4.2978,-4.4256,-4.5257,-4.4653,-4.4026,-4.3621,-4.4253,-4.3528,-4.2859,-4.4765,-4.4766,-4.4107,-4.3439,-4.2821,-4.253,-4.308,-4.2312,-4.1267,-4.0665,-3.9237,-3.7841,-3.7193,-3.5368,-3.447,-3.5936,-3.4847,-3.3635,-3.3132,-3.414,-3.5067,-3.5383,-3.5457,-3.5489,-3.5459,-3.4861,-3.4204,-3.3514,-3.3455,-3.2587,-3.0612,-3.0492,-2.9924,-2.8637,-2.732,-2.6602,-2.6572,-2.5944,-2.5585,-2.5561,-2.5561,-2.6243,-2.7555,-2.6896,-2.729,0.0,0.0,-4.2736,-4.8096,-5.1787,-5.5039,-5.8802,-5.9816,-5.9876,-5.9528,-5.7298,-5.4938,-5.3482,-5.185,-5.0946,-5.1699,-5.2603,-5.3331,-5.3658,-5.3105,-5.1674,-4.9063,-4.8083,0.0,0.0,0.0,0.0,-5.087,-5.1348,-5.18,-5.2352,-5.2729,-5.2929,-5.2929,-5.2929,-5.2477,-5.1574,-5.1373,-5.0795,-4.9866,-4.8736,-4.8033,-4.7657,-4.6928,-4.6476,-4.625,-4.5121,-4.4618,-4.4518,-4.3037,-4.2007,-4.1358,-4.18,-4.1594,-4.0995,-4.0995,-4.1219,-4.1789,-4.3074,-4.3787,-4.4368,-4.5858,-4.5359,-4.4333,-4.4879,-4.3913,-4.2765,-4.3776,-4.382,-4.3559,-4.3349,-4.314,-4.306,-4.323,-4.2385,-4.1372,-4.0735,-3.9562,-3.8087,-3.6354,-3.5437,-3.5025,-3.5182,-3.4954,-3.4651,-3.4379,-3.378,-3.3893,-3.5323,-3.5519,-3.5519,-3.5519,-3.4891,-3.4414,-3.4173,-3.3335,-3.2557,-3.1869,-3.1001,-3.0313,-2.9894,-2.8607,-2.7709,-2.7285,-2.6626,-2.6243,-2.6243,-2.6243,-2.6961,-2.8248,-2.7585,-2.7764,-3.7506,-4.2517,-4.7671,-5.3278,-5.6651,-5.9263,-6.1501,-6.1692,-6.0763,-5.8504,-5.5239,-5.2126,-4.9916,-4.7807,-4.6903,-4.841,-4.9264,-5.0393,-5.2277,-5.1574,-5.0268,-4.8686,-4.7807,0.0,0.0,0.0,0.0,-5.0293,-5.1147,-5.1825,-5.2377,-5.2729,-5.2929,-5.2929,-5.2929,-5.2402,-5.1297,-5.1272,-5.0619,-4.9289,-4.836,-4.7631,-4.7043,-4.6552,-4.6301,-4.625,-4.5121,-4.4618,-4.4518,-4.3011,-4.2229,-4.2053,-4.2474,-4.2502,-4.2252,-4.2252,-4.2252,-4.2398,-4.3218,-4.3504,-4.3901,-4.6167,-4.6035,-4.4873,-4.48,-4.4079,-4.32,-4.3142,-4.3395,-4.3589,-4.3349,-4.329,-4.329,-4.329,-4.2739,-4.1872,-4.0614,-3.9746,-3.8617,-3.6485,-3.5609,-3.5167,-3.4989,-3.4875,-3.4766,-3.478,-3.403,-3.3823,-3.4835,-3.5294,-3.5519,-3.5519,-3.51,-3.4773,-3.4533,-3.3933,-3.3275,-3.2557,-3.1689,-3.1001,-3.0522,-2.9505,-2.8727,-2.8334,-2.7675,-2.732,-2.732,-2.7051,-2.7675,-2.8936,-2.8274,-2.8334,-4.3317,-4.7943,-5.1883,-5.74,-6.0362,-6.1918,-6.1918,-6.0914,-5.9056,-5.5767,-5.19,-4.846,0.0,0.0,-4.2791,-4.4995,-4.5547,-4.6828,-5.0092,-4.8761,-4.8008,0.0,0.0,0.0,0.0,0.0,0.0,-5.0343,0.0,-5.2327,-5.2854,-5.2929,-5.2955,-5.2929,-5.2929,-5.2402,-5.1322,-5.1272,-5.0419,-4.8812,-4.8209,-4.7657,-4.7093,-4.6577,-4.6301,-4.62,-4.5095,-4.4618,-4.4533,-4.2338,-4.2182,-4.3124,-4.2219,-4.255,-4.3504,-4.3551,-4.3598,-4.3598,-4.3598,-4.3598,-4.3892,-4.5726,-4.5932,-4.5277,-4.4036,-4.4021,-4.4194,-4.2926,-4.3407,-4.4107,-4.3469,-4.329,-4.329,-4.329,-4.325,-4.2618,-4.0447,-3.9885,-3.9284,-3.7457,-3.584,-3.4876,-3.5388,-3.4586,-3.4045,-3.4424,-3.4795,-3.4761,-3.4099,-3.4872,-3.5519,-3.5519,-3.5519,-3.525,-3.4623,-3.51,-3.4622,-3.2677,-3.2497,-3.1928,-3.0612,-2.9953,-2.9651,-2.9651,-2.8996,-2.8637,-2.8607,-2.7974,-2.8334,-2.9592,-2.8906,-2.8966,-4.6464,-5.1452,-5.5978,-5.913,-6.0337,-6.0738,-6.0738,-5.7976,-5.4561,-5.1674,-4.6677,-4.2158,0.0,0.0,0.0,-4.3187,-4.6401,0.0,-5.1925,-5.2126,0.0,0.0,0.0,-4.9163,-4.8611,-4.9289,0.0,0.0,-5.1699,-5.2176,-5.2302,-5.308,-5.3331,-5.2929,-5.2929,-5.2603,-5.19,-5.1046,-5.0218,-4.9364,-4.8385,-4.7832,-4.7682,-4.6728,-4.6075,-4.5648,-4.4945,-4.4999,-4.5497,-4.4455,-4.3808,-4.3486,-4.5163,-4.4833,-4.3598,-4.4581,-4.4932,-4.4932,-4.4932,-4.4932,-4.5132,-4.6592,-4.6943,-4.6491,-4.4733,-4.4603,-4.4706,-4.2938,-4.2972,-4.3499,-4.3349,-4.329,-4.329,-4.329,-4.2629,-4.1864,-4.1295,-3.977,-3.8282,-3.7413,-3.6184,-3.5191,-3.4952,-3.5292,-3.5593,-3.554,-3.5619,-3.5273,-3.4122,-3.4872,-3.5519,-3.5519,-3.5519,-3.5429,-3.525,-3.4921,-3.4322,-3.3305,-3.2796,-3.2108,-3.1271,-3.0642,-3.0283,-3.0283,-2.9654,-2.9086,-2.8607,-2.8427,-2.8757,-2.9592,-2.8906,-2.9205,-5.0346,-5.4437,-5.7876,-5.9834,-6.0136,-5.9458,-5.7524,-5.4386,-5.0569,-4.5849,-4.1404,0.0,0.0,0.0,0.0,0.0,0.0,0.0,-5.0946,-5.1498,-5.1523,0.0,-5.1297,0.0,-5.0293,-5.1021,-5.1649,0.0,-5.2302,-5.2477,-5.2477,-5.303,-5.3231,-5.2929,-5.2929,-5.2553,-5.1749,-5.087,-5.0142,-4.959,-4.8435,-4.7908,-4.7857,-4.6552,-4.5773,-4.5447,0.0,-4.4523,-4.4982,-4.4753,-4.4439,-4.4323,-4.6138,-4.616,-4.5252,-4.5958,-4.6211,-4.6211,-4.6211,-4.6211,-4.6344,-4.7062,-4.7309,-4.6883,-4.4705,-4.4656,-4.4858,-4.2647,-4.265,-4.329,-4.329,-4.329,-4.329,-4.329,-4.282,-4.2193,-4.1711,-4.0161,-3.8443,-3.6812,-3.5967,-3.5574,-3.5719,-3.6224,-3.6526,-3.6401,-3.6503,-3.6056,-3.4594,-3.5049,-3.5519,-3.5519,-3.5519,-3.5519,-3.5519,-3.516,-3.4651,-3.3963,-3.3574,-3.2946,-3.1959,-3.157,-3.124,-3.0943,-3.0313,-2.9804,-2.9445,-2.9175,-2.9355,-2.9983,-2.9594,-2.9834,-5.4052,-5.6671,-5.8252,-5.9734,-5.9458,-5.775,-5.3557,-5.0419,-4.6476,-3.9722,0.0,0.0,-3.2139,0.0,-3.4123,-3.7663,0.0,-4.3564,-4.9038,-4.954,-5.0243,-5.2729,-5.2678,-5.2402,-5.2327,-5.2754,-5.3005,-5.2929,-5.2929,-5.2929,-5.2929,-5.3005,-5.3005,-5.2929,-5.2854,-5.2327,-5.1297,-5.072,-5.0142,-4.959,-4.8435,-4.7908,-4.7857,-4.6541,-4.5876,-4.5691,0.0,0.0,-4.4622,-4.4383,-4.4821,-4.5601,-4.6262,-4.6794,-4.7181,-4.7296,-4.7309,-4.7309,-4.7309,-4.7309,-4.7309,-4.7309,-4.7309,-4.6897,-4.4646,-4.4579,-4.4798,-4.2578,-4.2607,-4.329,-4.329,-4.329,-4.329,-4.329,-4.329,-4.3021,-4.2029,-4.0916,-3.9328,-3.6521,-3.5851,-3.6032,-3.6934,-3.711,-3.7056,-3.6991,-3.7293,-3.701,-3.5508,-3.5503,-3.5609,-3.5519,-3.5579,-3.5609,-3.5519,-3.5519,-3.522,-3.4563,-3.4503,-3.3933,-3.2706,-3.2557,-3.2228,-3.166,-3.0972,-3.0582,-3.0492,-2.9953,-2.9983,-3.0492,-3.0492,-3.0552,-5.5168,-5.6972,-5.8077,-5.8805,-5.7198,-5.4612,-5.1548,-4.6301,0.0,0.0,0.0,-3.0532,-2.9654,-3.106,0.0,-3.8642,0.0,0.0,0.0,0.0,-5.2553,0.0,0.0,0.0,0.0,0.0,0.0,0.0,0.0,0.0,-5.2929,-5.3331,-5.3381,-5.2929,-5.2477,-5.195,-5.1297,-5.072,-5.0142,-4.959,-4.8435,-4.7908,-4.792,-4.7947,-4.7733,-4.7262,0.0,0.0,-4.8888,-4.6007,-4.5983,-4.7692,-4.7252,-4.6835,-4.6596,-4.7109,-4.7309,-4.7309,-4.7309,-4.7309,-4.7309,-4.7309,-4.7309,-4.7116,-4.6126,-4.5555,-4.5083,-4.4102,-4.3558,-4.329,-4.329,-4.329,-4.329,-4.329,-4.329,-4.325,-4.3021,-4.2111,-4.0717,-3.8757,-3.7634,-3.7042,-3.7167,-3.7151,-3.7056,-3.6851,-3.7641,-3.7938,-3.7109,-3.6585,-3.6118,-3.5579,-3.5998,-3.6088,-3.5549,-3.5519,-3.522,-3.4563,-3.4503,-3.4174,-3.3365,-3.2796,-3.2437,-3.2318,-3.166,-3.1032,-3.0492,-3.0402,-3.0402,-3.0492,-3.0492,-3.0821,-5.5892,-5.7047,-5.7575,-5.8152,-5.5541,-5.1749,-4.7506,0.0,0.0,0.0,0.0,-2.875,-2.8172,0.0,0.0,0.0,0.0,0.0,0.0,0.0,0.0,0.0,0.0,0.0,0.0,0.0,0.0,0.0,0.0,0.0,-5.2929,-5.3155,-5.3181,-5.2929,-5.2678,-5.2126,-5.1297,-5.0996,-5.0444,-4.959,-4.8761,-4.8209,-4.792,-4.8321,-4.8215,-4.7665,-4.7593,0.0,-4.9013,-4.7703,-4.7622,-4.8278,-4.8635,-4.8416,-4.789,-4.7851,-4.7818,-4.7758,-4.7429,-4.7309,-4.7309,-4.7309,-4.7309,-4.7189,-4.6531,-4.5843,-4.5155,-4.4496,-4.3838,-4.329,-4.329,-4.329,-4.329,-4.329,-4.329,-4.317,-4.2548,-4.1988,-4.1167,-3.9756,-3.9011,-3.8737,-3.8958,-3.8658,-3.8439,-3.8655,-3.8525,-3.8272,-3.7973,-3.7375,-3.6716,-3.6088,-3.5998,-3.5848,-3.5519,-3.5519,-3.537,-3.504,-3.5011,-3.4711,-3.4023,-3.3694,-3.3215,-3.2497,-3.2168,-3.169,-3.1002,-3.1002,-3.1002,-3.1002,-3.1002,-3.1182,-5.5641,-5.6495,-5.6721,-5.6947,-5.3758,-4.9163,-4.384,-3.9019,0.0,0.0,-2.7921,-2.7645,-2.7379,0.0,0.0,0.0,0.0,0.0,0.0,0.0,0.0,0.0,0.0,0.0,0.0,0.0,0.0,0.0,0.0,0.0,0.0,-5.2929,-5.2929,-5.2929,-5.2804,-5.2277,-5.1297,-5.1147,-5.0594,-4.959,-4.8912,-4.8523,-4.839,-4.8825,-4.8816,-4.8647,-4.8722,0.0,0.0,-4.8795,-4.8824,-4.8923,-4.9545,-4.9683,-4.9374,-4.8566,-4.8297,-4.8177,-4.7549,-4.7309,-4.7309,-4.7309,-4.7309,-4.7189,-4.6531,-4.5933,-4.5334,-4.4556,-4.3917,-4.3469,-4.3319,-4.329,-4.3319,-4.3469,-4.3379,-4.312,-4.2327,-4.2075,-4.1699,-4.0788,-4.0404,-4.0421,-4.0903,-4.0314,-3.9934,-4.0368,-3.9499,-3.8781,-3.8631,-3.8033,-3.7434,-3.6956,-3.6178,-3.5669,-3.5519,-3.5519,-3.5519,-3.5519,-3.5519,-3.525,-3.4743,-3.4593,-3.3993,-3.2946,-3.2796,-3.2378,-3.172,-3.172,-3.163,-3.1511,-3.1511,-3.1511,-5.3532,-5.4762,-5.5315,-5.4336,-5.1122,-4.7029,-4.2454,0.0,0.0,0.0,-2.7354,-2.6776,-2.7228,-2.7494,0.0,0.0,0.0,0.0,0.0,0.0,0.0,0.0,0.0,0.0,0.0,0.0,0.0,0.0,0.0,0.0,0.0,-5.2929,-5.2929,-5.2929,-5.2452,-5.19,-5.1297,-5.077,-5.0193,-4.959,-4.851,-4.8676,-4.9981,-5.0306,-5.0873,-5.1566,0.0,0.0,0.0,-4.8544,-4.8709,-5.0768,-4.9047,-4.9098,-4.9956,-4.8745,-4.8297,-4.8177,-4.7549,-4.7309,-4.7309,-4.7309,-4.7309,-4.7189,-4.6531,-4.6249,-4.5963,-4.4676,-4.4257,-4.4077,-4.3439,-4.329,-4.3439,-4.4077,-4.3738,-4.3469,-4.3956,-4.3588,-4.313,-4.2981,-4.2152,-4.1621,-4.2119,-4.128,-4.0495,-4.0427,-4.0307,-4.0008,-3.9409,-3.8721,-3.8272,-3.8212,-3.7135,-3.6148,-3.5549,-3.5519,-3.5519,-3.5519,-3.5519,-3.5489,-3.54,-3.4801,-3.4444,-3.4324,-3.3694,-3.3095,-3.2407,-3.2407,-3.2079,-3.1511,-3.1511,-3.1511,-5.1925,-5.3783,-5.4687,-5.3909,-4.9791,-4.5045,-4.163,0.0,0.0,-2.8574,-2.7253,-2.6575,-2.6776,-2.7102,-2.7896,0.0,0.0,0.0,0.0,0.0,0.0,0.0,0.0,0.0,0.0,0.0,0.0,0.0,0.0,0.0,0.0,-5.2929,-5.2929,-5.2929,-5.2402,-5.185,-5.1297,-5.072,-4.9967,-4.9088,-4.8636,-4.837,-4.8419,-5.0378,-5.1211,-5.1251,0.0,0.0,0.0,-5.0457,-5.0191,-5.1152,-5.0307,-5.0312,-5.0661,-4.9344,-4.891,-4.876,-4.7668,-4.7309,-4.7309,-4.7309,-4.7309,-4.7249,-4.698,-4.6651,-4.616,-4.5622,-4.5214,-4.4766,-4.4107,-4.3589,-4.3349,-4.3618,-4.3469,-4.3349,-4.3618,-4.3469,-4.329,-4.329,-4.2941,-4.2691,-4.2891,-4.2228,-4.1548,-4.1077,-4.0666,-4.0157,-3.9499,-3.8811,-3.8392,-3.8392,-3.7255,-3.6387,-3.6118,-3.5729,-3.5519,-3.5519,-3.5519,-3.5519,-3.5519,-3.525,-3.4891,-3.4503,-3.4264,-3.3754,-3.3095,-3.3095,-3.2766,-3.2079,-3.2079,-3.2079,-4.9012,-5.1348,-5.2678,-5.195,-4.7682,-4.2886,0.0,0.0,0.0,-2.8172,-2.6866,-2.6097,-2.6424,-2.6675,-2.7017,0.0,0.0,0.0,0.0,0.0,0.0,0.0,0.0,0.0,0.0,0.0,0.0,0.0,0.0,0.0,0.0,-5.2779,-5.2678,-5.2678,-5.2302,-5.1749,-5.1021,-5.0876,-5.0372,-4.9467,-4.9135,-4.8794,-4.848,-5.0438,-5.1155,0.0,0.0,0.0,0.0,-5.1588,-5.1063,-5.0883,-5.0883,-5.081,-5.0511,-4.9404,-4.903,-4.885,-4.7698,-4.7309,-4.7309,-4.7309,-4.7309,-4.7309,-4.7309,-4.698,-4.6488,-4.6142,-4.5514,-4.4945,-4.4676,-4.3917,-4.3379,-4.3798,-4.3589,-4.3349,-4.3529,-4.3439,-4.329,-4.329,-4.329,-4.329,-4.329,-4.2791,-4.2171,-4.1512,-4.0816,-4.0157,-3.9499,-3.899,-3.8691,-3.8691,-3.7704,-3.6956,-3.6776,-3.6178,-3.5789,-3.5789,-3.5609,-3.5519,-3.5519,-3.5519,-3.528,-3.4771,-3.4771,-3.4474,-3.3784,-3.3784,-3.3455,-3.2796,-3.2796,-3.2796,-4.4242,-4.6728,-4.856,-4.7481,-4.4209,-4.0501,0.0,0.0,0.0,-2.7519,-2.5988,-2.5159,-2.6298,-2.6021,-2.5988,-2.7118,0.0,0.0,0.0,0.0,0.0,0.0,0.0,0.0,0.0,0.0,0.0,0.0,0.0,0.0,0.0,0.0,-5.2126,-5.2126,-5.2101,-5.1574,-5.0444,-5.1327,-5.1513,-5.0996,-4.9811,-5.0108,-5.1511,-5.0933,0.0,0.0,0.0,0.0,0.0,-5.1229,-5.0794,-5.0196,-5.0196,-4.9853,-4.9239,-4.8536,-4.8297,-4.8207,-4.7549,-4.7309,-4.7309,-4.7309,-4.7309,-4.7309,-4.7309,-4.7309,-4.701,-4.5693,-4.4825,-4.4466,-4.5125,-4.4317,-4.3618,-4.4975,-4.4287,-4.3469,-4.4167,-4.3738,-4.329,-4.329,-4.329,-4.329,-4.329,-4.2791,-4.2171,-4.1512,-4.0816,-4.0157,-3.9499,-3.9373,-3.9373,-3.9373,-3.8781,-3.8093,-3.7464,-3.6836,-3.6477,-3.6477,-3.5878,-3.5519,-3.5519,-3.5519,-3.5519,-3.5489,-3.5489,-3.516,-3.4503,-3.4503,-3.4174,-3.3484,-3.3484,-3.3484,-3.9094,-4.1304,-4.2861,-4.1756,-3.9421,-3.6762,-3.4625,0.0,-2.8047,-2.6977,-2.5711,-2.4901,-2.5285,-2.5184,-2.5812,-2.8047,-2.8662,0.0,0.0,0.0,0.0,0.0,0.0,0.0,0.0,0.0,0.0,0.0,0.0,0.0,0.0,0.0,-5.2615,-5.3737,-5.192,-5.1562,-5.2968,-5.0857,-4.9796,-4.9844,-4.8481,-4.7675,-4.749,-4.9193,0.0,0.0,0.0,0.0,0.0,-5.0883,-5.0644,-5.081,-4.9912,-5.0002,-5.0421,-4.8865,-4.8835,-4.9404,-4.7848,-4.7608,-4.7908,-4.7459,-4.7309,-4.7309,-4.7309,-4.7309,-4.7219,-4.68,-4.6202,-4.5723,-4.5933,-4.5005,-4.4107,-4.4526,-4.4317,-4.3928,-4.3648,-4.3798,-4.3828,-4.3379,-4.329,-4.329,-4.329,-4.311,-4.2641,-4.1534,-4.1205,-4.0666,-3.9559,-3.9373,-3.9373,-3.9373,-3.923,-3.8811,-3.8153,-3.7494,-3.6926,-3.6507,-3.6297,-3.5968,-3.5519,-3.5519,-3.5519,-3.5519,-3.5519,-3.54,-3.519,-3.519,-3.4831,-3.4173,-3.4173,-3.3933,0.0,-3.6784,-3.8366,-3.7262,-3.5479,0.0,0.0,0.0,-2.6666,-2.5988,-2.4958,-2.4274,-2.47,-2.4625,-2.5209,-2.7318,0.0,0.0,0.0,0.0,0.0,0.0,0.0,0.0,0.0,0.0,0.0,0.0,0.0,0.0,0.0,0.0,-5.1889,-5.3497,-5.1884,-5.1235,-5.185,-5.0532,-4.9591,-4.8975,-4.7844,-4.7159,-4.6834,0.0,0.0,0.0,0.0,0.0,0.0,-5.0644,-5.0331,-5.0391,-4.9314,-4.9254,-4.9583,-4.8356,-4.8416,-4.891,-4.7728,-4.7578,-4.7848,-4.7429,-4.7309,-4.7309,-4.7309,-4.7309,-4.7309,-4.7309,-4.683,-4.6339,-4.6621,-4.5514,-4.4377,-4.4616,-4.4317,-4.3798,-4.3379,-4.3618,-4.3798,-4.3379,-4.329,-4.329,-4.329,-4.2871,-4.2312,-4.1504,-4.0965,-4.0337,-3.9493,-3.9373,-3.9373,-3.9373,-3.9373,-3.926,-3.8811,-3.8153,-3.7614,-3.7225,-3.6746,-3.6297,-3.5878,-3.5639,-3.5519,-3.5519,-3.5519,-3.5519,-3.5519,-3.5519,-3.528,-3.4861,-3.4623,-3.4414,0.0,0.0,0.0,0.0,0.0,0.0,0.0,0.0,0.0,-2.475,-2.3873,-2.3446,-2.4575,-2.4381,-2.4431,0.0,0.0,0.0,0.0,0.0,0.0,0.0,0.0,0.0,0.0,0.0,0.0,0.0,0.0,0.0,0.0,0.0,0.0,-5.1566,-5.1663,-5.0575,-4.8154,-5.0264,-5.0419,-4.8515,-4.8042,-4.8158,-4.8834,0.0,0.0,0.0,0.0,0.0,0.0,-5.0345,-4.9763,-4.9239,-4.8506,-4.7908,-4.7429,-4.7339,-4.7369,-4.7429,-4.7339,-4.7339,-4.7369,-4.7222,-4.7222,-4.7266,-4.7222,-4.7222,-4.7309,-4.7309,-4.686,-4.6488,-4.716,-4.5843,-4.4526,-4.5155,-4.4317,-4.3349,-4.329,-4.3319,-4.3349,-4.329,-4.329,-4.329,-4.329,-4.2312,-4.1504,-4.1482,-4.0397,-3.9589,-3.9463,-3.9463,-3.9433,-3.9439,-3.9373,-3.9373,-3.9373,-3.8841,-3.8422,-3.8332,-3.7195,-3.6507,-3.6417,-3.5818,-3.5519,-3.5519,-3.5519,-3.5519,-3.5519,-3.5519,-3.5519,-3.5489,-3.4861,-3.4891,-2.5636,0.0,-2.8423,-2.772,0.0,0.0,0.0,0.0,-2.4675,-2.428,0.0,0.0,-2.4575,0.0,0.0,0.0,0.0,0.0,0.0,0.0,0.0,0.0,0.0,0.0,0.0,0.0,0.0,0.0,0.0,0.0,0.0,0.0,0.0,-4.7688,-4.9733,-5.0667,-5.0224,-4.9519,-4.9042,-4.8791,-4.8627,-4.8406,-4.8147,0.0,0.0,0.0,0.0,0.0,-5.0345,-4.9224,-4.8955,-4.9209,-4.7997,-4.8057,-4.873,-4.7668,-4.7938,-4.8656,-4.7668,-4.7638,-4.7835,-4.6312,-4.6506,-4.7106,-4.6166,-4.655,-4.7309,-4.7309,-4.7189,-4.71,-4.7279,-4.6202,-4.5095,-4.5244,-4.4676,-4.3917,-4.3409,-4.3678,-4.3888,-4.3379,-4.329,-4.329,-4.329,-4.305,-4.2701,-4.2231,-4.1901,-4.1294,-4.0307,-4.0157,-3.9978,-3.9433,-3.9373,-3.9373,-3.9373,-3.926,-3.8751,-3.7704,-3.7345,-3.6746,-3.5789,-3.5579,-3.5519,-3.5519,-3.5519,-3.5519,-3.5519,-3.5519,-3.5519,-3.5519,-3.534,-3.534,-2.4381,-2.5385,-2.6348,-2.5737,-2.5586,-2.5511,-2.5234,0.0,0.0,0.0,0.0,0.0,0.0,0.0,0.0,0.0,0.0,0.0,0.0,0.0,0.0,0.0,0.0,0.0,0.0,0.0,0.0,0.0,0.0,0.0,0.0,0.0,0.0,0.0,-4.8758,-4.92,-4.8978,-4.9364,-4.9226,-4.8422,-4.8121,-4.7993,-4.8044,-4.8538,0.0,0.0,0.0,0.0,-4.9703,-4.8716,-4.8506,-4.876,-4.7698,-4.7728,-4.8267,-4.7578,-4.7758,-4.8267,-4.7549,-4.7549,-4.767,-4.6594,-4.6726,-4.7149,-4.6506,-4.6726,-4.7309,-4.7309,-4.7309,-4.7309,-4.7309,-4.6531,-4.5693,-4.5364,-4.4796,-4.4137,-4.3439,-4.3589,-4.3708,-4.3349,-4.329,-4.329,-4.329,-4.309,-4.2761,-4.244,-4.2141,-4.1572,-4.0516,-4.0397,-4.0157,-3.9463,-3.9373,-3.9373,-3.9373,-3.9373,-3.896,-3.7913,-3.7584,-3.7105,-3.6417,-3.5818,-3.5519,-3.5519,-3.5519,-3.5519,-3.5519,-3.5519,-3.5519,-3.5519,-3.5519,-3.5519,-2.4525,-2.5561,-2.6348,-2.5636,-2.5536,-2.5586,-2.5485,0.0,0.0,0.0,0.0,0.0,0.0,0.0,0.0,0.0,0.0,0.0,0.0,0.0,0.0,0.0,0.0,0.0,0.0,0.0,0.0,0.0,0.0,0.0,0.0,0.0,0.0,0.0,-4.8285,-4.7478,-4.6757,-4.9262,-4.9626,-4.7799,-4.7503,-4.7702,-4.8354,-4.7785,0.0,0.0,0.0,0.0,-4.912,-4.8416,-4.8147,-4.8087,-4.7519,-4.7309,-4.7309,-4.7309,-4.7309,-4.7309,-4.7309,-4.7309,-4.7266,-4.7062,-4.7149,-4.7266,-4.7062,-4.7149,-4.7309,-4.7309,-4.7249,-4.716,-4.716,-4.6651,-4.6022,-4.5424,-4.4796,-4.4127,-4.3559,-4.3349,-4.329,-4.329,-4.329,-4.329,-4.329,-4.288,-4.256,-4.256,-4.2043,-4.1414,-4.0636,-4.0546,-4.0277,-3.9463,-3.9373,-3.9373,-3.9373,-3.932,-3.896,-3.8272,-3.7823,-3.7464,-3.7285,-3.6148,-3.5519,-3.5519,-3.5519,-3.5519,-3.5519,-3.5519,-3.5519,-3.5519,-3.5519,-3.5519,-2.3979,-2.5292,-2.6248,-2.5184,-2.5259,-2.5485,-2.5034,0.0,0.0,0.0,0.0,0.0,0.0,0.0,0.0,0.0,0.0,0.0,0.0,0.0,0.0,0.0,0.0,0.0,0.0,0.0,0.0,0.0,0.0,0.0,0.0,0.0,0.0,0.0,0.0,-4.7685,-4.7113,-4.8044,-4.8084,-4.7309,-4.8419,-4.9008,-4.9102,-4.9012,-4.9119,0.0,0.0,-4.8446,-4.8386,-4.7728,-4.7459,-4.7429,-4.7339,-4.7309,-4.7309,-4.7309,-4.7309,-4.7309,-4.7309,-4.7309,-4.7106,-4.6032,-4.6388,-4.7106,-4.6032,-4.6432,-4.7309,-4.7309,-4.689,-4.6429,-4.6429,-4.5963,-4.5424,-4.5304,-4.4796,-4.4287,-4.4197,-4.3678,-4.329,-4.329,-4.329,-4.329,-4.329,-4.32,-4.314,-4.314,-4.305,-4.2581,-4.1384,-4.1235,-4.0756,-3.9523,-3.9373,-3.9373,-3.9373,-3.8871,-3.8272,-3.7614,-3.7973,-3.7764,-3.6656,-3.5908,-3.5519,-3.5519,-3.5519,-3.5519,-3.5519,-3.5519,-3.5519,-3.5519,-3.5519,-3.5519,-2.3025,-2.4079,-2.5008,-2.4506,-2.546,-2.6364,-2.5837,0.0,0.0,0.0,0.0,0.0,0.0,0.0,0.0,0.0,0.0,0.0,0.0,0.0,0.0,0.0,0.0,0.0,0.0,0.0,0.0,0.0,0.0,0.0,0.0,0.0,0.0,0.0,0.0,0.0,-4.7799,-4.7695,-4.7871,-4.8374,-4.8596,-4.8745,-4.876,-4.8356,-4.8207,-4.8177,0.0,-4.7758,-4.7728,-4.7429,-4.7309,-4.7309,-4.7309,-4.7309,-4.7309,-4.7309,-4.7309,-4.7309,-4.7309,-4.7309,-4.7222,-4.6638,-4.6814,-4.7222,-4.6594,-4.6844,-4.7219,-4.686,-4.68,-4.686,-4.686,-4.6352,-4.5753,-4.5394,-4.4796,-4.4227,-4.3828,-4.3499,-4.329,-4.329,-4.329,-4.329,-4.329,-4.329,-4.329,-4.329,-4.329,-4.3,-4.2081,-4.1632,-4.1025,-4.0038,-3.9619,-3.9373,-3.9373,-3.914,-3.8512,-3.7464,-3.7375,-3.7105,-3.6507,-3.6178,-3.5878,-3.5519,-3.5519,-3.5519,-3.5519,-3.5519,-3.5519,-3.5519,-3.5519,-3.5519,-2.2443,-2.3125,-2.3803,-2.3803,0.0,-2.6927,-2.6876,0.0,0.0,0.0,0.0,0.0,0.0,0.0,0.0,0.0,0.0,0.0,0.0,0.0,0.0,0.0,0.0,0.0,0.0,0.0,0.0,0.0,0.0,0.0,0.0,0.0,0.0,0.0,0.0,0.0,-4.8057,-4.7549,-4.7818,-4.885,-4.8297,-4.8057,-4.8027,-4.7549,-4.7309,-4.7309,-4.7309,-4.7309,-4.7309,-4.7309,-4.7309,-4.7309,-4.7309,-4.7309,-4.7309,-4.7309,-4.7309,-4.7309,-4.7309,-4.7309,-4.7309,-4.7309,-4.7309,-4.7309,-4.7309,-4.7189,-4.701,-4.6651,-4.6681,-4.683,-4.683,-4.6471,-4.5963,-4.5424,-4.4796,-4.4167,-4.3648,-4.3409,-4.329,-4.329,-4.329,-4.329,-4.329,-4.329,-4.329,-4.329,-4.329,-4.306,-4.2261,-4.1722,-4.1055,-4.0247,-3.9738,-3.9349,-3.92,-3.917,-3.8751,-3.7704,-3.7195,-3.6866,-3.6716,-3.6567,-3.6178,-3.5519,-3.5519,-3.5519,-3.5519,-3.5519,-3.5519,-3.5519,-3.5519,-3.5519,-2.292,-2.3095,-2.317,-2.317,-2.4456,0.0,-2.7645,-2.7921,0.0,-2.9327,0.0,0.0,0.0,0.0,0.0,0.0,0.0,0.0,0.0,0.0,0.0,0.0,0.0,0.0,0.0,0.0,0.0,0.0,0.0,0.0,0.0,0.0,0.0,0.0,0.0,0.0,-4.7369,-4.7339,-4.7369,-4.7429,-4.7399,-4.7369,-4.7369,-4.7339,-4.7309,-4.7309,-4.7309,-4.7309,-4.7309,-4.7309,-4.7309,-4.7309,-4.7309,-4.7309,-4.7309,-4.7309,-4.7309,-4.7309,-4.7309,-4.7309,-4.7309,-4.7309,-4.7309,-4.7309,-4.7309,-4.689,-4.6501,-4.707,-4.6381,-4.5424,-4.5424,-4.5394,-4.5364,-4.5304,-4.4796,-4.4317,-4.4257,-4.3738,-4.329,-4.329,-4.329,-4.329,-4.329,-4.329,-4.329,-4.329,-4.329,-4.288,-4.1624,-4.1452,-4.0876,-3.9619,-3.9439,-3.917,-3.8512,-3.8452,-3.8422,-3.8332,-3.8272,-3.7973,-3.7375,-3.6776,-3.6178,-3.5519,-3.5519,-3.5519,-3.5519,-3.5519,-3.5519,-3.5519,-3.5519,-3.5519,-2.2046,-2.3065,-2.3872,-2.3245,-2.5083,0.0,0.0,-2.8398,-2.9553,-3.1009,-3.2625,0.0,0.0,0.0,0.0,0.0,0.0,0.0,0.0,0.0,0.0,0.0,0.0,0.0,0.0,0.0,0.0,0.0,0.0,0.0,0.0,0.0,0.0,0.0,0.0,0.0,0.0,-4.689,-4.689,-4.7309,-4.7309,-4.7309,-4.7309,-4.7309,-4.7309,-4.7309,-4.7309,-4.7309,-4.7309,-4.7309,-4.7309,-4.7309,-4.7309,-4.7309,-4.7309,-4.7309,-4.7309,-4.7309,-4.7309,-4.7309,-4.7309,-4.7309,-4.7309,-4.7219,-4.68,-4.6531,-4.6202,-4.5603,-4.5364,-4.5394,-4.5813,-4.5304,-4.4676,-4.4676,-4.4197,-4.3678,-4.3678,-4.3469,-4.329,-4.329,-4.329,-4.329,-4.329,-4.329,-4.329,-4.329,-4.3,-4.259,-4.2081,-4.1265,-4.0576,-4.0098,-3.9679,-3.932,-3.905,-3.902,-3.902,-3.902,-3.8242,-3.7674,-3.7434,-3.6806,-3.6178,-3.5519,-3.5519,-3.5519,-3.5519,-3.5519,-3.5519,-3.5519,-3.5519,-3.5519,-2.1519,-2.2586,-2.3607,-2.3334,0.0,0.0,-2.8425,-2.9857,-3.1624,-3.3248,0.0,0.0,0.0,0.0,0.0,0.0,0.0,0.0,0.0,0.0,0.0,0.0,0.0,0.0,0.0,0.0,0.0,0.0,0.0,0.0,0.0,0.0,0.0,0.0,0.0,0.0,0.0,-4.6232,-4.6232,-4.6681,-4.6681,-4.689,-4.7309,-4.7309,-4.7309,-4.7309,-4.7309,-4.7309,-4.7309,-4.7309,-4.7309,-4.7309,-4.7309,-4.7309,-4.7309,-4.7309,-4.7309,-4.7309,-4.7309,-4.7309,-4.7279,-4.707,-4.698,-4.686,-4.6202,-4.5843,-4.5502,-4.4825,-4.4646,-4.4825,-4.5514,-4.5005,-4.4377,-4.4586,-4.3958,-4.329,-4.329,-4.329,-4.329,-4.329,-4.329,-4.329,-4.329,-4.329,-4.323,-4.306,-4.2641,-4.2261,-4.1841,-4.0965,-4.0337,-4.0127,-3.9679,-3.9373,-3.9373,-3.9373,-3.9373,-3.9373,-3.8542,-3.7943,-3.7734,-3.7105,-3.6477,-3.5818,-3.5609,-3.5519,-3.5519,-3.5519,-3.5519,-3.5519,-3.5519,-3.5519,-2.1537,-2.1619,-2.2042,0.0,0.0,0.0,-3.0642,-3.2629,-3.4579,0.0,0.0,0.0,0.0,0.0,0.0,0.0,0.0,0.0,0.0,0.0,0.0,0.0,0.0,0.0,0.0,0.0,0.0,0.0,0.0,0.0,0.0,0.0,0.0,0.0,0.0,0.0,0.0,-4.5274,-4.5274,-4.5304,-4.5304,-4.5992,-4.7279,-4.7279,-4.7279,-4.7279,-4.7279,-4.7279,-4.7279,-4.7309,-4.7309,-4.7309,-4.7309,-4.7309,-4.7309,-4.7309,-4.7309,-4.7279,-4.7279,-4.7279,-4.7189,-4.6531,-4.6279,-4.6202,-4.5484,-4.4825,-4.4436,-4.5095,-4.4347,-4.3439,-4.4137,-4.4317,-4.4466,-4.5125,-4.4287,-4.329,-4.329,-4.329,-4.329,-4.329,-4.329,-4.329,-4.329,-4.329,-4.312,-4.25,-4.2381,-4.1901,-4.0546,-4.0397,-4.0157,-3.9463,-3.9373,-3.9373,-3.9373,-3.9373,-3.9373,-3.9373,-3.9373,-3.911,-3.8422,-3.7764,-3.7135,-3.6507,-3.5848,-3.5519,-3.5519,-3.5519,-3.5519,-3.5519,-3.5519,-3.5519,-2.3496,-2.4014,0.0,0.0,0.0,0.0,0.0,0.0,0.0,0.0,0.0,0.0,0.0,0.0,0.0,0.0,0.0,0.0,0.0,0.0,0.0,0.0,0.0,0.0,0.0,0.0,0.0,0.0,0.0,0.0,0.0,0.0,0.0,0.0,0.0,0.0,0.0,-4.4825,-4.4825,-4.5304,-4.5304,-4.5514,-4.5873,-4.5873,-4.5873,-4.5873,-4.5873,-4.5873,-4.5933,-4.6411,-4.6621,-4.6651,-4.713,-4.701,-4.6621,-4.6621,-4.6322,-4.5873,-4.5873,-4.5873,-4.5873,-4.5663,-4.5603,-4.5484,-4.4796,-4.4466,-4.4257,-4.3947,-4.3589,-4.3439,-4.4137,-4.3917,-4.3648,-4.3828,-4.3589,-4.329,-4.329,-4.329,-4.329,-4.329,-4.329,-4.329,-4.329,-4.329,-4.312,-4.25,-4.2021,-4.1205,-3.9888,-3.9709,-3.9649,-3.9403,-3.9373,-3.9373,-3.9373,-3.9373,-3.9373,-3.9373,-3.9373,-3.911,-3.8422,-3.8212,-3.7584,-3.6507,-3.6297,-3.5968,-3.5519,-3.5519,-3.5519,-3.5519,-3.5519,-3.5519,-2.3593,0.0,0.0,0.0,0.0,0.0,0.0,0.0,0.0,0.0,0.0,0.0,0.0,0.0,0.0,0.0,0.0,0.0,0.0,0.0,0.0,0.0,0.0,0.0,0.0,0.0,0.0,0.0,0.0,0.0,0.0,0.0,0.0,0.0,0.0,0.0,-4.3748,-4.3359,-4.3359,-4.3748,-4.3748,-4.3748,-4.3778,-4.4825,-4.5304,-4.5304,-4.5304,-4.5304,-4.5334,-4.5753,-4.5903,-4.5963,-4.6352,-4.6262,-4.5903,-4.5903,-4.5663,-4.5304,-4.5304,-4.5304,-4.5244,-4.4975,-4.4915,-4.4796,-4.4137,-4.3888,-4.3838,-4.3409,-4.329,-4.3379,-4.3798,-4.3589,-4.3349,-4.3618,-4.3469,-4.329,-4.329,-4.329,-4.329,-4.329,-4.329,-4.329,-4.329,-4.312,-4.2731,-4.2111,-4.1242,-4.0307,-3.9529,-3.9373,-3.9373,-3.9373,-3.9373,-3.9373,-3.9373,-3.9373,-3.9373,-3.9373,-3.9373,-3.923,-3.8811,-3.8542,-3.7913,-3.6866,-3.6596,-3.6178,-3.5519,-3.5519,-3.5519,-3.5519,-3.5519,-3.5519,0.0,0.0,0.0,0.0,0.0,0.0,0.0,0.0,0.0,0.0,0.0,0.0,0.0,0.0,0.0,0.0,0.0,0.0,0.0,0.0,0.0,0.0,0.0,0.0,0.0,0.0,0.0,0.0,0.0,0.0,0.0,0.0,0.0,0.0,0.0,0.0,-4.1422,-4.1422,-4.1422,0.0,-4.1324,-4.1324,-4.1474,-4.3838,-4.4975,-4.5035,-4.5035,-4.5065,-4.5125,-4.5185,-4.5214,-4.5214,-4.5274,-4.5244,-4.5214,-4.5214,-4.5155,-4.5125,-4.5125,-4.5125,-4.5005,-4.4436,-4.4227,-4.4107,-4.3469,-4.329,-4.329,-4.329,-4.329,-4.329,-4.329,-4.329,-4.3439,-4.4077,-4.3738,-4.329,-4.329,-4.329,-4.329,-4.329,-4.329,-4.329,-4.329,-4.2791,-4.2141,-4.1414,-4.0217,-3.9373,-3.9373,-3.9373,-3.9373,-3.9373,-3.9373,-3.9373,-3.9373,-3.9373,-3.9373,-3.9373,-3.9373,-3.9373,-3.9373,-3.8811,-3.8153,-3.7434,-3.6866,-3.6207,-3.5519,-3.5519,-3.5519,-3.5519,-3.5519,-3.5519,0.0,0.0,0.0,0.0,0.0,0.0,0.0,0.0,0.0,0.0,0.0,0.0,0.0,0.0,0.0,0.0,0.0,0.0,0.0,0.0,0.0,0.0,0.0,0.0,0.0,0.0,0.0,0.0,0.0,0.0,0.0,0.0,0.0,0.0,0.0,-4.1572,-4.1422,-4.1422,-4.1422,0.0,-4.0846,-4.0876,-4.1414,-4.1953,-4.256,-4.3039,-4.3039,-4.3269,-4.3768,-4.4317,-4.4526,-4.4586,-4.5095,-4.4975,-4.4526,-4.4526,-4.4197,-4.3708,-4.3708,-4.3708,-4.3708,-4.3559,-4.3499,-4.3469,-4.3319,-4.329,-4.329,-4.329,-4.329,-4.329,-4.329,-4.329,-4.3319,-4.3469,-4.3379,-4.329,-4.329,-4.329,-4.329,-4.329,-4.329,-4.329,-4.329,-4.2791,-4.1991,-4.0786,-3.9918,-3.9373,-3.9373,-3.9373,-3.9373,-3.9373,-3.9373,-3.9373,-3.9373,-3.9373,-3.9373,-3.9373,-3.9373,-3.9373,-3.9373,-3.9254,-3.8631,-3.7434,-3.7285,-3.6656,-3.5519,-3.5519,-3.5519,-3.5519,-3.5519,-3.5519,0.0,0.0,0.0,0.0,0.0,0.0,0.0,0.0,0.0,0.0,0.0,0.0,0.0,0.0,0.0,0.0,0.0,0.0,0.0,0.0,0.0,0.0,0.0,0.0,0.0,0.0,0.0,0.0,0.0,0.0,0.0,0.0,0.0,0.0,-3.9948,-3.9798,-3.9469,-3.9469,-3.9469,-3.9469,-3.914,-3.914,-3.9529,-4.0786,-4.1602,-4.1931,-4.1931,-4.2073,-4.2462,-4.309,-4.3389,-4.3449,-4.4107,-4.4137,-4.3798,-4.3798,-4.3589,-4.329,-4.329,-4.329,-4.329,-4.329,-4.329,-4.329,-4.329,-4.329,-4.329,-4.329,-4.329,-4.329,-4.329,-4.329,-4.329,-4.329,-4.329,-4.329,-4.329,-4.329,-4.329,-4.329,-4.309,-4.297,-4.323,-4.2521,-4.1482,-4.0127,-3.9649,-3.9373,-3.9373,-3.9373,-3.9373,-3.9373,-3.9373,-3.9373,-3.9373,-3.9373,-3.9373,-3.9373,-3.9373,-3.9373,-3.9373,-3.9373,-3.8931,-3.7913,-3.7554,-3.6926,-3.5968,-3.5669,-3.5519,-3.5519,-3.5818,-3.5968,0.0,0.0,0.0,0.0,0.0,0.0,0.0,0.0,0.0,0.0,0.0,0.0,0.0,0.0,0.0,0.0,0.0,0.0,0.0,0.0,0.0,0.0,0.0,0.0,0.0,0.0,0.0,0.0,0.0,0.0,0.0,0.0,0.0,0.0,-3.8212,-3.7973,-3.7404,-3.7404,-3.7404,-3.7404,-3.7404,-3.7345,-3.7315,-3.9649,-4.0756,-4.0913,-4.0995,-4.1115,-4.1265,-4.1961,-4.2231,-4.2291,-4.291,-4.311,-4.314,-4.326,-4.329,-4.329,-4.329,-4.329,-4.329,-4.329,-4.329,-4.329,-4.329,-4.329,-4.329,-4.329,-4.329,-4.329,-4.329,-4.329,-4.326,-4.314,-4.32,-4.329,-4.329,-4.329,-4.329,-4.329,-4.2791,-4.25,-4.2761,-4.1923,-4.0816,-3.9553,-3.9373,-3.9373,-3.9373,-3.9373,-3.9373,-3.9373,-3.9373,-3.9373,-3.9373,-3.9373,-3.9373,-3.9373,-3.9373,-3.9373,-3.9373,-3.9373,-3.914,-3.8571,-3.7913,-3.7255,-3.6656,-3.6088,-3.5848,-3.5848,-3.6387,-3.6656,0.0,0.0,0.0,0.0,0.0,0.0,0.0,0.0,0.0,0.0,0.0,0.0,0.0,0.0,0.0,0.0,0.0,0.0,0.0,0.0,0.0,0.0,0.0,0.0,0.0,0.0,0.0,0.0,0.0,0.0,0.0,0.0,-3.6798,-3.752,-3.7524,-3.7494,-3.7404,-3.7404,-3.7404,-3.7404,-3.7404,-3.7135,-3.6626,-3.7524,-3.8242,-3.8811,-3.9409,-4.0008,-4.0576,-4.1235,-4.1504,-4.1602,-4.2261,-4.253,-4.259,-4.312,-4.329,-4.329,-4.329,-4.329,-4.329,-4.329,-4.329,-4.329,-4.329,-4.329,-4.329,-4.329,-4.329,-4.329,-4.329,-4.329,-4.314,-4.2611,-4.291,-4.329,-4.329,-4.329,-4.329,-4.329,-4.2791,-4.2081,-4.0965,-4.0636,-4.0277,-3.9493,-3.9373,-3.9373,-3.9373,-3.9373,-3.9373,-3.9373,-3.9373,-3.9373,-3.9373,-3.9373,-3.9373,-3.9373,-3.9373,-3.9373,-3.9373,-3.9373,-3.9379,-3.929,-3.8601,-3.7943,-3.7285,-3.7195,-3.7165,-3.7165,-3.7255,-3.7285,0.0,0.0,0.0,0.0,0.0,0.0,0.0,0.0,0.0,0.0,0.0,0.0,0.0,0.0,0.0,0.0,0.0,0.0,0.0,0.0,0.0,0.0,0.0,0.0,0.0,0.0,0.0,0.0,0.0,0.0,0.0,-3.6458,-3.6246,-3.6324,-3.6357,0.0,-3.6357,-3.6357,-3.6357,-3.6357,-3.6357,-3.6207,-3.5938,-3.6207,-3.6896,-3.7853,-3.8153,-3.8452,-3.8811,-3.9858,-4.0277,-4.0397,-4.1452,-4.1841,-4.1871,-4.2132,-4.2252,-4.2252,-4.2252,-4.2252,-4.2252,-4.2252,-4.2491,-4.2791,-4.2791,-4.303,-4.329,-4.329,-4.329,-4.329,-4.329,-4.306,-4.2731,-4.247,-4.262,-4.2671,-4.2312,-4.2821,-4.308,-4.2372,-4.2013,-4.1384,-4.0068,-4.0157,-4.0187,-3.9529,-3.9373,-3.9373,-3.9373,-3.9373,-3.9373,-3.9373,-3.9373,-3.9373,-3.9373,-3.9373,-3.9373,-3.9373,-3.9373,-3.9373,-3.9373,-3.9373,-3.9373,-3.9373,-3.8751,-3.8242,-3.7973,-3.7584,-3.7225,-3.6896,-3.7614,-3.7584,0.0,0.0,0.0,0.0,0.0,0.0,0.0,0.0,0.0,0.0,0.0,0.0,0.0,0.0,0.0,0.0,0.0,0.0,0.0,0.0,0.0,0.0,0.0,0.0,0.0,0.0,0.0,0.0,0.0,0.0,-3.5998,-3.5968,-3.5669,-3.5011,-3.4981,-3.4981,-3.4981,-3.516,-3.516,-3.5011,-3.534,-3.54,-3.525,-3.5429,-3.6028,-3.6926,-3.7105,-3.7165,-3.7285,-3.8601,-3.917,-3.929,-4.0606,-4.1145,-4.1145,-4.1324,-4.1422,-4.1422,-4.1422,-4.1422,-4.1422,-4.1422,-4.1871,-4.241,-4.241,-4.2821,-4.329,-4.329,-4.329,-4.326,-4.312,-4.2731,-4.2321,-4.1991,-4.2021,-4.2051,-4.1752,-4.2252,-4.2491,-4.1354,-4.1145,-4.0756,-3.9619,-3.9828,-3.9978,-3.9499,-3.9373,-3.9373,-3.9373,-3.9373,-3.9373,-3.9373,-3.9373,-3.9373,-3.9373,-3.9373,-3.9373,-3.9373,-3.9373,-3.9373,-3.9373,-3.9373,-3.9373,-3.9373,-3.8901,-3.8661,-3.8661,-3.8153,-3.7674,-3.7255,-3.8033,-3.7883,0.0,0.0,0.0,0.0,0.0,0.0,0.0,0.0,0.0,0.0,0.0,0.0,0.0,0.0,0.0,0.0,0.0,0.0,0.0,0.0,0.0,0.0,0.0,0.0,0.0,0.0,0.0,0.0,0.0,0.0,-3.4653,-3.4623,-3.4324,-3.3634,-3.3604,-3.3604,-3.3604,-3.4234,-3.4234,-3.3604,-3.4891,-3.516,-3.4593,-3.522,-3.5549,-3.5639,-3.6267,-3.6537,-3.6626,-3.7913,-3.8452,-3.8571,-3.9918,-4.0457,-4.0516,-4.1145,-4.1422,-4.1422,-4.1422,-4.1422,-4.1422,-4.1422,-4.1871,-4.241,-4.241,-4.2821,-4.329,-4.329,-4.329,-4.314,-4.262,-4.241,-4.2081,-4.0816,-4.0965,-4.1632,-4.2231,-4.1901,-4.1265,-4.0576,-4.0457,-4.0217,-3.9493,-3.9439,-3.9469,-3.9439,-3.9373,-3.9373,-3.9373,-3.9373,-3.9373,-3.9373,-3.9373,-3.9373,-3.9373,-3.9373,-3.9373,-3.9373,-3.9373,-3.9373,-3.9373,-3.9373,-3.9373,-3.9373,-3.9379,-3.9379,-3.9379,-3.9284,-3.9254,-3.926,-3.8661,-3.8362,0.0,0.0,0.0,0.0,0.0,0.0,0.0,0.0,0.0,0.0,0.0,0.0,0.0,0.0,0.0,0.0,0.0,0.0,0.0,0.0,0.0,0.0,0.0,0.0,0.0,0.0,0.0,0.0,0.0,0.0,-3.3873,-3.3844,-3.3754,-3.3514,-3.3484,-3.3484,-3.3484,-3.3724,-3.3724,-3.3514,-3.3993,-3.4322,-3.4503,-3.4773,-3.507,-3.5519,-3.5759,-3.5848,-3.5968,-3.7225,-3.7524,-3.7345,-3.908,-3.9499,-3.92,-3.9858,-4.0127,-4.0127,-4.0127,-4.0127,-4.0127,-4.0127,-4.0846,-4.1782,-4.1782,-4.2192,-4.2791,-4.317,-4.2731,-4.2132,-4.2351,-4.1782,-4.0995,-4.0516,-4.0247,-4.0307,-4.0965,-4.0905,-4.0696,-4.0457,-4.0068,-3.9709,-3.9469,-3.9373,-3.9373,-3.9373,-3.9373,-3.9373,-3.9373,-3.902,-3.8931,-3.9343,-3.902,-3.8931,-3.9343,-3.9373,-3.9373,-3.9373,-3.9373,-3.9373,-3.9373,-3.9373,-3.9373,-3.9373,-3.9373,-3.9373,-3.9373,-3.9373,-3.896,-3.8123,-3.8302,-3.7734,-2.5794,0.0,0.0,0.0,0.0,0.0,0.0,0.0,0.0,0.0,0.0,0.0,0.0,0.0,0.0,0.0,0.0,0.0,0.0,0.0,0.0,0.0,0.0,0.0,0.0,0.0,0.0,0.0,0.0,0.0,-3.3215,-3.3155,-3.3066,-3.2856,-3.2826,-3.2826,-3.2826,-3.3066,-3.3066,-3.2826,-3.3275,-3.3724,-3.4174,-3.4414,-3.4861,-3.5519,-3.5519,-3.5519,-3.5579,-3.6656,-3.6866,-3.6656,-3.8392,-3.8781,-3.8482,-3.917,-3.9373,-3.9373,-3.9373,-3.9373,-3.9373,-3.9373,-4.0157,-4.1055,-4.1055,-4.1504,-4.2171,-4.2551,-4.2043,-4.1482,-4.1692,-4.0876,-4.0068,-4.0068,-3.9738,-3.9493,-3.9978,-4.0068,-4.0068,-4.0068,-3.9709,-3.9373,-3.9373,-3.9373,-3.9373,-3.9373,-3.9373,-3.9373,-3.9373,-3.902,-3.8901,-3.9343,-3.902,-3.8931,-3.9343,-3.9373,-3.9373,-3.9373,-3.9373,-3.9373,-3.9373,-3.9373,-3.9373,-3.9373,-3.9373,-3.9373,-3.9373,-3.9373,-3.8841,-3.7734,-3.7973,-3.7135,0.0,0.0,0.0,0.0,0.0,0.0,0.0,0.0,0.0,0.0,0.0,0.0,0.0,0.0,0.0,0.0,0.0,0.0,0.0,0.0,0.0,0.0,0.0,0.0,0.0,0.0,0.0,0.0,0.0,-3.3125,-3.2467,-3.2407,-3.2108,-3.154,-3.1481,-3.1481,-3.1511,-3.2108,-3.2108,-3.1511,-3.2856,-3.3484,-3.3514,-3.4173,-3.4861,-3.5519,-3.5519,-3.5519,-3.5549,-3.6207,-3.6477,-3.6596,-3.7853,-3.8362,-3.8452,-3.914,-3.9409,-3.9373,-3.9373,-3.9373,-3.9373,-3.9373,-3.9858,-4.0397,-4.0397,-4.0846,-4.1354,-4.1384,-4.1354,-4.1175,-4.0546,-3.9888,-3.9373,-3.9373,-3.9373,-3.9373,-3.9373,-3.9373,-3.9373,-3.9373,-3.9373,-3.9373,-3.9373,-3.9373,-3.9373,-3.9373,-3.9409,-3.9409,-3.9373,-3.9379,-3.9379,-3.9373,-3.9409,-3.9409,-3.9373,-3.9373,-3.9373,-3.9373,-3.9373,-3.9373,-3.9373,-3.9373,-3.9373,-3.9373,-3.9373,-3.9373,-3.9373,-3.9409,-3.902,-3.8332,-3.7674,-3.6686,-2.6363,0.0,0.0,0.0,0.0,0.0,0.0,0.0,0.0,0.0,0.0,0.0,0.0,0.0,0.0,0.0,0.0,0.0,0.0,0.0,0.0,0.0,0.0,0.0,0.0,0.0,0.0,0.0,0.0,-3.1061,-3.0432,-3.0402,-3.0731,-3.1481,-3.0612,-3.0582,-3.1481,-3.1182,-3.1182,-3.1511,-3.2377,-3.3036,-3.3514,-3.4173,-3.4861,-3.5519,-3.5519,-3.5519,-3.5549,-3.6207,-3.6207,-3.5908,-3.7195,-3.7674,-3.7764,-3.8422,-3.899,-3.9373,-3.9373,-3.9373,-3.9373,-3.9373,-3.9858,-4.0397,-4.0397,-4.0516,-4.0756,-4.1235,-4.0696,-3.9918,-3.9738,-3.9559,-3.9373,-3.9373,-3.9373,-3.9373,-3.9373,-3.9373,-3.9373,-3.9373,-3.9373,-3.9373,-3.9373,-3.9373,-3.9373,-3.9373,-3.899,-3.8841,-3.9349,-3.8571,-3.8297,-3.932,-3.896,-3.8871,-3.9379,-3.9373,-3.9373,-3.9373,-3.9373,-3.9373,-3.9373,-3.9373,-3.9373,-3.9373,-3.9373,-3.9373,-3.9373,-3.8901,-3.8332,-3.7644,-3.6537,-3.5848,0.0,0.0,0.0,0.0,0.0,0.0,0.0,0.0,0.0,0.0,0.0,0.0,0.0,0.0,0.0,0.0,0.0,0.0,0.0,0.0,0.0,0.0,0.0,0.0,0.0,0.0,0.0,0.0,-2.9924,-2.9953,-2.9621,-2.9621,-2.9924,-3.0702,-3.0223,-3.0342,-3.1062,-3.0972,-3.1092,-3.1511,-3.1899,-3.2407,-3.3095,-3.3754,-3.4442,-3.51,-3.537,-3.5519,-3.5519,-3.5908,-3.5848,-3.5609,-3.6626,-3.7015,-3.7135,-3.8063,-3.8631,-3.902,-3.932,-3.9373,-3.9373,-3.9373,-3.9679,-3.9978,-3.9978,-3.9978,-4.0068,-4.0457,-4.0008,-3.9373,-3.9373,-3.9373,-3.9373,-3.9373,-3.9373,-3.9313,-3.905,-3.92,-3.9373,-3.9373,-3.9373,-3.9373,-3.9373,-3.9373,-3.9373,-3.9373,-3.908,-3.896,-3.9379,-3.8482,-3.8212,-3.932,-3.8811,-3.8661,-3.9313,-3.9373,-3.9373,-3.9373,-3.9373,-3.9373,-3.9373,-3.9373,-3.9373,-3.9373,-3.9373,-3.9104,-3.8571,-3.8452,-3.7913,-3.7015,-3.5998,-3.5519,0.0,0.0,0.0,0.0,0.0,0.0,-2.5764,-2.5352,-2.4993,0.0,0.0,0.0,0.0,0.0,0.0,0.0,0.0,0.0,0.0,0.0,0.0,0.0,0.0,0.0,0.0,0.0,0.0,-2.9172,-2.9232,-2.9352,-2.9502,-2.9442,-2.9442,-2.9621,-2.9983,-3.0253,-3.0402,-3.0972,-3.1331,-3.1391,-3.154,-3.1929,-3.2527,-3.3275,-3.3933,-3.4533,-3.522,-3.5519,-3.5519,-3.5519,-3.5519,-3.5579,-3.6148,-3.6417,-3.6626,-3.7764,-3.8272,-3.8482,-3.908,-3.9349,-3.9373,-3.9373,-3.9373,-3.9373,-3.9373,-3.9373,-3.9373,-3.9373,-3.9373,-3.9373,-3.9373,-3.9373,-3.9373,-3.9373,-3.9373,-3.926,-3.8631,-3.899,-3.9373,-3.9373,-3.9373,-3.9409,-3.932,-3.9343,-3.9343,-3.9194,-3.926,-3.932,-3.932,-3.8691,-3.8542,-3.923,-3.8691,-3.8571,-3.926,-3.932,-3.9313,-3.9373,-3.9373,-3.9373,-3.9373,-3.9373,-3.9373,-3.9373,-3.9349,-3.8631,-3.7315,-3.7883,-3.7554,-3.6357,-3.5789,-3.5519,0.0,0.0,0.0,0.0,0.0,0.0,-2.6632,-2.7141,-2.738,0.0,0.0,0.0,0.0,0.0,0.0,0.0,0.0,0.0,0.0,0.0,0.0,0.0,0.0,0.0,0.0,0.0,-2.6393,-2.6393,-2.6871,-2.7649,-2.8727,-2.8304,-2.8483,-2.9562,-2.8663,-2.8693,-2.9771,-2.9894,-3.0223,-3.0731,-3.178,-3.2348,-3.2557,-3.3754,-3.4384,-3.4533,-3.522,-3.5519,-3.5519,-3.5519,-3.5519,-3.5519,-3.5639,-3.6028,-3.6507,-3.6776,-3.7494,-3.8422,-3.8542,-3.896,-3.9373,-3.9373,-3.9373,-3.9373,-3.9373,-3.9373,-3.9373,-3.9373,-3.9373,-3.9373,-3.9373,-3.9373,-3.9373,-3.9373,-3.9373,-3.9343,-3.926,-3.932,-3.9373,-3.9373,-3.9373,-3.926,-3.8691,-3.905,-3.9014,-3.7973,-3.8242,-3.8601,-3.8601,-3.8003,-3.7853,-3.8512,-3.8003,-3.7883,-3.8542,-3.8601,-3.8841,-3.9379,-3.9373,-3.9373,-3.9373,-3.9373,-3.9373,-3.9373,-3.8871,-3.7943,-3.6656,-3.6806,-3.6447,-3.5699,-3.5579,-3.5519,0.0,0.0,0.0,-2.8034,0.0,0.0,0.0,-2.7081,0.0,0.0,0.0,0.0,0.0,0.0,0.0,0.0,0.0,0.0,0.0,0.0,0.0,0.0,0.0,0.0,0.0,0.0,-2.5615,-2.5615,-2.5914,-2.6542,-2.756,-2.726,-2.7555,-2.8573,-2.8274,-2.8603,-2.9592,-2.9894,-3.0372,-3.1002,-3.166,-3.1989,-3.2019,-3.3036,-3.3664,-3.4054,-3.4711,-3.519,-3.5519,-3.5519,-3.5519,-3.5519,-3.5519,-3.5699,-3.6028,-3.6357,-3.6896,-3.7524,-3.8153,-3.8631,-3.896,-3.932,-3.9373,-3.9373,-3.9373,-3.9373,-3.9373,-3.9373,-3.9373,-3.9373,-3.9373,-3.9373,-3.9373,-3.9373,-3.9373,-3.932,-3.899,-3.917,-3.932,-3.896,-3.8901,-3.8901,-3.8901,-3.92,-3.9164,-3.8512,-3.8691,-3.8781,-3.8422,-3.7823,-3.7674,-3.8332,-3.7524,-3.7345,-3.8302,-3.8392,-3.8542,-3.8871,-3.923,-3.9373,-3.9373,-3.9373,-3.9373,-3.9373,-3.8422,-3.7584,-3.6956,-3.6297,-3.5818,-3.5519,-3.5519,-3.5519,0.0,0.0,0.0,0.0,0.0,-2.7225,0.0,0.0,0.0,0.0,0.0,0.0,0.0,0.0,0.0,0.0,0.0,0.0,0.0,0.0,0.0,0.0,0.0,0.0,0.0,0.0,-2.5285,-2.5382,-2.5412,-2.5704,-2.6363,-2.6393,-2.6692,-2.7375,-2.7919,-2.8517,-2.9202,-2.9953,-3.0612,-3.1122,-3.1391,-3.1511,-3.154,-3.2198,-3.2886,-3.3544,-3.4234,-3.4861,-3.5519,-3.5519,-3.5519,-3.5519,-3.5519,-3.5519,-3.5579,-3.6118,-3.6387,-3.6656,-3.7793,-3.8272,-3.8512,-3.92,-3.9373,-3.9373,-3.9373,-3.9373,-3.9373,-3.9373,-3.9373,-3.9373,-3.9373,-3.932,-3.923,-3.923,-3.914,-3.8871,-3.8332,-3.8721,-3.905,-3.8512,-3.8392,-3.8571,-3.911,-3.923,-3.914,-3.8901,-3.905,-3.8931,-3.8123,-3.7554,-3.7434,-3.7973,-3.6985,-3.6776,-3.7913,-3.8123,-3.8212,-3.8212,-3.8841,-3.923,-3.923,-3.923,-3.917,-3.902,-3.7853,-3.7165,-3.7045,-3.5998,-3.5519,-3.5519,-3.5519,-3.5519,0.0,0.0,0.0,0.0,-2.8483,0.0,0.0,0.0,0.0,0.0,0.0,0.0,0.0,0.0,0.0,0.0,0.0,0.0,0.0,0.0,0.0,0.0,0.0,0.0,0.0,0.0,0.0,-2.4664,-2.4724,-2.4993,-2.5674,-2.5704,-2.6033,-2.6716,-2.6782,-2.7165,-2.7824,-2.9082,-2.9714,-2.9834,-3.0943,-3.1511,-3.154,-3.2198,-3.2886,-3.3544,-3.4234,-3.4861,-3.5519,-3.5519,-3.5519,-3.5519,-3.5519,-3.5519,-3.5519,-3.5579,-3.5998,-3.6596,-3.7285,-3.7913,-3.8512,-3.92,-3.9373,-3.9373,-3.9373,-3.9373,-3.9373,-3.9373,-3.9373,-3.9373,-3.9373,-3.896,-3.8512,-3.8512,-3.8063,-3.7614,-3.7524,-3.8033,-3.8482,-3.8392,-3.8392,-3.8422,-3.8482,-3.8512,-3.8123,-3.6985,-3.7793,-3.8063,-3.6866,-3.6626,-3.6626,-3.6686,-3.6058,-3.5908,-3.6626,-3.7195,-3.7524,-3.7524,-3.8153,-3.8512,-3.8512,-3.8512,-3.8242,-3.7644,-3.6956,-3.6297,-3.5729,-3.5579,-3.5519,-3.5519,-3.5519,-3.5519,0.0,0.0,0.0,0.0,0.0,0.0,0.0,0.0,-2.7675,0.0,0.0,0.0,0.0,0.0,0.0,0.0,0.0,0.0,0.0,0.0,0.0,0.0,0.0,0.0,0.0,0.0,0.0,0.0,0.0,-2.3945,-2.497,-2.5023,-2.5525,-2.6596,-2.6602,-2.7315,-2.8753,-2.9322,-2.9953,-3.0731,-3.1241,-3.1511,-3.1511,-3.178,-3.2527,-3.3514,-3.3784,-3.4502,-3.5519,-3.5519,-3.5519,-3.5519,-3.5519,-3.5519,-3.5519,-3.5519,-3.5669,-3.5998,-3.6656,-3.7045,-3.7375,-3.8033,-3.8781,-3.9224,-3.8482,-3.8512,-3.8811,-3.8811,-3.8542,-3.8332,-3.8721,-3.8332,-3.7823,-3.7823,-3.7614,-3.7524,-3.7913,-3.7913,-3.7943,-3.8302,-3.7793,-3.7404,-3.7764,-3.7823,-3.7644,-3.7105,-3.7494,-3.7494,-3.6596,-3.6477,-3.6477,-3.6477,-3.5908,-3.5759,-3.6417,-3.6716,-3.6866,-3.6866,-3.7464,-3.7823,-3.7823,-3.7823,-3.7704,-3.7404,-3.6806,-3.6357,-3.6058,-3.5699,-3.5519,-3.5519,-3.5519,-3.5519,-2.8124,0.0,0.0,0.0,0.0,0.0,0.0,0.0,0.0,0.0,0.0,0.0,0.0,0.0,0.0,0.0,0.0,0.0,0.0,0.0,0.0,0.0,0.0,0.0,0.0,0.0,0.0,0.0,-2.3098,0.0,-2.4014,-2.4425,-2.5113,-2.6273,-2.6482,-2.7405,-2.9052,-2.9412,-3.0073,-3.0972,-3.1331,-3.1511,-3.1511,-3.1511,-3.2138,-3.3245,-3.3425,-3.4143,-3.525,-3.5429,-3.5519,-3.5519,-3.5519,-3.5519,-3.5519,-3.5519,-3.5519,-3.5609,-3.6267,-3.6596,-3.6806,-3.7255,-3.8063,-3.8691,-3.7704,-3.7734,-3.8123,-3.8123,-3.7793,-3.7524,-3.8003,-3.7644,-3.7165,-3.7165,-3.7015,-3.7015,-3.7494,-3.7375,-3.7315,-3.7764,-3.7105,-3.6626,-3.7075,-3.7165,-3.7165,-3.7165,-3.7165,-3.6926,-3.6297,-3.6207,-3.6207,-3.6207,-3.5789,-3.5699,-3.6178,-3.6387,-3.6477,-3.6477,-3.6896,-3.7165,-3.7165,-3.7165,-3.7165,-3.7165,-3.6537,-3.6207,-3.6207,-3.5729,-3.5519,-3.5519,-3.5519,-3.5519,0.0,0.0,0.0,-2.7944,0.0,0.0,0.0,0.0,-2.8188,0.0,0.0,0.0,0.0,0.0,-2.4186,-2.2972,0.0,0.0,0.0,0.0,0.0,0.0,0.0,0.0,0.0,0.0,0.0,0.0,-2.3251,0.0,-2.2793,-2.3939,-2.4903,-2.5615,-2.6243,-2.6956,-2.7645,-2.8963,-2.9621,-2.9681,-3.0913,-3.1511,-3.1511,-3.1511,-3.1869,-3.2587,-3.3215,-3.3873,-3.4593,-3.522,-3.5519,-3.5519,-3.5519,-3.5519,-3.5519,-3.5519,-3.5519,-3.5609,-3.6267,-3.6866,-3.7375,-3.7404,-3.7434,-3.7464,-3.7434,-3.7434,-3.7434,-3.7434,-3.7434,-3.7404,-3.7434,-3.6985,-3.6507,-3.6507,-3.6028,-3.5579,-3.5579,-3.6088,-3.6537,-3.6537,-3.6507,-3.6507,-3.6507,-3.6507,-3.6507,-3.6507,-3.6507,-3.6267,-3.5609,-3.5549,-3.5549,-3.5549,-3.5519,-3.5519,-3.5519,-3.6118,-3.6477,-3.6477,-3.6507,-3.6507,-3.6507,-3.6507,-3.6507,-3.6507,-3.5878,-3.5549,-3.5549,-3.5519,-3.5519,-3.5519,-3.5519,-3.5519,0.0,0.0,-2.9894,-2.8577,0.0,0.0,0.0,0.0,0.0,0.0,0.0,0.0,0.0,0.0,-2.4963,-2.4096,-2.4126,0.0,0.0,0.0,0.0,0.0,0.0,0.0,0.0,0.0,0.0,-2.264,-2.2472,-2.2459,0.0,-2.3909,-2.4903,-2.5585,-2.6243,-2.7111,-2.8248,-2.8697,-2.9355,-3.0193,-3.0642,-3.1062,-3.1511,-3.1511,-3.1869,-3.2557,-3.3215,-3.3873,-3.4563,-3.522,-3.5519,-3.5519,-3.5519,-3.5519,-3.5519,-3.5519,-3.5519,-3.5549,-3.5759,-3.6267,-3.6716,-3.6297,-3.6716,-3.7255,-3.6417,-3.6447,-3.6806,-3.6806,-3.6477,-3.6237,-3.6686,-3.6327,-3.5938,-3.6387,-3.5998,-3.5729,-3.6596,-3.6267,-3.5968,-3.6387,-3.6118,-3.5848,-3.5848,-3.5848,-3.5848,-3.5848,-3.5848,-3.5759,-3.5519,-3.5519,-3.5519,-3.5519,-3.5519,-3.5519,-3.5519,-3.5699,-3.5848,-3.5848,-3.5848,-3.5848,-3.5848,-3.5848,-3.5848,-3.5848,-3.5609,-3.5519,-3.5519,-3.5519,-3.5519,-3.5519,-3.5519,-3.5519,-2.9983,-3.0193,0.0,-2.9205,-2.9292,0.0,-2.8214,0.0,0.0,0.0,0.0,0.0,0.0,0.0,-2.5382,-2.4724,-2.4395,-2.4066,0.0,-2.361,0.0,0.0,0.0,0.0,0.0,0.0,-2.1932,-2.2312,-2.2355,-2.2371,0.0,0.0,-2.5143,-2.5585,-2.6482,-2.7375,-2.8218,-2.8487,-2.9026,-2.9834,-3.0283,-3.0731,-3.1152,-3.1391,-3.175,-3.2198,-3.3095,-3.3754,-3.4203,-3.513,-3.5519,-3.5519,-3.5519,-3.5519,-3.5519,-3.5519,-3.5519,-3.5519,-3.5519,-3.5789,-3.6058,-3.5639,-3.6058,-3.6567,-3.5759,-3.5789,-3.6178,-3.6417,-3.6178,-3.5998,-3.6656,-3.6507,-3.6297,-3.6716,-3.6477,-3.6357,-3.6956,-3.6447,-3.5908,-3.6118,-3.5789,-3.5519,-3.5519,-3.5519,-3.5519,-3.5519,-3.5519,-3.5519,-3.5519,-3.5519,-3.5519,-3.5519,-3.5519,-3.5519,-3.5519,-3.5519,-3.5519,-3.5519,-3.5519,-3.5519,-3.5519,-3.5519,-3.5729,-3.6178,-3.5729,-3.5729,-3.6178,-3.5729,-3.5519,-3.5519,-3.5519,-3.5519]}]]